[[{"header":{"parameterUnit":"m.s-1","parameterCategory":1,"la1":30.6,"la2":29.2853,"lo1":-89.7004,"lo2":-87.6739,"dy":0.0162,"dx":0.0183,"nx":112,"ny":82,"refTime":"2023-10-08T12:00:00:Z","depth":0,"parameterNumber":2,"parameterNumberName":"U-component_of_WINDS"},"data":[0.0,0.0,0.0,0.0,0.0,0.0,0.0,0.0,0.0,0.0,0.0,0.0,0.0,0.0,0.0,0.0,0.0,0.0,0.0,0.0,0.0,0.0,0.0,0.0,0.0,0.0,0.0,0.0,0.0,0.0,0.0,0.0,0.0,0.0,0.0,0.0,0.0,0.0,0.0,0.0,0.0,0.0,0.0,0.0,0.0,0.0,0.0,0.0,0.0,0.0,0.0,0.0,0.0,0.0,0.0,0.0,0.0,0.0,0.0,0.0,0.0,0.0,0.0,0.0,0.0,0.0,0.0,0.0,0.0,0.0,0.0,0.0,0.0,0.0,0.0,0.0,0.0,0.0,0.0,0.0,0.0,0.0,0.0,0.0,0.0,0.0,0.0,0.0,0.0,0.0,2.5708,2.5701,2.5702,2.5702,2.5709,2.5699,2.4059,2.0205,0.0,0.0,0.0,0.0,0.0,0.0,0.0,0.0,0.0,0.0,0.0,0.0,0.0,0.0,0.0,0.0,0.0,0.0,0.0,0.0,0.0,0.0,0.0,0.0,0.0,0.0,0.0,0.0,0.0,0.0,0.0,0.0,0.0,0.0,0.0,0.0,0.0,0.0,0.0,0.0,0.0,0.0,0.0,0.0,0.0,0.0,0.0,0.0,0.0,0.0,0.0,0.0,0.0,0.0,0.0,0.0,0.0,0.0,0.0,0.0,0.0,0.0,0.0,0.0,0.0,0.0,0.0,0.0,0.0,0.0,0.0,0.0,0.0,0.0,0.0,0.0,0.0,0.0,0.0,0.0,0.0,0.0,0.0,0.0,0.0,0.0,0.0,0.0,0.0,0.0,0.0,0.0,0.0,0.0,0.0,0.0,0.0,0.0,0.0,0.0,0.0,0.0,0.0,0.0,2.5702,2.5702,2.5703,2.5702,2.5709,2.5709,2.3251,1.7491,0.0,0.0,0.0,0.0,0.0,0.0,0.0,0.0,0.0,0.0,0.0,0.0,0.0,0.0,0.0,0.0,0.0,0.0,0.0,0.0,0.0,0.0,0.0,0.0,0.0,0.0,0.0,0.0,0.0,0.0,0.0,0.0,0.0,0.0,0.0,0.0,0.0,0.0,0.0,0.0,0.0,0.0,0.0,0.0,0.0,0.0,0.0,0.0,0.0,0.0,0.0,0.0,0.0,0.0,0.0,0.0,0.0,0.0,0.0,0.0,0.0,0.0,0.0,0.0,0.0,0.0,0.0,0.0,0.0,0.0,0.0,0.0,0.0,0.0,0.0,0.0,0.0,0.0,0.0,0.0,0.0,0.0,0.0,0.0,0.0,0.0,0.0,0.0,0.0,0.0,0.0,0.0,0.0,0.0,0.0,0.0,0.0,0.0,0.0,0.0,0.0,0.0,0.0,2.1389,2.5699,2.5703,2.5703,2.5703,2.57,2.5693,2.4484,2.1675,1.8379,0.0,0.0,0.0,0.0,0.0,0.0,0.0,0.0,0.0,0.0,0.0,0.0,0.0,0.0,0.0,0.0,0.0,0.0,0.0,0.0,0.0,0.0,0.0,0.0,0.0,0.0,0.0,0.0,0.0,0.0,0.0,0.0,0.0,0.0,0.0,0.0,0.0,0.0,0.0,0.0,0.0,0.0,0.0,0.0,0.0,0.0,0.0,0.0,0.0,0.0,0.0,0.0,0.0,0.0,0.0,0.0,0.0,0.0,0.0,0.0,0.0,0.0,0.0,0.0,0.0,0.0,0.0,0.0,0.0,0.0,0.0,0.0,0.0,0.0,0.0,0.0,0.0,0.0,0.0,0.0,0.0,0.0,0.0,0.0,0.0,0.0,0.0,0.0,0.0,0.0,0.0,0.0,0.0,0.0,0.0,0.0,0.0,0.0,0.0,0.0,0.0,0.0,2.3384,2.5703,2.5703,2.5703,2.5703,2.5703,2.5117,2.4625,2.4335,1.9005,0.0,0.0,0.0,0.0,0.0,0.0,0.0,0.0,0.0,0.0,0.0,0.0,0.0,0.0,0.0,0.0,0.0,0.0,0.0,0.0,0.0,0.0,0.0,0.0,0.0,0.0,0.0,0.0,0.0,0.0,0.0,0.0,0.0,0.0,0.0,0.0,0.0,0.0,0.0,0.0,0.0,0.0,0.0,0.0,0.0,0.0,0.0,0.0,0.0,0.0,0.0,0.0,0.0,0.0,0.0,0.0,0.0,0.0,0.0,0.0,0.0,0.0,0.0,0.0,0.0,0.0,0.0,0.0,0.0,0.0,0.0,0.0,0.0,0.0,0.0,0.0,0.0,0.0,0.0,0.0,0.0,0.0,0.0,0.0,0.0,0.0,0.0,0.0,0.0,0.0,0.0,0.0,0.0,0.0,0.0,0.0,0.0,0.0,0.0,0.0,0.0,0.0,2.3378,2.5703,2.5703,2.5703,2.5703,2.5703,2.3412,2.1487,2.029,1.5778,0.0,0.0,0.0,0.0,0.0,0.0,0.0,0.0,0.0,0.0,0.0,0.0,0.0,0.0,0.0,0.0,0.0,0.0,0.0,0.0,0.0,0.0,0.0,0.0,0.0,0.0,0.0,0.0,0.0,0.0,0.0,0.0,0.0,0.0,0.0,0.0,0.0,0.0,0.0,0.0,0.0,0.0,0.0,0.0,0.0,0.0,0.0,0.0,0.0,0.0,0.0,0.0,0.0,0.0,0.0,0.0,0.0,0.0,0.0,0.0,0.0,0.0,0.0,0.0,0.0,0.0,0.0,0.0,0.0,0.0,0.0,0.0,0.0,0.0,0.0,0.0,0.0,0.0,0.0,0.0,0.0,0.0,0.0,0.0,0.0,0.0,0.0,0.0,0.0,0.0,0.0,0.0,0.0,0.0,0.0,0.0,0.0,0.0,0.0,0.0,0.0,0.0,2.3324,2.5644,2.5644,2.5684,2.5703,2.5703,2.4774,2.253,1.8677,0.0,0.0,0.0,0.0,0.0,0.0,0.0,0.0,0.0,0.0,0.0,0.0,0.0,0.0,0.0,0.0,0.0,0.0,0.0,0.0,0.0,0.0,0.0,0.0,0.0,0.0,0.0,0.0,0.0,0.0,0.0,0.0,0.0,0.0,0.0,0.0,0.0,0.0,0.0,0.0,0.0,0.0,0.0,0.0,0.0,0.0,0.0,0.0,0.0,0.0,0.0,0.0,0.0,0.0,0.0,0.0,0.0,0.0,0.0,0.0,0.0,0.0,0.0,0.0,0.0,0.0,0.0,0.0,0.0,0.0,0.0,0.0,0.0,0.0,0.0,0.0,0.0,0.0,0.0,0.0,0.0,0.0,0.0,0.0,0.0,0.0,0.0,0.0,0.0,0.0,0.0,0.0,0.0,0.0,0.0,0.0,0.0,0.0,0.0,0.0,0.0,0.0,1.9492,2.3536,2.6399,2.639,2.6443,2.6484,2.6484,2.5703,2.3283,1.8734,0.0,0.0,0.0,0.0,0.0,0.0,0.0,0.0,0.0,0.0,0.0,0.0,0.0,0.0,0.0,0.0,0.0,0.0,0.0,0.0,0.0,0.0,0.0,0.0,0.0,0.0,0.0,0.0,0.0,0.0,0.0,0.0,0.0,0.0,0.0,0.0,0.0,0.0,0.0,0.0,0.0,0.0,0.0,0.0,0.0,0.0,0.0,0.0,0.0,0.0,0.0,0.0,0.0,0.0,0.0,0.0,0.0,0.0,0.0,0.0,0.0,0.0,0.0,0.0,0.0,0.0,0.0,0.0,0.0,0.0,0.0,0.0,0.0,0.0,0.0,0.0,0.0,0.0,0.0,0.0,0.0,0.0,0.0,0.0,0.0,0.0,0.0,0.0,0.0,0.0,0.0,0.0,0.0,0.0,0.0,0.0,0.0,0.0,0.0,0.0,0.0,0.0,1.8454,2.4115,2.8106,2.8094,2.8162,2.8203,2.8203,2.5762,2.3157,0.0,0.0,0.0,0.0,0.0,0.0,0.0,0.0,0.0,0.0,0.0,0.0,0.0,0.0,0.0,0.0,0.0,0.0,0.0,0.0,0.0,0.0,0.0,0.0,0.0,0.0,0.0,0.0,0.0,0.0,0.0,0.0,0.0,0.0,0.0,0.0,0.0,0.0,0.0,0.0,0.0,0.0,0.0,0.0,0.0,0.0,0.0,0.0,0.0,0.0,0.0,0.0,0.0,0.0,0.0,0.0,0.0,0.0,0.0,0.0,0.0,0.0,0.0,0.0,0.0,0.0,0.0,0.0,0.0,0.0,0.0,0.0,0.0,0.0,0.0,0.0,0.0,0.0,0.0,0.0,0.0,0.0,0.0,0.0,0.0,0.0,0.0,0.0,0.0,0.0,0.0,0.0,0.0,0.0,0.0,0.0,0.0,0.0,0.0,0.0,0.0,0.0,0.0,1.8377,2.4057,2.8035,2.8029,2.8133,2.8203,2.8202,2.7519,2.6914,2.6521,0.0,0.0,0.0,0.0,0.0,0.0,0.0,0.0,0.0,0.0,0.0,0.0,0.0,0.0,0.0,0.0,0.0,0.0,0.0,0.0,0.0,0.0,0.0,0.0,0.0,0.0,0.0,0.0,0.0,0.0,0.0,0.0,0.0,0.0,0.0,0.0,0.0,0.0,0.0,0.0,0.0,0.0,0.0,0.0,0.0,0.0,0.0,0.0,0.0,0.0,0.0,0.0,0.0,0.0,0.0,0.0,0.0,0.0,0.0,0.0,0.0,0.0,0.0,0.0,0.0,0.0,0.0,0.0,0.0,0.0,0.0,0.0,0.0,0.0,0.0,0.0,0.0,0.0,0.0,0.0,0.0,0.0,0.0,0.0,0.0,0.0,0.0,0.0,0.0,0.0,0.0,0.0,0.0,0.0,0.0,0.0,0.0,0.0,0.0,0.0,0.0,0.0,1.8748,2.4743,2.8964,2.8964,2.9087,2.9168,2.9169,2.9274,2.8867,2.7728,0.0,0.0,0.0,0.0,0.0,0.0,0.0,0.0,0.0,0.0,0.0,0.0,0.0,0.0,0.0,0.0,0.0,0.0,0.0,0.0,0.0,0.0,0.0,0.0,0.0,0.0,0.0,0.0,0.0,0.0,0.0,0.0,0.0,0.0,0.0,0.0,0.0,0.0,0.0,0.0,0.0,0.0,0.0,0.0,0.0,0.0,0.0,0.0,0.0,0.0,0.0,0.0,0.0,0.0,0.0,0.0,0.0,0.0,0.0,0.0,0.0,0.0,0.0,0.0,0.0,0.0,0.0,0.0,0.0,0.0,0.0,0.0,0.0,0.0,0.0,0.0,0.0,0.0,0.0,0.0,0.0,0.0,0.0,0.0,0.0,0.0,0.0,0.0,0.0,0.0,0.0,0.0,0.0,0.0,0.0,0.0,0.0,0.0,0.0,0.0,0.0,0.0,1.9352,2.5835,3.0398,3.0398,3.0525,3.0597,3.0607,3.0799,2.9492,2.6211,0.0,0.0,0.0,0.0,0.0,0.0,0.0,0.0,0.0,0.0,0.0,0.0,0.0,0.0,0.0,0.0,0.0,0.0,0.0,0.0,0.0,0.0,0.0,0.0,0.0,0.0,0.0,0.0,0.0,0.0,0.0,0.0,0.0,0.0,0.0,0.0,0.0,0.0,0.0,0.0,0.0,0.0,0.0,0.0,0.0,0.0,0.0,0.0,0.0,0.0,0.0,0.0,0.0,0.0,0.0,0.0,0.0,0.0,0.0,0.0,1.3887,1.6374,0.0,0.0,0.0,0.0,0.0,0.0,0.0,0.0,0.0,0.0,0.0,0.0,0.0,0.0,0.0,0.0,0.0,0.0,0.0,0.0,0.0,0.0,0.0,0.0,0.0,0.0,0.0,0.0,0.0,0.0,0.0,0.0,0.0,0.0,0.0,0.0,0.0,0.0,0.0,0.0,1.9332,2.5835,3.0417,3.0467,3.0544,3.0625,3.0672,3.0802,3.0566,2.9805,2.7793,0.0,0.0,0.0,0.0,0.0,0.0,0.0,0.0,0.0,0.0,0.0,0.0,0.0,0.0,0.0,0.0,0.0,0.0,0.0,0.0,0.0,0.0,0.0,0.0,0.0,0.0,0.0,0.0,0.0,0.0,0.0,0.0,0.0,0.0,0.0,0.0,0.0,0.0,0.0,0.0,0.0,0.0,0.0,0.0,0.0,0.0,0.0,0.0,0.0,0.0,0.0,0.0,0.0,0.0,0.0,0.0,0.0,0.0,0.0,2.6462,2.7466,0.0,0.0,0.0,0.0,0.0,0.0,0.0,0.0,0.0,0.0,0.0,0.0,0.0,0.0,0.0,0.0,0.0,0.0,0.0,0.0,0.0,0.0,0.0,0.0,0.0,0.0,0.0,0.0,0.0,0.0,0.0,0.0,0.0,0.0,0.0,0.0,0.0,0.0,0.0,0.0,1.9155,2.5784,3.0417,3.0487,3.0549,3.0637,3.0691,3.0828,3.0898,3.0898,2.9121,0.0,0.0,0.0,0.0,0.0,0.0,0.0,0.0,0.0,0.0,0.0,0.0,0.0,0.0,0.0,0.0,0.0,0.0,0.0,0.0,0.0,0.0,0.0,0.0,0.0,0.0,0.0,0.0,0.0,0.0,0.0,0.0,0.0,0.0,0.0,0.0,0.0,0.0,0.0,0.0,0.0,0.0,0.0,0.0,0.0,0.0,0.0,0.0,0.0,0.0,0.0,0.0,0.0,3.5975,3.5996,3.5996,3.6009,3.6009,3.5996,3.5996,3.5816,3.5493,3.5493,0.0,0.0,0.0,0.0,0.0,0.0,0.0,0.0,0.0,0.0,0.0,0.0,0.0,0.0,0.0,0.0,0.0,0.0,0.0,0.0,0.0,0.0,2.924,2.6704,2.8559,2.9082,2.2421,0.0,0.0,0.0,0.0,0.0,0.0,0.0,0.0,0.0,0.0,0.0,1.9035,2.5732,3.0417,3.0506,3.0571,3.0639,3.0724,3.0829,3.0898,3.0898,3.0898,2.9609,0.0,0.0,0.0,0.0,0.0,0.0,0.0,0.0,0.0,0.0,0.0,0.0,0.0,0.0,0.0,0.0,0.0,0.0,0.0,0.0,0.0,0.0,0.0,0.0,0.0,0.0,0.0,0.0,0.0,0.0,0.0,0.0,2.7458,2.757,0.0,0.0,0.0,0.0,0.0,0.0,0.0,0.0,0.0,0.0,0.0,0.0,0.0,3.3094,3.5474,3.5493,3.5528,3.557,3.5857,3.5996,3.5996,3.5996,3.5996,3.5996,3.5996,0.0,3.5493,3.5493,0.0,0.0,0.0,0.0,0.0,0.0,0.0,0.0,0.0,0.0,0.0,0.0,0.0,0.0,0.0,0.0,0.0,0.0,0.0,0.0,0.0,0.0,2.6603,2.9453,3.0537,3.0618,2.955,2.7012,2.4805,2.4294,2.1858,1.8329,0.0,0.0,0.0,0.0,0.0,0.0,1.9293,2.5822,3.0448,3.0564,3.0591,3.0667,3.0868,3.0897,3.0898,3.0898,3.0898,3.0684,3.0234,3.0664,0.0,0.0,0.0,0.0,0.0,0.0,0.0,0.0,0.0,0.0,0.0,0.0,0.0,0.0,0.0,0.0,0.0,0.0,0.0,0.0,0.0,0.0,0.0,0.0,0.0,0.0,0.0,0.0,0.0,1.7708,2.5722,2.9894,3.0398,2.4748,0.0,0.0,0.0,0.0,0.0,0.0,0.0,0.0,0.0,3.5243,3.5493,3.5493,3.5493,3.5493,3.5493,3.5507,3.5841,3.5996,3.5996,3.5996,3.5996,3.5996,3.5996,3.5914,3.5776,3.5584,3.5493,3.5515,0.0,0.0,0.0,0.0,2.4185,2.5519,3.3299,3.5996,3.5996,3.5996,0.0,0.0,0.0,0.0,0.0,0.0,0.0,2.7186,2.8812,2.9156,2.9407,3.0609,3.0897,3.0901,3.0894,2.9609,2.8436,2.8376,2.705,2.4616,2.0399,1.9477,0.0,0.0,0.0,2.1761,2.2308,2.7113,3.0487,3.0583,3.0635,3.0723,3.0897,3.0898,3.0898,3.0898,3.0898,3.0898,3.0898,3.0898,2.9062,0.0,0.0,0.0,0.0,0.0,0.0,0.0,0.0,0.0,0.0,0.0,0.0,0.0,0.0,0.0,0.0,0.0,0.0,0.0,0.0,0.0,0.0,0.0,0.0,0.0,0.0,0.0,0.0,1.3478,1.9524,2.6708,2.9243,2.5435,0.0,0.0,0.0,0.0,0.0,0.0,3.5493,3.5493,3.5493,3.5493,3.5493,3.5493,3.5493,3.5493,3.5493,3.5507,3.5841,3.5996,3.5996,3.5996,3.5996,3.5996,3.5996,3.599,3.5979,3.5631,3.5493,3.5493,3.5493,3.5493,3.5547,3.5884,3.5996,3.5996,3.5996,3.5996,3.5996,3.5996,3.5996,3.5996,3.5996,0.0,0.0,0.0,0.0,3.2274,2.9411,3.0438,3.2031,3.1387,3.1053,3.0892,3.0901,3.0894,3.0898,3.0898,3.0898,2.9685,2.5835,2.4687,0.0,1.987,2.2031,2.4225,2.4791,2.818,3.0544,3.0621,3.066,3.0748,3.0897,3.0898,3.0898,3.0898,3.0898,3.0898,3.0898,3.0898,2.9687,2.707,0.0,0.0,0.0,0.0,0.0,0.0,0.0,0.0,0.0,0.0,0.0,0.0,0.0,0.0,0.0,0.0,0.0,0.0,0.0,0.0,0.0,0.0,0.0,0.0,0.0,0.0,0.0,0.0,0.0,1.9085,2.6091,0.0,0.0,0.0,0.0,3.4159,3.4993,3.5493,3.5493,3.5493,3.5493,3.5493,3.5493,3.5493,3.5493,3.5493,3.5493,3.5507,3.5841,3.5996,3.5996,3.5996,3.5996,3.5996,3.5996,3.5996,3.5971,3.564,3.5493,3.5493,3.5493,3.5493,3.5547,3.5884,3.5996,3.5996,3.5996,3.5996,3.5996,3.5996,3.5996,3.5996,3.5996,3.2617,0.0,0.0,3.251,3.0032,3.3418,3.3242,3.2187,3.2148,3.15,3.0892,3.0907,3.0894,3.0898,3.0898,3.0898,2.9726,2.6016,0.0,2.3865,2.0383,2.2758,2.5019,2.5233,2.839,3.0621,3.0679,3.0698,3.0748,3.0897,3.0898,3.0898,3.0898,3.0898,3.0898,3.0898,3.0898,3.082,3.0644,3.0636,0.0,0.0,0.0,0.0,0.0,0.0,0.0,0.0,0.0,0.0,0.0,0.0,0.0,0.0,0.0,0.0,0.0,0.0,0.0,0.0,0.0,0.0,0.0,0.0,0.0,0.0,0.0,0.0,2.5602,2.8785,0.0,2.9775,3.324,3.5493,3.5493,3.5493,3.5493,3.5493,3.5493,3.5493,3.5493,3.5493,3.5493,3.5493,3.5493,3.5493,3.5507,3.562,3.578,3.5996,3.5996,3.5996,3.5996,3.5996,3.5996,3.5995,3.5863,3.5699,3.5493,3.5493,3.5493,3.5515,3.5621,3.5802,3.5996,3.5996,3.5996,3.5996,3.5996,3.5996,3.5996,3.5996,3.4726,3.3672,3.5488,3.4794,3.3696,3.4488,3.3848,3.2832,3.228,3.1499,3.0896,3.0897,3.0898,3.0894,3.0898,3.0898,3.0488,2.918,2.8886,2.8378,2.7049,2.7891,2.866,2.8651,2.9785,3.059,3.0578,3.0613,3.0664,3.0761,3.0762,3.0098,2.8494,2.9888,3.003,2.8381,2.9898,2.9746,2.7539,2.7539,2.5858,0.0,0.0,0.0,0.0,0.0,0.0,0.0,0.0,0.0,0.0,0.0,0.0,0.0,0.0,0.0,0.0,0.0,0.0,0.0,0.0,0.0,0.0,0.0,0.0,0.0,2.1714,2.4864,2.9817,3.0398,3.1744,3.5166,3.5493,3.5493,3.5493,3.5493,3.5493,3.5493,3.5493,3.5493,3.5493,3.5493,3.5493,3.5493,3.5493,3.5493,3.5507,3.5609,3.5794,3.5996,3.5996,3.5996,3.5996,3.5996,3.5996,3.5995,3.6009,3.5872,3.5679,3.5675,3.5603,3.5493,3.5493,3.5718,3.5996,3.5996,3.5996,3.5996,3.5996,3.5996,3.5996,3.5996,3.5996,3.5996,3.5996,3.5996,3.5879,3.5293,3.4277,3.3259,3.2689,3.1694,3.0703,3.0037,3.0626,3.1014,3.0078,2.9887,3.0107,3.078,3.0327,3.0055,3.0618,3.068,3.063,3.0547,3.0568,3.0571,3.054,3.0582,3.062,3.0661,2.9895,2.8593,2.6652,2.8629,2.8451,2.531,2.7914,2.7829,2.4414,2.552,2.4401,2.097,0.0,0.0,0.0,0.0,0.0,0.0,0.0,0.0,0.0,0.0,0.0,0.0,0.0,0.0,0.0,0.0,0.0,0.0,0.0,0.0,0.0,0.0,0.0,3.0398,3.0398,3.0398,3.0398,3.0398,3.1744,3.5166,3.5493,3.5493,3.5493,3.5493,3.5493,3.5493,3.5501,3.5515,3.5515,3.5515,3.5347,3.4999,3.5347,3.5515,3.5528,3.5845,3.5996,3.5996,3.5996,3.5996,3.5996,3.5996,3.5996,3.5996,3.5996,3.5996,3.5994,3.5989,3.5526,3.4826,3.4743,3.4964,3.539,3.584,3.5996,3.5996,3.5996,3.5996,3.5996,3.5996,3.5918,3.5819,3.5781,3.5703,3.5605,3.5605,3.4431,3.3231,3.3262,3.2086,3.0446,2.8496,3.0212,3.1321,2.8593,2.8017,2.8606,3.0558,2.9214,2.8539,3.0406,3.0632,0.0,3.0594,3.0598,3.0602,3.0583,3.0583,3.0602,3.0641,2.8422,2.6678,2.5771,2.7374,2.645,2.2206,2.5282,2.5504,2.2167,2.5176,2.5105,2.175,0.0,0.0,0.0,0.0,0.0,0.0,0.0,0.0,0.0,0.0,0.0,0.0,0.0,0.0,0.0,0.0,0.0,0.0,0.0,0.0,0.0,2.5184,3.0679,3.0417,3.0398,3.0398,3.0398,3.0398,3.1744,3.5166,3.5493,3.5493,3.5493,3.5493,3.5493,3.5493,3.5741,3.5857,3.5857,3.5857,3.1953,2.3821,3.1809,3.5857,3.5857,3.5953,3.5996,3.5996,3.5996,3.5996,3.5996,3.5996,3.5996,3.5996,3.5996,3.5996,3.5994,3.5997,2.9562,1.9993,1.7651,1.8335,2.1914,3.237,3.5996,3.5996,3.5996,3.5996,3.5996,3.5996,3.4061,3.1765,3.1224,2.9104,2.7015,2.7018,2.8193,2.955,3.0131,3.1526,3.2559,3.2014,3.2504,3.2812,3.2043,3.0703,2.9927,3.0622,3.0236,3.0016,3.0552,3.0612,3.0588,3.053,3.0532,3.0506,3.0467,3.0448,3.0725,3.1417,3.0799,2.9763,2.8301,3.0385,3.0301,2.7229,2.9829,2.9753,2.6384,2.4747,2.3473,0.0,0.0,0.0,0.0,0.0,0.0,0.0,0.0,0.0,0.0,0.0,0.0,0.0,0.0,0.0,0.0,0.0,0.0,0.0,0.0,0.0,0.0,2.7834,3.0621,3.0417,3.0398,3.0398,3.0398,3.0398,3.1744,3.5166,3.5493,3.5493,3.5493,3.5493,3.5565,3.5702,3.5893,3.5996,3.5996,3.0141,2.6767,2.6292,3.2745,3.5996,3.5996,3.5996,3.3539,2.9156,3.3856,3.5996,3.5996,3.5996,3.5996,3.5996,3.5996,3.5996,3.5995,0.0,0.0,0.0,0.0,2.189,2.4709,3.3098,3.5996,3.5996,3.5994,3.5992,3.5993,3.5995,3.4441,3.2599,3.2174,3.0482,2.8787,2.8793,2.9776,3.0879,3.1331,3.2453,3.318,3.2357,3.3119,3.3599,3.2407,3.2128,0.0,3.18,3.0681,3.012,3.0983,3.0775,3.0641,3.0968,3.0679,3.0448,3.0398,3.0737,3.1179,3.1705,3.1083,0.0,0.0,0.0,3.1114,2.9214,2.9255,0.0,0.0,0.0,2.5502,2.5534,2.7322,0.0,0.0,2.6362,2.6683,0.0,0.0,0.0,0.0,0.0,0.0,0.0,0.0,0.0,0.0,0.0,0.0,0.0,0.0,0.0,0.0,3.0586,3.0398,3.0398,3.0398,3.0398,3.0398,3.0744,3.2167,3.5218,3.5493,3.5493,3.5493,3.5493,3.563,3.5925,3.5976,0.0,0.0,0.0,2.1421,3.5859,3.5996,3.5996,3.5996,3.5996,3.0804,2.1524,3.1465,3.5996,3.5996,3.5996,3.5996,3.5996,3.5996,3.5996,3.5996,3.5996,3.5996,3.5996,3.5996,3.5996,3.5996,3.5996,0.0,0.0,3.6001,3.5991,3.5994,3.6007,3.5696,3.5331,3.5251,3.4939,3.4608,3.4597,3.4349,3.4101,3.4193,3.3945,3.3213,3.1484,3.3081,3.4119,3.1609,3.2979,3.4287,3.3487,3.1091,2.9865,3.1646,3.1225,3.0968,3.1737,3.116,3.0667,3.0667,3.1371,0.0,3.1968,3.0612,2.9468,2.8782,3.0191,3.0692,2.9929,2.7035,2.5082,2.4316,2.7984,2.9896,2.9927,3.3673,3.5493,3.5411,3.1657,3.1757,0.0,0.0,0.0,0.0,0.0,0.0,0.0,0.0,0.0,0.0,0.0,0.0,0.0,0.0,0.0,3.0298,3.0444,3.0398,3.0398,3.0398,3.0398,3.0398,3.2821,3.4762,3.5435,3.5493,3.5493,3.5493,3.5493,3.5522,3.5585,3.5849,3.5996,3.5996,2.2018,2.1421,3.5859,3.5996,3.5996,3.5996,3.5996,0.0,3.2846,3.5017,3.5996,3.5996,3.5996,3.5996,3.5996,3.5996,3.5996,3.5996,3.5996,3.5996,3.5996,3.5996,3.5996,3.5996,3.5996,3.5996,3.5996,3.6001,3.5991,3.5994,3.5996,3.3846,0.0,3.0679,2.8335,2.6003,2.5989,2.8113,3.0424,3.1079,3.3427,3.539,3.5019,3.5351,3.5586,3.5037,3.5204,3.5189,3.4398,3.3057,3.2235,3.2622,3.2526,3.2487,3.2641,3.2526,3.2429,3.2429,3.2564,3.2949,3.366,3.3372,3.3378,3.3916,3.4222,3.4318,3.4211,3.3522,3.31,3.2981,3.3786,3.4241,3.4276,3.5103,3.5493,3.5488,3.4661,3.4672,0.0,0.0,0.0,0.0,0.0,0.0,0.0,0.0,0.0,0.0,0.0,3.0898,3.0898,0.0,3.0853,3.0686,3.051,3.0398,3.0398,3.0398,3.0398,3.0398,3.3417,3.5493,3.5493,3.5493,3.5493,3.5493,3.5493,3.5493,3.5493,3.5827,3.5996,3.5996,2.9012,2.8712,3.5937,3.5996,3.5996,3.5996,3.5996,3.5996,3.5996,3.5996,3.5996,3.5996,3.5996,3.5996,3.5996,3.5996,3.5996,3.5996,3.5996,3.5996,3.5996,3.5996,3.5996,3.5996,3.5993,3.601,3.601,3.601,3.5991,3.6009,3.6005,3.4673,3.3073,3.2702,3.125,2.9821,2.9814,3.1204,3.2703,3.3109,3.4632,3.5996,3.5996,3.5996,3.5996,3.5992,3.5845,3.5557,3.5162,3.4595,3.4038,3.3622,3.3179,3.3064,3.3487,3.316,3.2891,3.2891,3.3295,3.3718,3.416,3.457,3.4999,3.5422,3.5412,3.5412,3.5446,3.5412,3.5412,3.5446,3.546,3.546,3.5493,3.5493,3.5493,3.5493,3.5493,3.5493,0.0,0.0,0.0,0.0,0.0,0.0,0.0,1.9358,2.0192,2.9076,3.0898,3.0898,3.0898,3.0898,3.0663,2.9931,3.0137,3.0398,3.0398,3.0398,3.0398,3.0398,3.3417,3.5493,3.5493,3.5493,3.5493,3.5493,3.4127,3.3972,3.5527,3.5849,3.5996,3.5996,3.5996,3.5996,3.5996,3.5996,3.5996,3.5996,3.5996,3.5996,3.5996,3.5996,3.5996,3.5996,3.5996,3.5996,3.5996,3.5996,3.5996,3.5996,3.5996,3.5996,3.5996,3.5996,3.5996,3.5995,3.6005,3.6001,3.6003,3.5995,3.5996,3.5996,3.5994,3.5993,3.5993,3.5993,3.5993,3.5993,3.5993,3.6007,3.6001,3.6001,3.5992,3.5996,3.5996,3.5996,3.5995,3.5979,3.5827,3.5702,3.5689,3.5584,3.5257,3.4564,3.3853,3.366,3.4353,3.3833,3.341,3.341,3.4026,3.4449,3.4449,3.5103,3.5493,3.5493,3.5493,3.5493,3.5493,3.5493,3.5493,3.5493,3.5493,3.5493,3.5493,3.5493,3.5493,3.5493,3.5493,3.5493,2.3608,2.02,1.6827,1.9949,2.3233,2.5586,0.0,2.7143,2.9411,3.0644,3.0898,3.0898,3.0898,3.0898,2.9812,2.6463,2.8452,3.0398,3.0398,3.0398,3.0398,3.0398,3.3417,3.5493,3.5493,3.5493,3.5493,3.5493,2.9257,2.8521,3.5572,3.5976,3.5996,3.5996,3.5996,3.5996,3.5996,3.5996,3.5996,3.5996,3.5996,3.5996,3.5996,3.5996,3.5996,3.5996,3.5996,3.5996,3.5996,3.5996,3.5996,3.5996,3.5996,3.5996,3.5996,3.5996,3.5993,3.6001,3.5994,3.5996,3.5996,3.5996,3.5996,3.5996,3.5996,3.5996,3.5996,3.5996,3.5996,3.5996,3.5996,3.5996,3.5996,3.5996,3.5996,3.5996,3.5996,3.5996,3.5979,3.5919,3.5805,3.5682,3.5618,3.5565,3.5468,3.5372,3.5276,3.5238,3.5353,3.5276,3.5218,3.5218,3.5315,3.5353,3.5353,3.5449,3.5493,3.5493,3.5493,3.5493,3.5493,3.5493,3.5493,3.5493,3.5493,3.5493,3.5493,3.5493,3.5493,3.5493,3.5493,3.5493,1.9298,1.6868,1.6136,2.1915,2.4542,2.5699,2.5703,2.6836,2.8457,3.0488,3.0898,3.0898,3.0898,3.0898,3.0388,2.8817,2.9597,3.0398,3.0398,3.0398,3.0398,3.0398,3.1648,3.3301,3.5301,3.5493,3.5493,3.5493,3.2754,3.2511,3.582,3.5996,3.5996,3.5996,3.5996,3.5996,3.5996,3.5996,3.5996,3.5996,3.5996,3.5996,3.5996,3.5996,3.5996,3.5996,3.5996,3.5996,3.5996,3.5996,3.5996,3.5996,3.5996,3.5995,3.6007,3.6007,3.601,3.5993,3.5996,3.5996,3.5996,3.5996,3.5996,3.5996,3.5996,3.5996,3.5996,3.5996,3.5996,3.5996,3.5996,3.5996,3.5996,3.5996,3.5996,3.5996,3.5996,3.5962,3.593,3.592,3.5758,3.5631,3.5611,3.5545,3.5493,3.5493,3.5493,3.5493,3.5493,3.5493,3.5493,3.5493,3.5493,3.5493,3.5493,3.5493,3.5493,3.5493,3.5493,3.5493,3.5493,3.5493,3.5493,3.5493,3.5493,3.5493,3.5493,3.5493,3.5493,3.5493,3.5493,3.5493,1.5685,1.538,1.742,2.4051,2.5702,2.5697,2.5703,2.5703,2.6426,2.8945,3.0234,3.0898,3.0898,2.9893,2.9453,3.0702,3.0614,3.0398,3.0398,3.0398,3.0398,3.0398,3.0398,3.0925,3.2248,3.4275,3.5547,3.564,3.5857,3.5996,3.5996,3.5996,3.5996,3.5996,3.5996,3.5996,3.5996,3.5996,3.5996,3.5996,3.5996,3.5996,3.5996,3.5996,3.5996,3.5996,3.5996,3.5996,3.5996,3.5996,3.5996,3.5995,3.5996,3.5992,3.5994,3.6001,3.5992,3.5996,3.5996,3.5996,3.5996,3.5996,3.5996,3.5996,3.5996,3.5996,3.5996,3.5996,3.5996,3.5996,3.5996,3.5996,3.5996,3.5996,3.5996,3.5995,3.5985,3.593,3.5872,3.5834,3.5699,3.5603,3.5584,3.5545,3.5493,3.5493,3.5493,3.5493,3.5493,3.5493,3.5493,3.5493,3.5493,3.5493,3.5493,3.5493,3.5493,3.5493,3.5493,3.5493,3.5493,3.5493,3.5493,3.5493,3.5493,3.5493,3.5493,3.5493,3.5493,3.5493,3.5493,3.5493,1.4643,1.6788,2.0208,2.4606,2.57,2.5703,2.5703,2.5703,2.5723,2.584,2.8555,3.0898,3.0898,2.7334,2.583,3.0181,3.0614,3.0398,3.0398,3.0398,3.0398,3.0398,3.0398,2.8859,2.4912,3.1194,3.5621,3.5954,3.5996,3.5996,3.5996,3.5996,3.5996,3.5996,3.5996,3.5996,3.5996,3.5996,3.5996,3.5996,3.5996,3.5996,3.5996,3.5996,3.5996,3.5996,3.5996,3.5996,3.5996,3.5996,3.5993,3.5996,3.5995,3.5992,3.5996,3.5995,3.5996,3.5996,3.5996,3.5996,3.5996,3.5996,3.5996,3.5996,3.5996,3.5996,3.5996,3.5996,3.5996,3.5996,3.5996,3.5996,3.5996,3.5996,3.5996,3.5979,3.5913,3.5886,3.5834,3.5661,3.5603,3.5584,3.5526,3.5493,3.5493,3.5493,3.5493,3.5493,3.5493,3.5493,3.5493,3.5493,3.5493,3.5493,3.5493,3.5493,3.5493,3.5493,3.5493,3.5493,3.5493,3.5493,3.5493,3.5493,3.5493,3.5493,3.5493,3.5493,3.5493,3.5493,3.5493,3.5493,1.8251,2.0882,2.3884,2.5332,2.5699,2.5698,2.5703,2.5703,2.5703,2.5703,2.6621,2.8164,3.0469,2.7236,2.4688,2.6217,2.8682,3.0398,3.0398,3.0398,2.9379,2.6599,2.6289,2.5739,2.4338,3.1244,3.5884,3.5996,3.5996,3.5996,3.5996,3.5996,3.5996,3.5996,3.5996,3.5996,3.5996,3.5996,3.5996,3.5996,3.5996,3.5996,3.5996,3.5996,3.5996,3.5996,3.5996,3.5996,3.5996,3.5996,3.5996,3.5993,3.6007,3.6009,3.5994,3.5996,3.5996,3.5996,3.5996,3.5996,3.5996,3.5996,3.5996,3.5996,3.5996,3.5996,3.5996,3.5996,3.5996,3.5996,3.5996,3.5996,3.5996,3.5996,3.5973,3.5921,3.5907,3.5795,3.568,3.5622,3.5565,3.5545,3.5493,3.5493,3.5493,3.5493,3.5493,3.5493,3.5493,3.5493,3.5493,3.5493,3.5493,3.5493,3.5493,3.5493,3.5493,3.5493,3.5493,3.5493,3.5493,3.5493,3.5493,3.5493,3.5493,3.5493,3.5493,3.5493,3.5493,3.5493,3.5493,3.5493,2.1701,2.3934,2.5698,2.5703,2.5702,2.5697,2.5701,2.5701,2.5702,2.5703,2.5703,2.6387,2.8633,2.7699,2.6081,2.445,2.7687,3.0398,3.0398,3.0398,2.9459,2.6892,2.6599,2.6599,2.6599,3.1193,3.3039,3.0238,3.1113,3.301,3.5859,3.5996,3.5996,3.5996,3.5996,3.5996,3.5996,3.5996,3.5996,3.5996,3.5996,3.5996,3.5996,3.5996,3.5996,3.5996,3.5996,3.5996,3.5996,3.5995,3.5995,3.5996,3.5991,3.6009,3.5994,3.5996,3.5996,3.5996,3.5996,3.5996,3.5996,3.5996,3.5996,3.5996,3.5996,3.5996,3.5996,3.5996,3.5996,3.5996,3.5996,3.5996,3.5996,3.5996,3.5949,3.5892,3.5834,3.5718,3.5603,3.5584,3.5545,3.5493,3.5493,3.5493,3.5493,3.5493,3.5493,3.5493,3.5493,3.5493,3.5493,3.5493,3.5493,3.5493,3.5493,3.5493,3.5493,3.5493,3.5493,3.5493,3.5493,3.5493,3.5493,3.5493,3.5493,3.5493,3.5493,3.5493,3.5493,3.5493,3.5493,3.5493,2.4584,2.5699,2.5703,2.5703,2.5703,2.5703,2.5693,2.5709,2.5694,2.5703,2.5703,2.5683,2.5622,2.8336,2.9231,2.5179,2.7831,3.0398,3.0398,3.0398,3.0509,3.0857,3.0893,3.0903,3.0903,3.0897,2.7842,2.0441,2.2936,2.8077,3.5604,3.5996,3.5996,3.5996,3.5996,3.5996,3.5996,3.5996,3.5996,3.5996,3.5996,3.5996,3.5996,3.5996,3.5996,3.5996,3.5996,3.5996,3.5996,3.6005,3.6007,3.5996,3.5996,3.5993,3.5999,3.5995,3.5996,3.5996,3.5996,3.5996,3.5996,3.5996,3.5996,3.5996,3.5996,3.5996,3.5996,3.5996,3.5996,3.5996,3.5995,3.5995,3.5995,3.5996,3.5923,3.5853,3.5718,3.5641,3.5584,3.5526,3.5493,3.5493,3.5493,3.5493,3.5493,3.5493,3.5493,3.5493,3.5493,3.5493,3.5493,3.5493,3.5493,3.5493,3.5493,3.5493,3.5493,3.5493,3.5493,3.5493,3.5493,3.5493,3.5493,3.5493,3.5493,3.5493,3.5493,3.5493,3.5493,3.5493,3.5493,3.5493,2.534,2.5703,2.5703,2.5703,2.5703,2.5703,2.5703,2.5702,2.5703,2.5703,2.5703,2.5473,2.4708,2.5319,2.6541,2.8488,2.9717,3.0398,3.0398,3.0398,3.0509,3.0857,3.0908,3.0896,3.0896,3.0905,3.0088,2.8084,3.1071,3.3871,3.5898,3.5996,3.5996,3.5996,3.5996,3.5996,3.5996,3.5996,3.5996,3.5996,3.5996,3.5996,3.5996,3.5996,3.5996,3.5996,3.5996,3.5996,3.5996,3.5995,3.5992,3.6003,3.5995,3.5996,3.5995,3.5996,3.5996,3.5996,3.5996,3.5996,3.5996,3.5996,3.5996,3.5996,3.5996,3.5996,3.5996,3.5996,3.5996,3.5989,3.5946,3.592,3.5892,3.58,3.5728,3.568,3.5641,3.5584,3.5526,3.5493,3.5493,3.5493,3.5493,3.5493,3.5493,3.5493,3.5493,3.5493,3.5493,3.5493,3.5493,3.5493,3.5493,3.5493,3.5493,3.5493,3.5493,3.5493,3.5493,3.5493,3.5493,3.5493,3.5493,3.5493,3.5493,3.5493,3.5493,3.5493,3.5493,3.5493,3.5493,3.5493,2.5661,2.5703,2.5703,2.5703,2.5703,2.5703,2.5703,2.6351,2.7001,2.7112,2.7141,2.6371,2.3819,2.3376,2.4324,2.7204,2.9199,3.0398,3.0398,3.0398,3.0472,3.065,3.0806,3.0898,3.0898,3.0898,3.0908,3.0897,3.0858,3.2343,3.58,3.5996,3.5996,3.5996,3.5996,3.5996,3.5996,3.5996,3.5996,3.5996,3.5996,3.5996,3.5996,3.5996,3.5996,3.5996,3.5996,3.5996,3.5996,3.5996,3.5995,3.6009,3.5991,3.5995,3.5996,3.5996,3.5996,3.5996,3.5996,3.5996,3.5996,3.5996,3.5996,3.5996,3.5996,3.5996,3.5996,3.5996,3.5971,3.5942,3.59,3.5853,3.5791,3.5716,3.5647,3.5603,3.5603,3.5565,3.5493,3.5493,3.5493,3.5493,3.5493,3.5493,3.5493,3.5493,3.5493,3.5493,3.5493,3.5493,3.5493,3.5493,3.5493,3.5493,3.5493,3.5493,3.5493,3.5493,3.5493,3.5493,3.5493,3.5493,3.5493,3.5493,3.5493,3.5493,3.5493,3.5493,3.5493,3.5493,3.5493,3.5432,2.5703,2.5703,2.5703,2.5703,2.5703,2.5703,2.5703,2.6998,2.8327,2.8621,2.87,2.7489,2.3585,2.2885,2.3353,2.4779,2.8046,3.0398,3.0398,3.0398,3.0398,3.0398,3.0701,3.0898,3.0898,3.0898,3.0643,3.0057,2.7363,2.8756,3.5624,3.5996,3.5996,3.5996,3.5996,3.5996,3.5996,3.5996,3.5996,3.5996,3.5996,3.5996,3.5996,3.5996,3.5996,3.5996,3.5996,3.572,3.5302,3.58,3.5781,3.5488,3.5849,3.601,3.5996,3.5996,3.5996,3.5996,3.5996,3.5996,3.5996,3.5996,3.5996,3.5996,3.5996,3.5996,3.5996,3.5989,3.5947,3.5892,3.5872,3.5776,3.568,3.568,3.5641,3.5603,3.5603,3.5545,3.5493,3.5493,3.5493,3.5493,3.5493,3.5493,3.5493,3.5493,3.5493,3.5493,3.5493,3.5493,3.5493,3.5493,3.5493,3.5493,3.5493,3.5493,3.5493,3.5493,3.5493,3.5493,3.5493,3.5493,3.5493,3.5493,3.5493,3.5493,3.5493,3.5493,3.5493,3.5493,3.546,3.532,2.5703,2.5703,2.5703,2.5703,2.5703,2.5703,2.5703,2.5968,2.6365,2.6975,2.7098,2.6847,2.608,2.593,2.6683,2.8962,2.9934,3.0398,3.0398,3.0398,3.0398,3.0398,3.0701,3.0898,3.0898,3.0898,2.9362,2.5642,3.0696,3.4554,3.5937,3.5996,3.5996,3.5996,3.5996,3.5996,3.5996,3.5996,3.5996,3.5996,3.5996,3.5996,3.5996,3.5996,3.5996,3.5996,3.5996,3.4267,3.1691,3.4749,3.4629,3.2754,3.5097,3.5996,3.5996,3.5996,3.5996,3.5996,3.5996,3.5996,3.5996,3.5996,3.5996,3.5996,3.5996,3.5996,3.5989,3.5921,3.5907,3.5853,3.5699,3.5641,3.5603,3.5565,3.5545,3.5526,3.5526,3.5526,3.5493,3.5493,3.5493,3.5493,3.5493,3.5493,3.5493,3.5493,3.5493,3.5493,3.5493,3.5493,3.5493,3.5493,3.5493,3.5493,3.5493,3.5493,3.5493,3.5493,3.5493,3.5493,3.5493,3.5493,3.5493,3.5493,3.5493,3.5493,3.5493,3.5493,3.5493,3.5493,3.5273,3.5138,2.5703,2.5703,2.5703,2.5703,2.5703,2.5703,2.5703,2.5702,2.5885,2.6551,2.6691,2.6691,2.6691,2.6691,2.7106,2.8276,2.8471,2.8747,2.9569,3.0099,3.0398,3.0398,3.0535,3.0711,3.0878,3.0892,2.904,2.4543,3.1525,3.5996,3.5996,3.5996,3.5996,3.5996,3.5996,3.5996,3.5996,3.5996,3.5996,3.5996,3.5996,3.5996,3.5996,3.5996,3.5996,3.5996,3.5996,3.5005,3.3504,3.5266,3.5203,3.4121,3.5469,3.5996,3.5996,3.5996,3.5996,3.5996,3.5996,3.5996,3.5996,3.5996,3.5996,3.5994,3.5961,3.5942,3.5927,3.5825,3.5763,3.5718,3.5641,3.5584,3.5545,3.5526,3.5493,3.5493,3.5493,3.5493,3.5493,3.5493,3.5493,3.5493,3.5493,3.5493,3.5493,3.5493,3.5493,3.5493,3.5493,3.5493,3.5493,3.5493,3.5493,3.5493,3.5493,3.5493,3.5493,3.5493,3.5493,3.5493,3.5493,3.5493,3.5493,3.5493,3.5493,3.5493,3.5493,3.5493,3.5432,3.5289,3.5155,3.4925,2.5622,2.5703,2.5703,2.5703,2.5703,2.5703,2.5703,2.6022,2.6576,2.7483,2.7148,2.6691,2.6691,2.6691,2.6691,2.6691,2.6691,2.7129,2.8342,2.9602,3.0398,3.0398,2.9609,2.9182,2.943,3.033,2.9438,2.5906,3.2063,3.5996,3.5996,3.5996,3.5996,3.5996,3.5996,3.5996,3.5996,3.5996,3.5996,3.5996,3.5996,3.5996,3.5996,3.5996,3.5996,3.5996,3.5996,3.5662,3.5149,3.5745,3.5643,3.5168,3.576,3.5996,3.5996,3.5996,3.5996,3.5996,3.5996,3.5991,3.5971,3.5971,3.5971,3.5962,3.5921,3.5872,3.5843,3.5708,3.5646,3.5603,3.5584,3.5545,3.5493,3.5493,3.5493,3.5493,3.5493,3.5493,3.5493,3.5493,3.5493,3.5493,3.5493,3.5493,3.5493,3.5493,3.5493,3.5493,3.5493,3.5493,3.5493,3.5493,3.5493,3.5493,3.5493,3.5493,3.5493,3.5493,3.5493,3.5493,3.5493,3.5493,3.5493,3.5493,3.5493,3.5493,3.5493,3.5446,3.5304,3.5105,3.4981,3.4656,2.5398,2.5703,2.5703,2.5703,2.5703,2.5703,2.5703,2.7075,2.8799,3.0443,2.8602,2.6691,2.6691,2.6691,2.6691,2.6691,2.6691,2.6758,2.6889,2.892,3.0398,3.0398,2.7072,2.4783,2.4816,2.8503,3.0725,3.0328,3.3827,3.5996,3.5996,3.5996,3.5996,3.5996,3.5996,3.5996,3.5996,3.5996,3.5996,3.5996,3.5996,3.5996,3.5996,3.5996,3.5996,3.5996,3.5996,3.4551,3.2382,3.4958,3.4482,3.243,3.4999,3.5996,3.5996,3.5996,3.5996,3.5996,3.5996,3.5967,3.5919,3.5919,3.5919,3.5907,3.59,3.5815,3.5699,3.5624,3.5611,3.5603,3.5526,3.5493,3.5493,3.5493,3.5493,3.5493,3.5493,3.5493,3.5493,3.5493,3.5493,3.5493,3.5493,3.5493,3.5493,3.5493,3.5493,3.5493,3.5493,3.5493,3.5493,3.5493,3.5493,3.5493,3.5493,3.5493,3.5493,3.5493,3.5493,3.5493,3.5493,3.5493,3.5493,3.5493,3.5493,3.5493,3.5493,3.5258,3.5122,3.5088,3.4534,3.4246,2.5187,2.5703,2.5703,2.5703,2.5703,2.5703,2.5703,2.6604,2.8169,3.0679,3.0243,2.8839,2.7029,2.6691,2.6691,2.6691,2.6691,2.7002,2.7946,2.942,3.0188,2.9625,2.8783,2.7157,2.4467,2.8267,2.9773,2.7064,2.8142,3.0986,3.5742,3.5996,3.5996,3.5996,3.5996,3.5996,3.5996,3.5996,3.5996,3.5996,3.5996,3.5996,3.5996,3.5996,3.5996,3.5996,3.5996,3.4134,3.1324,3.4648,3.4003,3.1294,3.4637,3.5892,3.581,3.581,3.581,3.581,3.581,3.5795,3.5786,3.5785,3.5757,3.5718,3.5718,3.568,3.5641,3.5565,3.5545,3.5545,3.5526,3.5493,3.5493,3.5493,3.5493,3.5493,3.5493,3.5493,3.5493,3.5493,3.5493,3.5493,3.5493,3.5493,3.5493,3.5493,3.5493,3.5493,3.5493,3.5493,3.5493,3.5493,3.5493,3.5493,3.5493,3.5493,3.5493,3.5493,3.5493,3.5493,3.5493,3.5493,3.5493,3.5493,3.5493,3.5432,3.5273,3.5138,3.4907,3.4534,3.4315,3.4123,2.5084,2.5703,2.5703,2.5703,2.5703,2.5703,2.5703,2.6205,2.7554,3.0581,3.119,3.0277,2.7249,2.6691,2.6691,2.6691,2.7313,2.8167,2.926,2.9748,2.9748,2.9089,3.0127,2.9652,2.6486,2.9026,2.9556,2.6395,2.6149,2.8577,3.416,3.5447,3.5995,3.5996,3.5996,3.5996,3.5996,3.5996,3.5996,3.5996,3.5995,3.5994,3.5994,3.5995,3.5703,3.5229,3.5762,3.3658,3.0158,3.4269,3.3771,3.0801,3.4407,3.5794,3.5706,3.5706,3.5706,3.5706,3.5706,3.5687,3.566,3.5663,3.5641,3.5584,3.5584,3.5584,3.5565,3.5526,3.5493,3.5493,3.5493,3.5493,3.5493,3.5493,3.5493,3.5493,3.5493,3.5493,3.5493,3.5493,3.5493,3.5493,3.5493,3.5493,3.5493,3.5493,3.5493,3.5493,3.5493,3.5493,3.5493,3.5493,3.5493,3.5493,3.5493,3.5493,3.5493,3.5493,3.5493,3.5493,3.5493,3.5493,3.5493,3.5493,3.5432,3.5289,3.5105,3.4925,3.4615,3.42,3.4123,3.3986,2.5084,2.5703,2.5703,2.5703,2.5703,2.5703,2.5703,2.6205,2.7554,3.0581,3.119,3.0277,2.7249,2.6691,2.6691,2.6691,2.8756,3.0367,3.0379,2.9588,2.9017,2.8994,3.0115,3.0878,3.0825,3.0801,3.0782,3.0726,3.0726,3.0765,3.0841,3.4139,3.6005,3.5996,3.5996,3.5996,3.5996,3.5996,3.5996,3.5996,3.6005,3.5994,3.5994,3.6007,3.5017,3.3434,3.5214,3.2962,2.8446,3.3725,3.3763,3.0858,3.4338,3.5699,3.5699,3.5699,3.5699,3.5699,3.5699,3.5661,3.5603,3.5603,3.5565,3.5493,3.5493,3.5493,3.5493,3.5493,3.5493,3.5493,3.5493,3.5493,3.5493,3.5493,3.5493,3.5493,3.5493,3.5493,3.5493,3.5493,3.5493,3.5493,3.5493,3.5493,3.5493,3.5493,3.5493,3.5493,3.5493,3.5493,3.5493,3.5493,3.5493,3.5493,3.5493,3.5493,3.5493,3.5493,3.5493,3.5493,3.5493,3.5493,3.5493,3.5493,3.5239,3.5105,3.5105,3.4492,3.42,3.42,3.3928,3.3788,2.671,2.688,2.6056,2.6056,2.6056,2.6056,2.6056,2.7969,3.004,3.1004,3.119,3.0903,2.9939,2.8078,2.6691,2.6691,2.8778,3.0398,3.0398,2.9588,2.9315,3.0199,3.0613,3.0434,2.9418,3.0263,3.0877,3.0877,3.0868,3.088,3.088,3.1909,3.3593,3.5927,3.5995,3.5996,3.5996,3.5996,3.5995,3.6005,3.5992,3.6009,3.5994,3.5996,3.5695,3.5176,3.5747,3.2545,2.7369,3.3405,3.2578,2.8037,3.3497,3.5603,3.5565,3.5565,3.5565,3.5565,3.5565,3.5565,3.5545,3.5545,3.5526,3.5493,3.5493,3.5493,3.5493,3.5493,3.5493,3.5493,3.5493,3.5493,3.5493,3.5493,3.5493,3.5493,3.5493,3.5493,3.5493,3.5493,3.5493,3.5493,3.5493,3.5493,3.5493,3.5493,3.5493,3.5493,3.5493,3.5493,3.5493,3.5493,3.5493,3.5493,3.5493,3.5493,3.5493,3.5493,3.5493,3.5493,3.5493,3.532,3.5223,3.5223,3.4963,3.4715,3.447,3.4292,3.4099,3.391,3.3842,3.3807,2.6869,2.7147,2.6399,2.6399,2.6399,2.6399,2.6399,2.7984,2.982,3.0954,3.0294,2.9499,2.9499,2.796,2.6691,2.6691,2.8011,2.9214,2.9777,2.9768,2.9834,3.0142,3.0574,3.0462,2.9522,2.9802,3.0263,3.0859,3.0896,3.0891,3.0891,3.0909,3.1884,3.4014,3.5327,3.5993,3.5993,3.5996,3.5993,3.5994,3.6007,3.5991,3.6007,3.6003,3.56,3.4983,3.5677,3.2506,0.0,3.3316,3.2559,2.8174,3.3495,3.5545,3.5493,3.5493,3.5493,3.5493,3.5493,3.5493,3.5493,3.5493,3.5493,3.5493,3.5493,3.5493,3.5493,3.5493,3.5493,3.5493,3.5493,3.5493,3.5493,3.5493,3.5493,3.5493,3.5493,3.5493,3.5493,3.5493,3.5493,3.5493,3.5493,3.5493,3.5493,3.5493,3.5493,3.5493,3.5493,3.5493,3.5493,3.5493,3.5493,3.5493,3.5493,3.5493,3.5493,3.5493,3.5493,3.5446,3.5354,3.519,3.5034,3.4944,3.4655,3.4401,3.42,3.4099,3.3961,3.3807,3.3807,3.3807,0.0,2.6539,2.6691,2.6691,2.6691,2.6691,2.6691,2.6691,0.0,3.0294,2.8799,2.695,2.695,2.6905,2.6888,2.6971,2.6836,2.7192,2.8633,3.0037,3.0467,2.9266,3.018,3.082,3.0663,2.9508,2.9351,3.0796,3.0898,3.0898,3.0898,3.0898,3.0898,3.0898,3.3975,3.5742,3.5996,3.5993,3.5877,3.5611,3.5879,3.5927,3.58,3.5929,3.5041,3.3471,3.4956,3.2649,2.8274,3.3269,3.3316,3.0621,3.4128,3.5493,3.5493,3.5493,3.5493,3.5493,3.5493,3.5493,3.5493,3.5493,3.5493,3.5493,3.5493,3.5493,3.5493,3.5493,3.5493,3.5493,3.5493,3.5493,3.5493,3.5493,3.5493,3.5493,3.5493,3.5493,3.5493,3.5493,3.5493,3.5493,3.5493,3.5493,3.5493,3.5493,3.5493,3.5493,3.5493,3.5493,3.5493,3.5493,3.5493,3.5493,3.5493,3.5493,3.5493,3.5493,3.5493,3.5369,3.5105,3.5051,3.4926,3.4674,3.4334,3.4171,3.4171,3.391,3.3807,3.3807,3.3807,3.3807,2.3156,0.0,2.6691,2.6691,2.6691,2.6691,0.0,2.6691,2.6894,2.7604,2.8703,2.9521,2.9521,2.8938,2.8759,2.9683,2.808,2.6841,2.7192,2.9346,3.0795,3.0482,3.0726,3.0424,2.9228,2.9815,3.0459,3.0879,3.0898,3.0898,3.0898,3.0898,3.0898,3.0898,3.1679,3.3358,3.5975,3.6007,3.4609,3.1906,3.4685,3.5244,3.3906,3.5299,3.564,3.5008,3.3334,3.1867,3.0739,3.1958,3.1941,3.1409,3.4357,3.5493,3.5493,3.5493,3.5493,3.5493,3.5493,3.5493,3.5493,3.5493,3.5493,3.5493,3.5493,3.5493,3.5493,3.5493,3.5493,3.5493,3.5493,3.5493,3.5493,3.5493,3.5493,3.5493,3.5493,3.5493,3.5493,3.5493,3.5493,3.5493,3.5493,3.5493,3.5493,3.5493,3.5493,3.5493,3.5493,3.5493,3.5493,3.5493,3.5493,3.5493,3.5493,3.5493,3.5493,3.5493,3.5304,3.5174,3.5105,3.4656,3.4383,3.4334,3.4037,3.3902,3.3902,3.3842,3.3807,3.3807,3.3807,3.3807,2.231,2.4458,2.6691,2.6691,2.6691,2.6691,2.6691,2.6691,2.6691,2.6691,2.7762,2.8691,2.8691,2.8297,2.853,3.0323,2.9014,2.7949,2.8501,2.9429,3.0034,3.0034,2.9913,2.9778,2.9621,3.0369,3.0857,3.0898,3.0898,3.0898,3.0898,3.0898,3.0898,3.0898,3.0898,3.2539,3.5976,3.5993,3.4942,3.2907,3.3237,3.3725,3.4374,3.5361,3.5522,3.4928,3.2604,3.2042,3.2679,3.1804,3.2149,3.3383,3.4905,3.5493,3.5493,3.5493,3.5493,3.5493,3.5493,3.5493,3.5493,3.5493,3.5493,3.5493,3.5493,3.5493,3.5493,3.5493,3.5493,3.5493,3.5493,3.5493,3.5493,3.5493,3.5493,3.5493,3.5493,3.5493,3.5493,3.5493,3.5493,3.5493,3.5493,3.5493,3.5493,3.5493,3.5493,3.5493,3.5493,3.5493,3.5493,3.5493,3.5493,3.5446,3.5339,3.5304,3.5304,3.5304,3.5051,3.4851,3.4696,3.4383,3.4147,3.4018,3.3876,3.3807,3.3807,3.3807,3.3807,3.3807,3.3807,3.3807,2.231,2.412,2.6133,2.659,2.6691,2.6691,2.6691,0.0,0.0,0.0,0.0,0.0,2.6691,2.6691,2.7464,2.9754,2.9601,2.9545,3.0593,2.9849,2.9171,2.9171,2.8879,2.923,3.0683,3.0877,3.0898,3.0898,3.0898,3.0898,3.0898,3.0898,3.0898,3.0898,3.0898,3.2285,3.5195,3.5698,3.582,3.558,3.2551,3.2571,3.5281,3.5562,3.5161,3.4167,3.2214,3.2415,3.3955,3.2023,3.288,3.5412,3.5493,3.5493,3.5493,3.5493,3.5493,3.5493,3.5493,3.5493,3.5493,3.5493,3.5493,3.5493,3.5493,3.5493,3.5493,3.5493,3.5493,3.5493,3.5493,3.5493,3.5493,3.5493,3.5493,3.5493,3.5493,3.5493,3.5493,3.5493,3.5493,3.5493,3.5493,3.5493,3.5493,3.5493,3.5493,3.5493,3.5493,3.5493,3.5493,3.5493,3.5493,3.5383,3.5122,3.507,3.5016,3.4981,3.4754,3.4486,3.4147,3.4147,3.4018,3.3788,3.3807,3.3807,3.3807,3.3807,3.3807,3.3807,3.3807,3.3807,2.231,2.2649,2.3579,2.6082,2.6691,2.6691,2.6691,2.6691,0.0,0.0,0.0,0.0,2.6691,2.6691,2.7174,2.863,2.9515,3.0122,3.0423,3.0201,3.0012,3.0012,2.9378,2.9449,3.0757,3.0898,3.0898,3.0898,3.0898,3.0898,3.0898,3.0898,3.0898,3.0898,3.0898,3.1152,3.168,3.4272,3.5609,3.5674,3.5059,3.4275,3.3378,3.4921,3.5103,3.4071,3.139,3.1745,3.3981,3.1363,3.2347,3.5493,3.5493,3.5493,3.5493,3.5493,3.5493,3.5493,3.5493,3.5493,3.5493,3.5493,3.5493,3.5493,3.5493,3.5493,3.5493,3.5493,3.5493,3.5493,3.5493,3.5493,3.5493,3.5493,3.5493,3.5493,3.5493,3.5493,3.5493,3.5493,3.5493,3.5493,3.5493,3.5493,3.5493,3.5493,3.5493,3.5493,3.5493,3.5493,3.5493,3.5493,3.5493,3.5383,3.5122,3.4889,3.4634,3.436,3.4292,3.4147,3.3876,3.385,3.3842,3.3807,3.3807,3.3807,3.3807,3.3807,3.3807,3.3807,3.3807,3.3807,2.231,2.231,2.3021,2.5964,2.7858,2.8969,2.8969,2.8426,2.7718,0.0,0.0,2.6691,2.6691,2.7391,2.8102,2.8518,2.9554,3.0337,3.0398,2.9783,2.9572,3.0232,3.0117,3.0224,3.0839,3.0898,3.0898,3.0898,3.0898,3.0898,3.0898,3.0898,3.0898,3.0898,3.0898,3.0806,3.0626,3.2924,3.4603,3.559,3.5566,3.5091,3.4287,3.5143,3.4795,3.3365,3.1092,3.1144,3.2704,3.0905,3.1988,3.4834,3.5334,3.5493,3.5493,3.5493,3.5493,3.5493,3.5493,3.5493,3.5493,3.5493,3.5493,3.5493,3.5493,3.5493,3.5493,3.5493,3.5493,3.5493,3.5493,3.5493,3.5493,3.5493,3.5493,3.5493,3.5493,3.5493,3.5493,3.5493,3.5493,3.5493,3.5493,3.5493,3.5493,3.5493,3.5493,3.5493,3.5493,3.5493,3.5493,3.5493,3.5369,3.5174,3.4908,3.4614,3.4288,3.4012,3.3986,3.3928,3.3807,3.3807,3.3807,3.3807,3.3807,3.3807,3.3807,3.3807,3.3807,3.3807,3.3807,3.3807,2.231,2.231,2.2852,2.5101,2.8307,3.0898,3.0898,3.0152,2.912,2.7907,2.7673,2.7673,2.7673,2.833,2.8913,2.8978,2.9784,3.0398,3.0398,2.9581,2.9361,3.0399,3.0701,3.0834,3.0898,3.0898,3.0898,3.0898,3.0898,3.0898,3.0898,3.0898,3.0898,3.0898,3.0829,3.065,3.041,3.1679,3.3256,3.5122,3.5359,3.546,3.5446,3.5493,3.4545,3.2827,3.1428,3.1149,3.1653,3.106,3.2164,3.4276,3.5161,3.5493,3.5493,3.5493,3.5493,3.5493,3.5493,3.5493,3.5493,3.5493,3.5493,3.5493,3.5493,3.5493,3.5493,3.5493,3.5493,3.5493,3.5493,3.5493,3.5493,3.5493,3.5493,3.5493,3.5493,3.5493,3.5493,3.5493,3.5493,3.5493,3.5493,3.5493,3.5493,3.5493,3.5493,3.5493,3.5493,3.5493,3.5479,3.5398,3.5223,3.4963,3.4614,3.4288,3.4018,3.3815,3.3807,3.3807,3.3807,3.3807,3.3807,3.3807,3.3807,3.3807,3.3807,3.3807,3.3807,3.3807,3.3807,3.3807,2.231,2.231,2.2361,2.2564,2.6783,3.0898,3.0898,3.0839,3.0702,3.0547,3.0508,3.0508,3.0508,2.9483,2.8944,2.9938,3.0267,3.0398,3.0398,3.021,3.0275,3.0792,3.0878,3.0898,3.0898,3.0898,3.0898,3.0898,3.0898,3.0898,3.0898,3.0898,3.0898,3.0898,3.0605,3.0425,3.0398,3.0513,3.1686,3.3936,3.4974,3.5493,3.5493,3.5493,3.4545,3.2891,3.2763,3.2321,3.1756,3.2436,3.3301,3.4276,3.5161,3.5493,3.5493,3.5493,3.5493,3.5493,3.5493,3.5493,3.5493,3.5493,3.5493,3.5493,3.5493,3.5493,3.5493,3.5493,3.5493,3.5493,3.5493,3.5493,3.5493,3.5493,3.5493,3.5493,3.5493,3.5493,3.5493,3.5493,3.5493,3.5493,3.5493,3.5493,3.5493,3.5493,3.5493,3.5493,3.5493,3.5493,3.5398,3.5174,3.5105,3.487,3.4288,3.3986,3.3815,3.3807,3.3807,3.3807,3.3807,3.3807,3.3807,3.3807,3.3807,3.3807,3.3807,3.3807,3.3807,3.3807,3.3807,3.3807,2.231,2.231,2.3153,2.6757,2.6609,0.0,0.0,2.9017,2.9946,3.0699,3.0863,3.081,3.0584,3.0021,2.952,2.9255,2.9888,3.0398,3.0398,3.0362,3.0472,3.0856,3.0898,3.0898,3.0898,3.0898,3.0898,3.0898,3.0898,3.0898,3.0898,3.0898,3.0804,3.0605,3.0462,3.0398,3.0398,3.109,3.1814,3.2506,3.3987,3.468,3.4718,3.5257,3.4545,3.2891,3.2897,3.2148,3.1006,3.234,3.309,3.3526,3.4949,3.5493,3.5493,3.5493,3.5493,3.5493,3.5493,3.5493,3.5493,3.5493,3.5493,3.5493,3.5493,3.5493,3.5493,3.5493,3.5493,3.5493,3.5493,3.5493,3.5493,3.5493,3.5493,3.5493,3.5493,3.5493,3.5493,3.5493,3.5493,3.5493,3.5493,3.5493,3.5493,3.5493,3.5369,3.5239,3.5239,3.5105,3.4963,3.4851,3.4656,3.4379,3.3986,3.3868,3.3807,3.3807,3.3807,3.3807,3.3807,3.3807,3.3807,3.3807,3.3807,3.3807,3.3807,3.3807,3.3807,3.3807,3.3807,3.3807,2.2152,2.231,2.3249,2.7194,0.0,0.0,2.7257,2.8518,2.9364,3.0648,3.0586,3.033,3.0385,3.0337,3.0021,2.9225,2.9821,3.0398,3.0398,3.0482,3.0639,3.0878,3.0898,3.0898,3.0898,3.0898,3.0856,3.0758,3.0735,3.0735,3.0735,3.0735,3.0633,3.0421,3.0398,3.0398,3.0398,3.1167,3.1468,3.1295,3.2455,3.3284,3.3814,3.441,3.3891,3.2526,3.2526,3.1718,3.0513,3.1929,3.2833,3.3468,3.493,3.5493,3.5493,3.5493,3.5493,3.5493,3.5493,3.5493,3.5493,3.5493,3.5493,3.5493,3.5493,3.5493,3.5493,3.5493,3.5493,3.5493,3.5493,3.5493,3.5493,3.5493,3.5493,3.5493,3.5493,3.5493,3.5493,3.5493,3.5493,3.5493,3.5493,3.5432,3.5369,3.5369,3.5157,3.4981,3.4981,3.4813,3.4653,3.4551,3.4265,3.4012,3.3815,3.3807,3.3807,3.3807,3.3807,3.3807,3.3807,3.3807,3.3807,3.3807,3.3807,3.3807,3.3807,3.3807,3.3807,3.3807,3.3807,3.3807,2.1915,2.2338,2.231,2.231,2.3307,2.543,2.9884,2.9914,2.9383,3.0625,2.9876,2.9295,3.0234,3.0398,3.0362,3.0213,3.0305,3.041,3.039,3.0697,3.0898,3.0898,3.0898,3.0898,3.0898,3.0898,3.0762,3.0406,3.0398,3.0398,3.0398,3.0398,3.0398,3.0398,3.0398,3.0398,3.0398,3.0398,3.0398,3.041,3.0397,3.128,3.2891,3.2891,3.2449,3.1698,3.1698,3.1218,3.0456,3.1352,3.2699,3.4276,3.5161,3.5493,3.5493,3.5493,3.5493,3.5493,3.5493,3.5493,3.5493,3.5493,3.5493,3.5493,3.5493,3.5493,3.5493,3.5493,3.5493,3.5493,3.5493,3.5493,3.5493,3.5493,3.5493,3.5493,3.5493,3.5493,3.5493,3.5493,3.5493,3.5493,3.5493,3.5273,3.5105,3.5105,3.487,3.4694,3.4694,3.4694,3.4551,3.4223,3.3961,3.3807,3.3807,3.3807,3.3807,3.3807,3.3807,3.3807,3.3807,3.3807,3.3807,3.3807,3.3807,3.3807,3.3807,3.3807,3.3807,3.3807,3.3807,3.3807,2.7103,2.5392,2.2525,2.3422,2.6298,2.9263,3.059,3.0562,3.0071,2.9431,2.9809,3.0283,3.0376,3.0398,3.0386,3.0349,3.0374,3.0492,3.072,3.0832,3.0898,3.0898,3.0898,3.0898,3.0898,3.0697,3.051,3.0421,3.0398,3.0398,3.0398,3.0398,3.0398,3.0398,3.0398,3.0398,3.0398,3.0398,3.0398,3.0398,3.0351,3.0948,3.2045,3.2019,3.1884,3.1698,3.1698,3.1218,3.0513,3.1948,3.3199,3.4276,3.5161,3.5493,3.5493,3.5493,3.5493,3.5493,3.5493,3.5493,3.5493,3.5493,3.5493,3.5493,3.5493,3.5493,3.5493,3.5493,3.5493,3.5493,3.5493,3.5493,3.5493,3.5493,3.5493,3.5493,3.5493,3.5493,3.5493,3.5493,3.5354,3.5223,3.5223,3.4999,3.4832,3.4832,3.4551,3.4265,3.4087,3.408,3.4012,3.3928,3.3842,3.3807,3.3807,3.3807,3.3807,3.3807,3.3807,3.3807,3.3807,3.3807,3.3807,3.3807,3.3807,3.3807,3.3807,3.3807,3.3807,3.3807,3.3807,3.3807,2.716,2.7,2.5904,2.6673,2.888,3.0271,2.801,2.9222,3.0577,2.9658,3.0191,3.0322,2.8633,2.9462,3.0398,3.0398,3.0398,3.0519,3.0855,3.0898,3.0898,3.0898,3.0898,3.0855,3.0715,3.0528,3.0398,3.0398,3.0398,3.0398,3.0398,3.0398,3.0398,3.0398,3.0398,3.0398,3.0398,3.0398,3.0398,3.041,3.0016,3.0306,3.1179,3.112,3.1129,3.1179,3.1179,3.0891,3.0533,3.2218,3.3218,3.3795,3.5026,3.5493,3.5493,3.5493,3.5493,3.5493,3.5493,3.5493,3.5493,3.5493,3.5493,3.5493,3.5493,3.5493,3.5493,3.5493,3.5432,3.5369,3.546,3.5354,3.5223,3.5446,3.5417,3.5354,3.5354,3.5273,3.5207,3.5254,3.5136,3.4997,3.4963,3.4812,3.4674,3.4591,3.4284,3.3986,3.3815,3.3807,3.3807,3.3807,3.3807,3.3807,3.3807,3.3807,3.3807,3.3807,3.3807,3.3807,3.3807,3.3807,3.3807,3.3807,3.3807,3.3807,3.3807,3.3807,3.3807,3.3807,3.3807,3.3807,2.4281,2.7788,3.0793,3.0391,3.0559,2.9435,2.4196,2.7067,3.0832,3.0806,3.0856,2.9847,2.636,2.8295,3.0449,3.0449,3.0449,3.0552,3.0856,3.0898,3.0898,3.0898,3.0898,3.0768,3.0428,3.0398,3.0398,3.0398,3.0398,3.0398,3.0398,3.0398,3.0398,3.0398,3.0398,3.0352,3.029,3.0364,3.0364,3.0271,2.9555,2.9636,3.0398,3.0256,3.0275,3.0398,3.0398,3.0398,3.0513,3.2141,3.2833,3.3064,3.4737,3.543,3.5493,3.5493,3.5493,3.5493,3.5493,3.5493,3.5493,3.5493,3.5493,3.5493,3.546,3.546,3.5446,3.5432,3.5239,3.5122,3.5369,3.507,3.4813,3.5304,3.5239,3.5051,3.5051,3.487,3.4735,3.4869,3.4887,3.4832,3.4714,3.4653,3.4569,3.4353,3.4012,3.3807,3.3807,3.3807,3.3807,3.3807,3.3807,3.3807,3.3807,3.3807,3.3807,3.3807,3.3807,3.3807,3.3807,3.3807,3.3807,3.3807,3.3807,3.3807,3.3807,3.3807,3.3807,3.3807,3.3807,3.3807,2.7513,3.0153,3.0045,2.6521,2.8242,3.0401,2.8851,2.9458,3.0442,3.0808,3.0898,3.0625,2.9764,3.0249,3.0799,3.0799,3.0799,3.0827,3.0898,3.0898,3.0898,3.0898,3.0898,3.0768,3.0428,3.0398,3.0398,3.0398,3.0398,3.0398,3.0398,3.0398,3.0398,3.0398,3.0398,3.0065,2.9387,3.0065,3.0065,2.9387,2.9825,3.0175,3.0371,2.9677,2.9736,3.0398,3.0398,3.0398,3.0475,3.1525,3.2333,3.3006,3.4064,3.4911,3.5493,3.5493,3.5493,3.5493,3.5493,3.5493,3.5493,3.5493,3.5493,3.546,3.5239,3.519,3.5138,3.4926,3.4813,3.4793,3.487,3.4793,3.4714,3.4832,3.4832,3.4793,3.4793,3.4813,3.4869,3.4906,3.4813,3.4734,3.4694,3.4325,3.3979,3.3947,3.3842,3.3807,3.3807,3.3807,3.3807,3.3807,3.3807,3.3807,3.3807,3.3807,3.3807,3.3807,3.3807,3.3807,3.3807,3.3807,3.3807,3.3807,3.3807,3.3807,3.3807,3.3807,3.3807,3.3807,3.3807,3.3807,2.497,2.6767,2.6893,2.7267,2.7751,2.8531,3.0175,3.0425,3.0364,3.0614,3.0796,3.0898,3.0856,3.0878,3.0898,3.0898,3.0898,3.0898,3.0898,3.0898,3.0898,3.0898,3.0762,3.0579,3.0414,3.0398,3.0398,3.0398,3.0398,3.0398,3.0398,3.0398,3.0398,3.0398,3.0398,3.0177,2.9678,3.0158,3.0158,2.9678,3.0128,3.0367,3.039,2.9931,2.9979,3.0398,3.0398,3.0398,3.0456,3.1352,3.2179,3.2987,3.3853,3.4737,3.5493,3.5493,3.5493,3.5493,3.5493,3.5493,3.5479,3.5354,3.5304,3.5273,3.4981,3.4908,3.4889,3.4734,3.4572,3.4508,3.4653,3.4505,3.4284,3.4442,3.4445,3.4445,3.4445,3.4405,3.4383,3.4383,3.433,3.4279,3.4279,3.4005,3.3807,3.3807,3.3807,3.3807,3.3807,3.3807,3.3807,3.3807,3.3807,3.3807,3.3807,3.3807,3.3807,3.3807,3.3807,3.3807,3.3807,3.3807,3.3807,3.3807,3.3807,3.3807,3.3807,3.3807,3.3807,3.3807,3.3807,3.3807,2.0205,2.247,2.491,2.9626,2.8462,2.6786,2.9138,2.9453,2.9484,3.0243,3.0675,3.0898,3.0898,3.0898,3.0898,3.0898,3.0898,3.0898,3.0898,3.0855,3.0806,3.0806,3.0576,3.0398,3.0398,3.0398,3.0398,3.0398,3.0398,3.0398,3.0398,3.0398,3.0398,3.0398,3.0398,3.0306,3.0098,3.0306,3.0306,3.0098,3.0306,3.0398,3.0398,3.0398,3.0398,3.0398,3.0398,3.0398,3.0456,3.1179,3.1968,3.2776,3.3641,3.4507,3.5295,3.5449,3.5493,3.5493,3.5446,3.5432,3.5383,3.5122,3.5016,3.4981,3.4714,3.4593,3.4593,3.4569,3.4334,3.4195,3.4464,3.4184,3.3868,3.4093,3.4123,3.4123,3.4123,3.3961,3.3807,3.3807,3.3807,3.3807,3.3807,3.3807,3.3807,3.3807,3.3807,3.3807,3.3807,3.3807,3.3807,3.3807,3.3807,3.3807,3.3807,3.3807,3.3807,3.3807,3.3807,3.3807,3.3807,3.3807,3.3807,3.3807,3.3807,3.3807,3.3807,3.3807,3.3807,3.3807,3.3807,3.3807,1.6495,2.3073,2.992,3.063,3.0428,2.9121,2.556,2.4711,2.5765,2.9602,3.0675,3.0898,3.0898,3.0898,3.0898,3.0898,3.0898,3.0898,3.0898,3.0645,3.0462,3.0462,3.0436,3.0398,3.0398,3.0398,3.0398,3.0398,3.0398,3.0398,3.0398,3.0398,3.0398,3.0398,3.0398,3.0037,2.9272,3.0018,3.0018,2.9272,3.0027,3.0398,3.0398,3.0398,3.0398,3.0398,3.0398,3.0398,3.0398,3.0533,3.1083,3.1948,3.2756,3.3603,3.4468,3.5218,3.5493,3.5479,3.5223,3.5138,3.5105,3.4832,3.4754,3.4694,3.4379,3.4288,3.4218,3.4005,3.3895,3.385,3.3921,3.3868,3.3807,3.3842,3.3868,3.3868,3.3868,3.3815,3.3807,3.3807,3.3807,3.3807,3.3807,3.3807,3.3807,3.3807,3.3807,3.3807,3.3807,3.3807,3.3807,3.3807,3.3807,3.3807,3.3807,3.3807,3.3807,3.3807,3.3807,3.3807,3.3807,3.3807,3.3807,3.3807,3.3807,3.3807,3.3807,3.3807,3.3807,3.3807,3.3807,3.3807,1.8763,2.5049,3.0898,3.0857,3.0859,3.0311,2.8204,2.5797,2.5286,2.9768,3.0798,3.0898,3.0898,3.0898,3.0898,3.0898,3.0898,3.0831,3.0658,3.0482,3.0398,3.0398,3.0398,3.0398,3.0398,3.0398,3.0398,3.0398,3.0398,3.0398,3.0398,3.0398,3.0398,3.0398,3.0398,3.0205,2.9786,3.0186,3.0216,2.9843,3.0216,3.0398,3.0398,3.0398,3.0398,3.0398,3.0398,3.0398,3.0398,3.0398,3.091,3.1775,3.2583,3.3344,3.4083,3.4963,3.519,3.5034,3.4926,3.4889,3.4813,3.451,3.4423,3.4357,3.4068,3.3986,3.3961,3.3842,3.3807,3.3807,3.3807,3.3807,3.3807,3.3807,3.3807,3.3807,3.3807,3.3807,3.3807,3.3807,3.3807,3.3807,3.3807,3.3807,3.3807,3.3807,3.3807,3.3807,3.3807,3.3807,3.3807,3.3807,3.3807,3.3807,3.3807,3.3807,3.3807,3.3807,3.3807,3.3807,3.3807,3.3807,3.3807,3.3807,3.3807,3.3807,3.3807,3.3807,3.3807,3.3807,3.3807,3.3807,1.9768,2.4597,2.872,2.872,2.8903,2.9394,3.0565,2.8255,2.6824,3.0203,3.0899,3.0898,3.0898,3.0898,3.0898,3.0898,3.0898,3.0774,3.0449,3.0398,3.0398,3.0398,3.0398,3.0398,3.0398,3.0398,3.0398,3.0398,3.0398,3.0398,3.0398,3.0398,3.0398,3.0398,3.0398,3.0379,3.0336,3.0379,3.0398,3.0398,3.0398,3.0398,3.0398,3.0398,3.0367,3.0311,3.0367,3.0398,3.0398,3.0398,3.0751,3.1367,3.2403,3.3024,3.3515,3.4599,3.487,3.4674,3.4593,3.4572,3.4529,3.4195,3.4099,3.4068,3.385,3.3807,3.3807,3.3807,3.3807,3.3807,3.3807,3.3807,3.3807,3.3807,3.3807,3.3807,3.3807,3.3807,3.3807,3.3807,3.3807,3.3807,3.3807,3.3807,3.3807,3.3807,3.3807,3.3807,3.3807,3.3807,3.3807,3.3807,3.3807,3.3807,3.3807,3.3807,3.3807,3.3807,3.3807,3.3807,3.3807,3.3807,3.3807,3.3807,3.3807,3.3807,3.3807,3.3807,3.3807,3.3807,3.3807,3.3807,1.6079,1.9372,2.2745,2.2745,2.3465,2.5338,2.9871,3.0662,3.0542,3.0838,3.0898,3.0898,3.0898,3.0898,3.0898,3.0898,3.0898,3.0774,3.0449,3.0398,3.0398,3.0398,3.0398,3.0398,3.0398,3.0398,3.0398,3.0398,3.0398,3.0398,3.0398,3.0398,3.0398,3.0398,3.0398,3.0398,3.0379,3.0398,3.0398,3.0398,3.0398,3.0398,3.0398,3.0398,3.0254,3.0028,3.0299,3.0398,3.0398,3.0398,3.0273,3.0242,3.1882,3.2419,3.2468,3.411,3.4714,3.4653,3.4334,3.4242,3.4195,3.3902,3.3815,3.3815,3.3788,3.3807,3.3807,3.3807,3.3807,3.3807,3.3807,3.3807,3.3807,3.3807,3.3807,3.3807,3.3807,3.3807,3.3807,3.3807,3.3807,3.3807,3.3807,3.3807,3.3807,3.3807,3.3807,3.3807,3.3807,3.3807,3.3807,3.3807,3.3807,3.3807,3.3807,3.3807,3.3807,3.3807,3.3807,3.3807,3.3807,3.3807,3.3807,3.3807,3.3807,3.3807,3.3807,3.3807,3.3807,3.3807,3.3807,3.3807,1.5799,1.8977,2.231,2.231,2.2561,2.3454,2.5797,2.8695,3.0877,3.0898,3.0898,3.0898,3.0898,3.0898,3.0898,3.0898,3.0898,3.0774,3.0449,3.0398,3.0398,3.0398,3.0398,3.0398,3.0398,3.0398,3.0398,3.0398,3.0398,3.0398,3.0398,3.0398,3.0398,3.0398,3.0398,3.0398,3.0398,3.0398,3.0398,3.0398,3.0398,3.0398,3.0398,3.0209,3.0089,2.9999,2.9958,2.9962,2.9962,2.9962,2.9896,2.9983,3.165,3.2166,3.2152,3.378,3.4284,3.4111,3.3986,3.3935,3.3928,3.3842,3.3807,3.3807,3.3807,3.3807,3.3807,3.3807,3.3807,3.3807,3.3807,3.3807,3.3807,3.3807,3.3807,3.3807,3.3807,3.3807,3.3807,3.3807,3.3807,3.3807,3.3807,3.3807,3.3807,3.3807,3.3807,3.3807,3.3807,3.3807,3.3807,3.3807,3.3807,3.3807,3.3807,3.3807,3.3807,3.3807,3.3807,3.3807,3.3807,3.3807,3.3807,3.3807,3.3807,3.3807,3.3807,3.3807,3.3807,3.3807,3.3807,3.3807,1.6367,1.9329,2.231,2.231,2.231,2.247,2.3146,2.5989,2.8966,3.0563,3.0898,3.0898,3.0898,3.0898,3.0898,3.0898,3.0898,3.0774,3.0449,3.0398,3.0398,3.0398,3.0398,3.0398,3.0398,3.0398,3.0398,3.0398,3.0398,3.0398,3.0398,3.0398,3.0398,3.0398,3.0398,3.0398,3.0398,3.0398,3.0398,3.0398,3.0311,3.0267,3.0254,3.0018,2.9861,2.978,2.9661,2.9644,2.9696,2.9696,2.983,3.0152,3.1523,3.2072,3.2228,3.3568,3.3961,3.3807,3.3807,3.3807,3.3807,3.3807,3.3807,3.3807,3.3807,3.3807,3.3807,3.3807,3.3807,3.3807,3.3807,3.3807,3.3807,3.3807,3.3807,3.3807,3.3807,3.3807,3.3807,3.3807,3.3807,3.3807,3.3807,3.3807,3.3807,3.3807,3.3807,3.3807,3.3807,3.3807,3.3807,3.3807,3.3807,3.3807,3.3807,3.3807,3.3807,3.3807,3.3807,3.3807,3.3807,3.3807,3.3807,3.3807,3.3807,3.3807,3.3807,3.3807,3.3807,3.3807,3.3807,3.3807,0.0,0.0,0.0,2.231,2.231,2.231,2.231,2.3049,2.5072,2.9679,3.0662,3.0722,3.0879,3.0898,3.0898,3.0898,3.0898,3.0768,3.0449,3.0398,3.0398,3.0398,3.0398,3.0398,3.0398,3.0398,3.0398,3.0398,3.0398,3.0398,3.0398,3.0398,3.0398,3.0398,3.0398,3.0398,3.0398,3.0398,3.0398,3.0398,3.0117,2.9999,2.9984,2.978,2.9589,2.9412,2.9392,2.9494,2.9678,2.9678,3.0039,3.0677,3.1477,3.213,3.2706,3.3495,3.3807,3.3807,3.3807,3.3807,3.3807,3.3807,3.3807,3.3807,3.3807,3.3807,3.3807,3.3807,3.3807,3.3807,3.3807,3.3807,3.3807,3.3807,3.3807,3.3807,3.3807,3.3807,3.3807,3.3807,3.3807,3.3807,3.3807,3.3807,3.3807,3.3807,3.3807,3.3807,3.3807,3.3807,3.3807,3.3807,3.3807,3.3807,3.3807,3.3807,3.3807,3.3807,3.3807,3.3807,3.3807,3.3807,3.3807,3.3807,3.3807,3.3807,3.3807,3.3807,3.3807,3.3807,3.3807,3.3807,1.7432,0.0,0.0,0.0,0.0,0.0,2.231,2.2525,2.3005,2.41,2.5096,2.6821,3.0261,3.0898,3.0827,3.0583,3.0535,3.0501,3.0414,3.0398,3.0398,3.0398,3.0398,3.0398,3.0398,3.0398,3.0398,3.0398,3.0398,3.0398,3.0398,3.0398,3.0398,3.0398,3.0398,3.0398,3.0398,3.0398,3.0311,3.0103,3.0047,2.9924,2.9763,2.957,2.9454,2.9392,2.9181,2.9138,2.9185,2.9185,2.9621,3.0383,3.1194,3.1955,3.2706,3.3495,3.3807,3.3807,3.3807,3.3807,3.3807,3.3807,3.3807,3.3807,3.3807,3.3807,3.3807,3.3807,3.3807,3.3807,3.3807,3.3807,3.3807,3.3807,3.3807,3.3807,3.3807,3.3807,3.3807,3.3807,3.3807,3.3807,3.3807,3.3807,3.3807,3.3807,3.3807,3.3807,3.3807,3.3807,3.3807,3.3807,3.3807,3.3807,3.3807,3.3807,3.3807,3.3807,3.3807,3.3807,3.3807,3.3807,3.3807,3.3807,3.3807,3.3807,3.3807,3.3807,3.3807,3.3807,3.3807,3.3807,0.0,0.0,0.0,2.231,0.0,0.0,2.231,2.231,2.2237,2.2049,2.452,2.7574,3.0383,2.9275,2.8489,3.0134,3.0398,3.0398,3.0398,3.0398,3.0398,3.0398,3.0398,3.0398,3.0398,3.0398,3.0398,3.0398,3.0398,3.0398,3.0398,3.0398,3.0398,3.0398,3.0398,3.0398,3.0398,3.0299,3.015,2.9999,2.9829,2.9696,2.957,2.9332,2.9225,2.9225,2.9067,2.8994,2.8994,2.8994,2.9677,3.0742,3.1219,3.21,3.3164,3.3623,3.3807,3.3807,3.3807,3.3807,3.3807,3.3807,3.3807,3.3807,3.3807,3.3807,3.3807,3.3807,3.3807,3.3807,3.3807,3.3807,3.3807,3.3807,3.3807,3.3807,3.3807,3.3807,3.3807,3.3807,3.3807,3.3807,3.3807,3.3807,3.3807,3.3807,3.3807,3.3807,3.3807,3.3807,3.3807,3.3807,3.3807,3.3807,3.3807,3.3807,3.3807,3.3807,3.3807,3.3807,3.3807,3.3807,3.3807,3.3807,3.3807,3.3807,3.3807,3.3807,3.3807,3.3807,3.3807,3.3807,0.0,0.0,0.0,2.231,2.231,0.0,2.231,2.231,2.231,2.231,2.6303,2.9816,2.989,2.6289,2.4685,2.877,2.9446,2.9663,3.0317,3.0398,3.0398,3.0398,3.0398,3.0398,3.0398,3.0398,3.0398,3.0398,3.0398,3.0398,3.0398,3.0398,3.0398,3.0398,3.0398,3.0398,3.0355,3.0122,2.9984,2.9939,2.957,2.9392,2.9351,2.9112,2.8994,2.8994,2.8994,2.8994,2.8994,2.8994,2.9953,3.1384,3.1384,3.2375,3.3807,3.3807,3.3807,3.3807,3.3807,3.3807,3.3807,3.3807,3.3807,3.3807,3.3807,3.3807,3.3807,3.3807,3.3807,3.3807,3.3807,3.3807,3.3807,3.3807,3.3807,3.3807,3.3807,3.3807,3.3807,3.3807,3.3807,3.3807,3.3807,3.3807,3.3807,3.3807,3.3807,3.3807,3.3807,3.3807,3.3807,3.3807,3.3807,3.3807,3.3807,3.3807,3.3807,3.3807,3.3807,3.3807,3.3807,3.3807,3.3807,3.3807,3.3807,3.3807,3.3807,3.3807,3.3807,3.3807,3.3807,3.3807,2.2158,2.231,2.231,2.231,2.231,0.0,2.231,2.231,2.231,2.231,2.2963,2.3561,2.3567,2.1903,2.1157,2.3145,2.3484,2.5096,2.9754,3.0398,3.0398,3.0398,3.0398,3.0398,3.0398,3.0398,3.0398,3.0398,3.0398,3.0398,3.0398,3.0398,3.0398,3.0398,3.0398,3.0299,3.0075,3.0028,2.9845,2.9513,2.9434,2.9289,2.9067,2.9021,2.8994,2.8994,2.8994,2.8994,2.8994,2.8994,2.9953,3.1384,3.1384,3.2375,3.3807,3.3807,3.3807,3.3807,3.3807,3.3807,3.3807,3.3807,3.3807,3.3807,3.3807,3.3807,3.3807,3.3807,3.3807,3.3807,3.3807,3.3807,3.3807,3.3807,3.3807,3.3807,3.3807,3.3807,3.3807,3.3807,3.3807,3.3807,3.3807,3.3807,3.3807,3.3807,3.3807,3.3807,3.3807,3.3807,3.3807,3.3807,3.3807,3.3807,3.3807,3.3807,3.3807,3.3807,3.3807,3.3807,3.3807,3.3807,3.3807,3.3807,3.3807,3.3807,3.3807,3.3807,3.3807,3.3807,3.3807,3.3807,2.231,2.231,2.231,2.231,2.231,0.0,0.0,2.231,2.231,2.231,2.218,2.2049,2.2049,2.0764,1.9909,2.0632,2.0731,2.2058,2.583,2.8848,2.9951,2.8026,2.9336,3.0398,3.0398,3.0398,3.0398,3.0398,3.0398,3.0398,3.0398,3.0398,3.0398,3.0398,3.0267,3.0136,2.9999,2.9796,2.9607,2.9412,2.9267,2.9134,2.8994,2.8994,2.8994,2.8994,2.8994,2.8994,2.9012,2.9439,3.032,3.1384,3.1384,3.2375,3.3807,3.3807,3.3807,3.3807,3.3807,3.3807,3.3807,3.3807,3.3807,3.3807,3.3807,3.3807,3.3807,3.3807,3.3807,3.3807,3.3807,3.3807,3.3807,3.3807,3.3807,3.3807,3.3807,3.3807,3.3807,3.3807,3.3807,3.3807,3.3807,3.3807,3.3807,3.3807,3.3807,3.3807,3.3807,3.3807,3.3807,3.3807,3.3807,3.3807,3.3807,3.3807,3.3807,3.3807,3.3807,3.3807,3.3807,3.3807,3.3807,3.3807,3.3807,3.3807,3.3807,3.3807,3.3807,3.3807,3.3807,3.3807,2.231,2.231,2.231,2.231,2.231,2.231,0.0,0.0,0.0,2.231,2.231,2.231,2.231,2.0464,1.8961,1.8961,1.8961,1.9439,2.085,2.5238,2.7807,2.6434,2.873,3.0075,2.9213,2.8579,2.8558,2.9361,2.9583,2.9737,2.9888,3.021,3.0398,3.0398,3.0136,2.9984,2.9939,2.9589,2.9372,2.933,2.9112,2.8994,2.8994,2.8994,2.8994,2.8994,2.8994,2.8994,2.9049,2.9879,3.0668,3.1403,3.1568,3.2522,3.3807,3.3807,3.3807,3.3807,3.3807,3.3807,3.3807,3.3807,3.3807,3.3807,3.3807,3.3807,3.3807,3.3807,3.3807,3.3807,3.3807,3.3807,3.3807,3.3807,3.3807,3.3807,3.3807,3.3807,3.3807,3.3807,3.3807,3.3807,3.3807,3.3807,3.3807,3.3807,3.3807,3.3807,3.3807,3.3807,3.3807,3.3807,3.3807,3.3807,3.3807,3.3807,3.3807,3.3807,3.3807,3.3807,3.3807,3.3807,3.3807,3.3807,3.3807,3.3762,3.368,3.368,3.3734,3.3807,3.3707,3.368,2.231,2.231,2.231,2.231,2.231,2.231,2.231,0.0,2.231,2.231,0.0,2.231,2.231,0.0,0.0,1.6248,1.6248,1.6292,1.651,1.7987,2.1776,2.9274,3.0307,2.8864,2.4926,2.2014,2.1904,2.5597,2.6607,2.7346,2.8061,2.9564,3.0398,3.0398,3.0136,2.9924,2.9748,2.9513,2.9289,2.9062,2.8998,2.8994,2.8994,2.8994,2.8994,2.8994,2.8994,2.8994,2.9049,2.9879,3.0668,3.1458,3.2192,3.3018,3.3807,3.3807,3.3807,3.3807,3.3807,3.3807,3.3807,3.3807,3.3807,3.3807,3.3807,3.3807,3.3807,3.3807,3.3807,3.3807,3.3807,3.3807,3.3807,3.3807,3.3807,3.3807,3.3807,3.3807,3.3807,3.3807,3.3807,3.3807,3.3807,3.3807,3.3807,3.3807,3.3807,3.3807,3.3807,3.3807,3.3807,3.3807,3.3807,3.3807,3.3807,3.3807,3.3807,3.3807,3.3807,3.3807,3.3807,3.3807,3.3807,3.3807,3.3807,3.3606,3.3273,3.3273,3.3447,3.3788,3.3419,3.3273,2.231,2.231,2.247,2.3236,2.608,2.7615,2.3287,2.231,2.231,2.231,0.0,0.0,0.0,0.0,0.0,0.0,1.5517,1.5011,1.6709,1.7377,1.9023,2.2655,2.2985,2.2426,2.1188,1.6299,1.4733,1.8455,2.0555,2.2997,2.6009,2.745,2.8869,3.0352,3.0037,2.978,2.9696,2.9334,2.9112,2.8994,2.8994,2.8994,2.8994,2.8994,2.8994,2.8994,2.8994,2.925,2.9769,3.0558,3.1366,3.2173,3.2981,3.3495,3.3807,3.3807,3.3807,3.3807,3.3807,3.3807,3.3807,3.3807,3.3807,3.3807,3.3807,3.3807,3.3807,3.3807,3.3807,3.3807,3.3807,3.3807,3.3807,3.3807,3.3807,3.3807,3.3807,3.3807,3.3807,3.3807,3.3807,3.3807,3.3807,3.3807,3.3807,3.3807,3.3807,3.3807,3.3807,3.3807,3.3807,3.3807,3.3807,3.3807,3.3807,3.3807,3.3807,3.3807,3.3807,3.3707,3.3465,3.3447,3.3332,3.3057,3.3057,3.2965,3.2777,3.2777,3.2872,3.3027,3.2872,3.2777,2.5329,2.5329,2.5551,2.6488,2.8759,2.9284,2.3599,2.231,2.2073,2.1245,1.9333,0.0,0.0,0.0,1.7811,0.0,0.0,1.5341,1.7507,1.7811,1.776,1.7616,1.6875,1.6697,1.7452,1.2807,1.058,1.2558,1.5901,1.9446,2.3118,2.5141,2.7171,2.9282,2.9578,2.9696,2.9696,2.923,2.8994,2.8994,2.8994,2.8994,2.8994,2.8994,2.8994,2.8994,2.8994,2.9475,3.0265,3.1072,3.1861,3.2687,3.3495,3.3807,3.3807,3.3807,3.3807,3.3807,3.3807,3.3807,3.3807,3.3807,3.3807,3.3807,3.3807,3.3807,3.3807,3.3807,3.3807,3.3807,3.3807,3.3807,3.3807,3.3807,3.3807,3.3807,3.3807,3.3807,3.3807,3.3807,3.3807,3.3807,3.3807,3.3807,3.3807,3.3807,3.3807,3.3807,3.3807,3.3807,3.3807,3.3807,3.3807,3.3807,3.3807,3.3807,3.3734,3.3634,3.3652,3.3447,3.3014,3.3014,3.284,3.2517,3.2484,3.2451,3.2316,3.2316,3.2248,3.2162,3.2248,3.2316,3.3022,3.3022,3.304,3.3085,2.8571,2.3798,2.2588,2.231,2.1481,1.8555,1.7879,1.7811,1.7811,1.7811,0.0,0.0,0.0,0.0,0.0,1.7811,1.7811,1.7789,1.5274,1.3532,1.3565,1.2555,1.1216,0.957,1.4283,1.7741,1.8938,2.2978,2.5705,2.6694,2.866,2.9696,2.9696,2.923,2.8994,2.8994,2.8994,2.8994,2.8994,2.8994,2.8994,2.8994,2.8994,2.9475,3.0265,3.1072,3.1861,3.2687,3.3495,3.3807,3.3807,3.3807,3.3807,3.3807,3.3807,3.3807,3.3807,3.3807,3.3807,3.3807,3.3807,3.3807,3.3807,3.3807,3.3807,3.3807,3.3807,3.3807,3.3807,3.3807,3.3807,3.3807,3.3807,3.3807,3.3807,3.3807,3.3807,3.3807,3.3807,3.3807,3.3807,3.3807,3.3807,3.3807,3.3807,3.3807,3.3807,3.3807,3.3807,3.3807,3.3807,3.3807,3.3634,3.3243,3.3214,3.3014,3.255,3.2517,3.2517,3.2484,3.2484,3.2282,3.1825,3.1825,3.164,3.1269,3.164,3.1825,3.3671,3.3671,3.3671,3.3671,2.8837,2.3753,2.2561,2.231,2.2023,2.0991,1.9198,1.842,2.0416,1.9164,0.0,0.0,0.0,0.0,0.0,1.4885,1.4885,1.4885,1.4023,1.2617,1.0619,1.0294,0.9947,0.9279,1.1554,1.3882,1.597,1.9238,2.2452,2.5576,2.7217,2.8579,2.9677,2.923,2.8994,2.8994,2.8994,2.8994,2.8994,2.8994,2.9287,2.9787,2.9787,3.0558,3.1825,3.2082,3.2669,3.3421,3.3697,3.3807,3.3807,3.3807,3.3807,3.3807,3.3807,3.3807,3.3807,3.3807,3.3807,3.3807,3.3807,3.3807,3.3807,3.3807,3.3807,3.3807,3.3807,3.3807,3.3807,3.3807,3.3807,3.3807,3.3807,3.3807,3.3807,3.3807,3.3807,3.3807,3.3807,3.3807,3.3807,3.3807,3.3807,3.3807,3.3807,3.3807,3.3807,3.3807,3.3807,3.3807,3.3807,3.3465,3.3124,3.2745,3.2745,3.255,3.2074,3.2039,3.1897,3.1657,3.162,3.1562,3.1411,3.1411,3.1312,3.119,3.1351,3.1411,3.3807,3.3807,3.3807,3.3807,3.0611,2.7254,2.6437,2.625,2.625,2.625,2.2963,2.1352,2.5485,2.2877,0.0,0.0,0.0,0.0,0.0,1.3396,1.3007,1.1923,1.2753,1.2301,0.9463,0.9247,0.9321,0.9367,1.0012,1.1284,1.3311,1.715,2.0708,2.3781,2.6619,2.8617,2.9677,2.923,2.8994,2.8994,2.9287,2.9439,2.9457,2.9732,3.0136,3.0632,3.0632,3.1384,3.2614,3.2614,3.3073,3.3807,3.3807,3.3807,3.3807,3.3807,3.3807,3.3807,3.3807,3.3807,3.3807,3.3807,3.3807,3.3807,3.3807,3.3807,3.3807,3.3807,3.3807,3.3807,3.3807,3.3807,3.3807,3.3807,3.3807,3.3807,3.3807,3.3807,3.3807,3.3807,3.3807,3.3807,3.3807,3.3807,3.3807,3.3807,3.3807,3.3807,3.3807,3.3807,3.3807,3.3807,3.3807,3.3532,3.2916,3.2763,3.2568,3.2264,3.223,3.2039,3.1603,3.1603,3.147,3.119,3.119,3.119,3.119,3.119,3.119,3.119,3.119,3.119]},{"header":{"parameterUnit":"m.s-1","parameterCategory":1,"la1":30.6,"la2":29.2853,"lo1":-89.7004,"lo2":-87.6739,"dy":0.0162,"dx":0.0183,"nx":112,"ny":82,"refTime":"2023-10-08T12:00:00:Z","depth":0,"parameterNumber":3,"parameterNumberName":"V-component_of_WINDS"},"data":[0.0,0.0,0.0,0.0,0.0,0.0,0.0,0.0,0.0,0.0,0.0,0.0,0.0,0.0,0.0,0.0,0.0,0.0,0.0,0.0,0.0,0.0,0.0,0.0,0.0,0.0,0.0,0.0,0.0,0.0,0.0,0.0,0.0,0.0,0.0,0.0,0.0,0.0,0.0,0.0,0.0,0.0,0.0,0.0,0.0,0.0,0.0,0.0,0.0,0.0,0.0,0.0,0.0,0.0,0.0,0.0,0.0,0.0,0.0,0.0,0.0,0.0,0.0,0.0,0.0,0.0,0.0,0.0,0.0,0.0,0.0,0.0,0.0,0.0,0.0,0.0,0.0,0.0,0.0,0.0,0.0,0.0,0.0,0.0,0.0,0.0,0.0,0.0,0.0,0.0,-0.3727,0.0336,0.028,0.0224,0.0842,0.0449,-0.105,-0.3836,0.0,0.0,0.0,0.0,0.0,0.0,0.0,0.0,0.0,0.0,0.0,0.0,0.0,0.0,0.0,0.0,0.0,0.0,0.0,0.0,0.0,0.0,0.0,0.0,0.0,0.0,0.0,0.0,0.0,0.0,0.0,0.0,0.0,0.0,0.0,0.0,0.0,0.0,0.0,0.0,0.0,0.0,0.0,0.0,0.0,0.0,0.0,0.0,0.0,0.0,0.0,0.0,0.0,0.0,0.0,0.0,0.0,0.0,0.0,0.0,0.0,0.0,0.0,0.0,0.0,0.0,0.0,0.0,0.0,0.0,0.0,0.0,0.0,0.0,0.0,0.0,0.0,0.0,0.0,0.0,0.0,0.0,0.0,0.0,0.0,0.0,0.0,0.0,0.0,0.0,0.0,0.0,0.0,0.0,0.0,0.0,0.0,0.0,0.0,0.0,0.0,0.0,0.0,0.0,-0.3899,-0.028,0.0056,0.0224,0.0842,0.0842,-0.071,-0.4199,0.0,0.0,0.0,0.0,0.0,0.0,0.0,0.0,0.0,0.0,0.0,0.0,0.0,0.0,0.0,0.0,0.0,0.0,0.0,0.0,0.0,0.0,0.0,0.0,0.0,0.0,0.0,0.0,0.0,0.0,0.0,0.0,0.0,0.0,0.0,0.0,0.0,0.0,0.0,0.0,0.0,0.0,0.0,0.0,0.0,0.0,0.0,0.0,0.0,0.0,0.0,0.0,0.0,0.0,0.0,0.0,0.0,0.0,0.0,0.0,0.0,0.0,0.0,0.0,0.0,0.0,0.0,0.0,0.0,0.0,0.0,0.0,0.0,0.0,0.0,0.0,0.0,0.0,0.0,0.0,0.0,0.0,0.0,0.0,0.0,0.0,0.0,0.0,0.0,0.0,0.0,0.0,0.0,0.0,0.0,0.0,0.0,0.0,0.0,0.0,0.0,0.0,0.0,-0.3292,-0.1797,-0.0168,0.0,0.0112,0.0393,0.0729,-0.0641,-0.4262,-0.6194,0.0,0.0,0.0,0.0,0.0,0.0,0.0,0.0,0.0,0.0,0.0,0.0,0.0,0.0,0.0,0.0,0.0,0.0,0.0,0.0,0.0,0.0,0.0,0.0,0.0,0.0,0.0,0.0,0.0,0.0,0.0,0.0,0.0,0.0,0.0,0.0,0.0,0.0,0.0,0.0,0.0,0.0,0.0,0.0,0.0,0.0,0.0,0.0,0.0,0.0,0.0,0.0,0.0,0.0,0.0,0.0,0.0,0.0,0.0,0.0,0.0,0.0,0.0,0.0,0.0,0.0,0.0,0.0,0.0,0.0,0.0,0.0,0.0,0.0,0.0,0.0,0.0,0.0,0.0,0.0,0.0,0.0,0.0,0.0,0.0,0.0,0.0,0.0,0.0,0.0,0.0,0.0,0.0,0.0,0.0,0.0,0.0,0.0,0.0,0.0,0.0,0.0,-0.1584,0.0,0.0,0.0,0.0,0.0,-0.0164,-0.1075,-0.3096,-0.536,0.0,0.0,0.0,0.0,0.0,0.0,0.0,0.0,0.0,0.0,0.0,0.0,0.0,0.0,0.0,0.0,0.0,0.0,0.0,0.0,0.0,0.0,0.0,0.0,0.0,0.0,0.0,0.0,0.0,0.0,0.0,0.0,0.0,0.0,0.0,0.0,0.0,0.0,0.0,0.0,0.0,0.0,0.0,0.0,0.0,0.0,0.0,0.0,0.0,0.0,0.0,0.0,0.0,0.0,0.0,0.0,0.0,0.0,0.0,0.0,0.0,0.0,0.0,0.0,0.0,0.0,0.0,0.0,0.0,0.0,0.0,0.0,0.0,0.0,0.0,0.0,0.0,0.0,0.0,0.0,0.0,0.0,0.0,0.0,0.0,0.0,0.0,0.0,0.0,0.0,0.0,0.0,0.0,0.0,0.0,0.0,0.0,0.0,0.0,0.0,0.0,0.0,0.0204,0.0,0.0,0.0,0.0,0.0,-0.2203,-0.2401,0.0354,-0.397,0.0,0.0,0.0,0.0,0.0,0.0,0.0,0.0,0.0,0.0,0.0,0.0,0.0,0.0,0.0,0.0,0.0,0.0,0.0,0.0,0.0,0.0,0.0,0.0,0.0,0.0,0.0,0.0,0.0,0.0,0.0,0.0,0.0,0.0,0.0,0.0,0.0,0.0,0.0,0.0,0.0,0.0,0.0,0.0,0.0,0.0,0.0,0.0,0.0,0.0,0.0,0.0,0.0,0.0,0.0,0.0,0.0,0.0,0.0,0.0,0.0,0.0,0.0,0.0,0.0,0.0,0.0,0.0,0.0,0.0,0.0,0.0,0.0,0.0,0.0,0.0,0.0,0.0,0.0,0.0,0.0,0.0,0.0,0.0,0.0,0.0,0.0,0.0,0.0,0.0,0.0,0.0,0.0,0.0,0.0,0.0,0.0,0.0,0.0,0.0,0.0,0.0,0.0865,0.0168,0.0,0.0,0.0,0.0,-0.0757,-0.1477,-0.2046,0.0,0.0,0.0,0.0,0.0,0.0,0.0,0.0,0.0,0.0,0.0,0.0,0.0,0.0,0.0,0.0,0.0,0.0,0.0,0.0,0.0,0.0,0.0,0.0,0.0,0.0,0.0,0.0,0.0,0.0,0.0,0.0,0.0,0.0,0.0,0.0,0.0,0.0,0.0,0.0,0.0,0.0,0.0,0.0,0.0,0.0,0.0,0.0,0.0,0.0,0.0,0.0,0.0,0.0,0.0,0.0,0.0,0.0,0.0,0.0,0.0,0.0,0.0,0.0,0.0,0.0,0.0,0.0,0.0,0.0,0.0,0.0,0.0,0.0,0.0,0.0,0.0,0.0,0.0,0.0,0.0,0.0,0.0,0.0,0.0,0.0,0.0,0.0,0.0,0.0,0.0,0.0,0.0,0.0,0.0,0.0,0.0,0.0,0.0,0.0,0.0,0.0,0.1748,0.1904,0.1557,0.0922,0.0346,0.0,0.0,0.0168,-0.0915,-0.3727,0.0,0.0,0.0,0.0,0.0,0.0,0.0,0.0,0.0,0.0,0.0,0.0,0.0,0.0,0.0,0.0,0.0,0.0,0.0,0.0,0.0,0.0,0.0,0.0,0.0,0.0,0.0,0.0,0.0,0.0,0.0,0.0,0.0,0.0,0.0,0.0,0.0,0.0,0.0,0.0,0.0,0.0,0.0,0.0,0.0,0.0,0.0,0.0,0.0,0.0,0.0,0.0,0.0,0.0,0.0,0.0,0.0,0.0,0.0,0.0,0.0,0.0,0.0,0.0,0.0,0.0,0.0,0.0,0.0,0.0,0.0,0.0,0.0,0.0,0.0,0.0,0.0,0.0,0.0,0.0,0.0,0.0,0.0,0.0,0.0,0.0,0.0,0.0,0.0,0.0,0.0,0.0,0.0,0.0,0.0,0.0,0.0,0.0,0.0,0.0,0.0,0.0,0.125,0.355,0.4326,0.2891,0.1106,0.0062,0.0,0.0,-0.1112,0.0,0.0,0.0,0.0,0.0,0.0,0.0,0.0,0.0,0.0,0.0,0.0,0.0,0.0,0.0,0.0,0.0,0.0,0.0,0.0,0.0,0.0,0.0,0.0,0.0,0.0,0.0,0.0,0.0,0.0,0.0,0.0,0.0,0.0,0.0,0.0,0.0,0.0,0.0,0.0,0.0,0.0,0.0,0.0,0.0,0.0,0.0,0.0,0.0,0.0,0.0,0.0,0.0,0.0,0.0,0.0,0.0,0.0,0.0,0.0,0.0,0.0,0.0,0.0,0.0,0.0,0.0,0.0,0.0,0.0,0.0,0.0,0.0,0.0,0.0,0.0,0.0,0.0,0.0,0.0,0.0,0.0,0.0,0.0,0.0,0.0,0.0,0.0,0.0,0.0,0.0,0.0,0.0,0.0,0.0,0.0,0.0,0.0,0.0,0.0,0.0,0.0,0.0,0.0241,0.3114,0.488,0.4439,0.4016,0.2778,0.0246,0.0,-0.0117,-0.0347,0.0,0.0,0.0,0.0,0.0,0.0,0.0,0.0,0.0,0.0,0.0,0.0,0.0,0.0,0.0,0.0,0.0,0.0,0.0,0.0,0.0,0.0,0.0,0.0,0.0,0.0,0.0,0.0,0.0,0.0,0.0,0.0,0.0,0.0,0.0,0.0,0.0,0.0,0.0,0.0,0.0,0.0,0.0,0.0,0.0,0.0,0.0,0.0,0.0,0.0,0.0,0.0,0.0,0.0,0.0,0.0,0.0,0.0,0.0,0.0,0.0,0.0,0.0,0.0,0.0,0.0,0.0,0.0,0.0,0.0,0.0,0.0,0.0,0.0,0.0,0.0,0.0,0.0,0.0,0.0,0.0,0.0,0.0,0.0,0.0,0.0,0.0,0.0,0.0,0.0,0.0,0.0,0.0,0.0,0.0,0.0,0.0,0.0,0.0,0.0,0.0,0.0,-0.0245,0.2983,0.5238,0.5238,0.5325,0.4229,0.1337,0.0447,0.0189,0.0605,0.0,0.0,0.0,0.0,0.0,0.0,0.0,0.0,0.0,0.0,0.0,0.0,0.0,0.0,0.0,0.0,0.0,0.0,0.0,0.0,0.0,0.0,0.0,0.0,0.0,0.0,0.0,0.0,0.0,0.0,0.0,0.0,0.0,0.0,0.0,0.0,0.0,0.0,0.0,0.0,0.0,0.0,0.0,0.0,0.0,0.0,0.0,0.0,0.0,0.0,0.0,0.0,0.0,0.0,0.0,0.0,0.0,0.0,0.0,0.0,0.0,0.0,0.0,0.0,0.0,0.0,0.0,0.0,0.0,0.0,0.0,0.0,0.0,0.0,0.0,0.0,0.0,0.0,0.0,0.0,0.0,0.0,0.0,0.0,0.0,0.0,0.0,0.0,0.0,0.0,0.0,0.0,0.0,0.0,0.0,0.0,0.0,0.0,0.0,0.0,0.0,0.0,-0.0338,0.3058,0.5428,0.5428,0.5382,0.4709,0.3082,0.1143,0.0,0.0,0.0,0.0,0.0,0.0,0.0,0.0,0.0,0.0,0.0,0.0,0.0,0.0,0.0,0.0,0.0,0.0,0.0,0.0,0.0,0.0,0.0,0.0,0.0,0.0,0.0,0.0,0.0,0.0,0.0,0.0,0.0,0.0,0.0,0.0,0.0,0.0,0.0,0.0,0.0,0.0,0.0,0.0,0.0,0.0,0.0,0.0,0.0,0.0,0.0,0.0,0.0,0.0,0.0,0.0,0.0,0.0,0.0,0.0,0.0,0.0,-0.1644,-0.3072,0.0,0.0,0.0,0.0,0.0,0.0,0.0,0.0,0.0,0.0,0.0,0.0,0.0,0.0,0.0,0.0,0.0,0.0,0.0,0.0,0.0,0.0,0.0,0.0,0.0,0.0,0.0,0.0,0.0,0.0,0.0,0.0,0.0,0.0,0.0,0.0,0.0,0.0,0.0,0.0,-0.038,0.3058,0.5432,0.5372,0.5386,0.5262,0.4858,0.1884,0.0,0.0,0.0121,0.0,0.0,0.0,0.0,0.0,0.0,0.0,0.0,0.0,0.0,0.0,0.0,0.0,0.0,0.0,0.0,0.0,0.0,0.0,0.0,0.0,0.0,0.0,0.0,0.0,0.0,0.0,0.0,0.0,0.0,0.0,0.0,0.0,0.0,0.0,0.0,0.0,0.0,0.0,0.0,0.0,0.0,0.0,0.0,0.0,0.0,0.0,0.0,0.0,0.0,0.0,0.0,0.0,0.0,0.0,0.0,0.0,0.0,0.0,-0.1098,-0.3069,0.0,0.0,0.0,0.0,0.0,0.0,0.0,0.0,0.0,0.0,0.0,0.0,0.0,0.0,0.0,0.0,0.0,0.0,0.0,0.0,0.0,0.0,0.0,0.0,0.0,0.0,0.0,0.0,0.0,0.0,0.0,0.0,0.0,0.0,0.0,0.0,0.0,0.0,0.0,0.0,-0.046,0.2995,0.5432,0.5376,0.4634,0.4442,0.5343,0.2088,0.0,0.0,0.0,0.0,0.0,0.0,0.0,0.0,0.0,0.0,0.0,0.0,0.0,0.0,0.0,0.0,0.0,0.0,0.0,0.0,0.0,0.0,0.0,0.0,0.0,0.0,0.0,0.0,0.0,0.0,0.0,0.0,0.0,0.0,0.0,0.0,0.0,0.0,0.0,0.0,0.0,0.0,0.0,0.0,0.0,0.0,0.0,0.0,0.0,0.0,0.0,0.0,0.0,0.0,0.0,0.0,-0.0314,0.0,-0.0,-0.0707,-0.0707,0.0,0.0,-0.2426,-0.6338,-0.6338,0.0,0.0,0.0,0.0,0.0,0.0,0.0,0.0,0.0,0.0,0.0,0.0,0.0,0.0,0.0,0.0,0.0,0.0,0.0,0.0,0.0,0.0,-0.1468,-0.2454,-0.0935,0.0063,-0.2307,0.0,0.0,0.0,0.0,0.0,0.0,0.0,0.0,0.0,0.0,0.0,-0.054,0.2932,0.5432,0.5379,0.3754,0.3153,0.4386,0.1751,0.0,0.0,0.0,0.0,0.0,0.0,0.0,0.0,0.0,0.0,0.0,0.0,0.0,0.0,0.0,0.0,0.0,0.0,0.0,0.0,0.0,0.0,0.0,0.0,0.0,0.0,0.0,0.0,0.0,0.0,0.0,0.0,0.0,0.0,0.0,0.0,-0.5524,-0.5359,0.0,0.0,0.0,0.0,0.0,0.0,0.0,0.0,0.0,0.0,0.0,0.0,0.0,-0.6208,-0.6335,-0.6338,-0.6025,-0.5395,-0.1722,0.0,-0.0,-0.0157,-0.0079,0.0,0.0,0.0,-0.6338,-0.6338,0.0,0.0,0.0,0.0,0.0,0.0,0.0,0.0,0.0,0.0,0.0,0.0,0.0,0.0,0.0,0.0,0.0,0.0,0.0,0.0,0.0,0.0,-0.5413,-0.3226,-0.1734,-0.0668,-0.0193,-0.0059,0.0054,0.0371,-0.0859,-0.2332,0.0,0.0,0.0,0.0,0.0,0.0,-0.0379,0.2999,0.5369,0.5389,0.3756,0.2144,0.0808,0.027,0.0,0.0,0.0,0.0,0.0,0.0067,0.0,0.0,0.0,0.0,0.0,0.0,0.0,0.0,0.0,0.0,0.0,0.0,0.0,0.0,0.0,0.0,0.0,0.0,0.0,0.0,0.0,0.0,0.0,0.0,0.0,0.0,0.0,0.0,0.0,-0.5796,-0.6057,-0.5473,-0.5428,-0.5317,0.0,0.0,0.0,0.0,0.0,0.0,0.0,0.0,0.0,-0.6294,-0.6338,-0.6338,-0.6338,-0.6338,-0.6338,-0.6261,-0.2035,0.0,0.0,0.0,0.0,0.0,0.0,-0.2433,-0.6308,-0.6274,-0.6338,-0.6103,0.0,0.0,0.0,0.0,-0.2116,-0.1561,-0.0363,0.0,0.0,0.0,0.0,0.0,0.0,0.0,0.0,0.0,0.0,-0.3278,-0.3155,-0.3064,-0.2702,-0.147,-0.1146,-0.1012,-0.0539,-0.0065,0.0248,0.0433,-0.0177,-0.0806,-0.1114,-0.2435,0.0,0.0,0.0,0.0855,0.1267,0.369,0.5376,0.5393,0.4715,0.3094,0.027,0.0,0.0,0.0,0.0,0.0,0.0,0.0,0.0127,0.0,0.0,0.0,0.0,0.0,0.0,0.0,0.0,0.0,0.0,0.0,0.0,0.0,0.0,0.0,0.0,0.0,0.0,0.0,0.0,0.0,0.0,0.0,0.0,0.0,0.0,0.0,0.0,-0.5687,-0.6016,-0.586,-0.5552,-0.5464,0.0,0.0,0.0,0.0,0.0,0.0,-0.6338,-0.6338,-0.6338,-0.6338,-0.6338,-0.6338,-0.6338,-0.6338,-0.6338,-0.6261,-0.2035,0.0,0.0,0.0,0.0,0.0,0.0,-0.1807,-0.4737,-0.5883,-0.6338,-0.6338,-0.6338,-0.6338,-0.5789,-0.1567,0.0,0.0,0.0,0.0,0.0,0.0,0.0,0.0,0.0,0.0,0.0,0.0,0.0,-0.2398,-0.3742,-0.2062,0.0,0.0,-0.0271,-0.0607,-0.1012,-0.0539,0.0,0.0,0.0202,0.0389,0.0507,-0.0,0.0,-0.1433,0.0144,0.1588,0.1897,0.396,0.5386,0.5399,0.5406,0.3912,0.0337,0.0,0.0,0.0,0.0,0.0,0.0,0.0,0.0,0.0,0.0,0.0,0.0,0.0,0.0,0.0,0.0,0.0,0.0,0.0,0.0,0.0,0.0,0.0,0.0,0.0,0.0,0.0,0.0,0.0,0.0,0.0,0.0,0.0,0.0,0.0,0.0,0.0,0.0,-0.6665,-0.6024,0.0,0.0,0.0,0.0,-0.6254,-0.6249,-0.6338,-0.6338,-0.6338,-0.6338,-0.6338,-0.6338,-0.6338,-0.6338,-0.6338,-0.6338,-0.6261,-0.2035,0.0,0.0,0.0,0.0,0.0,0.0,-0.0157,-0.0628,-0.4613,-0.6338,-0.6338,-0.6338,-0.6338,-0.5789,-0.1567,0.0,0.0,0.0,0.0,0.0,0.0,0.0,0.0,0.0,0.0,0.0,0.0,-0.3992,-0.6658,-0.1605,-0.0145,0.0,0.0,0.0481,0.0607,-0.0809,-0.0539,0.0,0.0,0.0,0.0,0.0057,0.0,0.0312,-0.1649,-0.0844,0.0055,0.022,0.3235,0.5399,0.541,0.5413,0.3912,0.0337,0.0,0.0,0.0,0.0,0.0,0.0,0.0,0.0,0.0,0.0735,0.0,0.0,0.0,0.0,0.0,0.0,0.0,0.0,0.0,0.0,0.0,0.0,0.0,0.0,0.0,0.0,0.0,0.0,0.0,0.0,0.0,0.0,0.0,0.0,0.0,0.0,0.0,0.0,-0.597,-0.566,0.0,-0.6465,-0.6386,-0.6338,-0.6338,-0.6338,-0.6338,-0.6338,-0.6338,-0.6338,-0.6338,-0.6338,-0.6338,-0.6338,-0.6338,-0.6338,-0.6261,-0.4768,-0.2659,0.0,0.0,0.0,0.0,0.0,0.0,-0.0314,-0.4562,-0.6295,-0.6338,-0.6338,-0.6338,-0.6103,-0.4611,-0.2347,0.0,0.0,0.0,0.0,0.0,0.0,0.0,0.0,0.0,0.0,0.0,-0.1443,-0.2504,-0.0527,0.0,0.0143,0.0563,0.055,0.0404,0.0337,-0.0202,-0.0539,-0.0067,0.0,0.0,0.0,0.0189,0.0186,-0.0295,-0.0,0.0813,0.2381,0.4186,0.5119,0.4298,0.3894,0.2683,0.0201,0.0,-0.0066,-0.0311,0.209,0.2958,0.1798,0.0522,-0.013,-0.012,0.006,0.0226,0.0,0.0,0.0,0.0,0.0,0.0,0.0,0.0,0.0,0.0,0.0,0.0,0.0,0.0,0.0,0.0,0.0,0.0,0.0,0.0,0.0,0.0,0.0,0.0,0.0,-0.5971,-0.6199,-0.5459,-0.5428,-0.5669,-0.628,-0.6338,-0.6338,-0.6338,-0.6338,-0.6338,-0.6338,-0.6338,-0.6338,-0.6338,-0.6338,-0.6338,-0.6338,-0.6338,-0.6338,-0.6261,-0.4846,-0.2738,0.0,0.0,0.0,0.0,0.0,0.0,-0.0236,-0.2992,-0.4166,-0.4302,-0.573,-0.6278,-0.6338,-0.6338,-0.3597,0.0,0.0,0.0,0.0,0.0,0.0,0.0,0.0,0.0,0.0,0.0,0.0,0.0,0.0,0.015,0.0435,0.0642,0.0553,-0.0067,-0.1574,-0.1069,-0.0271,-0.0066,-0.1436,-0.2039,-0.0269,0.0529,0.1181,0.2007,0.1608,0.1806,0.3278,0.4637,0.5116,0.4292,0.3823,0.3151,0.1942,0.0652,-0.025,-0.064,0.2631,0.3998,0.266,0.1402,0.0425,-0.0107,0.117,0.1599,0.1053,0.0,0.0,0.0,0.0,0.0,0.0,0.0,0.0,0.0,0.0,0.0,0.0,0.0,0.0,0.0,0.0,0.0,0.0,0.0,0.0,0.0,0.0,0.0,-0.5428,-0.5428,-0.5428,-0.5428,-0.5428,-0.5669,-0.628,-0.6338,-0.6338,-0.6338,-0.6338,-0.6338,-0.6338,-0.618,-0.6103,-0.6103,-0.6103,-0.6153,-0.6329,-0.6153,-0.6103,-0.6025,-0.1957,0.0,0.0,0.0,0.0,0.0,0.0,0.0,0.0,0.0,0.0,-0.0393,-0.4658,-0.6264,-0.6298,-0.6204,-0.3675,-0.0154,-0.0,0.0,0.0,0.0,0.0,0.0,0.0,-0.0078,-0.0234,-0.0156,-0.0156,-0.0078,-0.0078,0.0451,0.087,0.0073,0.049,-0.0465,-0.6187,-0.3109,0.0683,0.0125,-0.4,-0.5755,-0.0733,0.1595,0.3315,0.5156,0.3897,0.0,0.2811,0.43,0.5396,0.5393,0.5393,0.5396,0.5403,0.205,-0.0291,-0.0731,0.1614,0.2838,0.2481,0.2546,0.1783,0.0193,0.41,0.4937,0.2334,0.0,0.0,0.0,0.0,0.0,0.0,0.0,0.0,0.0,0.0,0.0,0.0,0.0,0.0,0.0,0.0,0.0,0.0,0.0,0.0,0.0,-0.5872,-0.541,-0.5432,-0.5428,-0.5428,-0.5428,-0.5428,-0.5669,-0.628,-0.6338,-0.6338,-0.6338,-0.6338,-0.6338,-0.6338,-0.3363,-0.1722,-0.1722,-0.1722,-0.3358,-0.6774,-0.3413,-0.1722,-0.1722,-0.0549,0.0,0.0,0.0,0.0,0.0,0.0,0.0,0.0,0.0,0.0,-0.0393,-0.4101,-0.5546,-0.5451,-0.4606,-0.4107,-0.3471,-0.0918,0.0,0.0,0.0,0.0,0.0,0.0,-0.2606,-0.5316,-0.4041,-0.2802,-0.2008,-0.2661,-0.1293,-0.0129,-0.1975,-0.1032,0.0,-0.1048,-0.3345,-0.4247,-0.0699,0.0067,0.0914,0.3489,0.3245,0.3287,0.5113,0.4986,0.464,0.4631,0.5109,0.5379,0.5372,0.5369,0.5487,0.561,0.4809,0.3918,0.2975,0.4541,0.5071,0.4252,0.3861,0.3522,0.324,0.3258,0.3351,0.0,0.0,0.0,0.0,0.0,0.0,0.0,0.0,0.0,0.0,0.0,0.0,0.0,0.0,0.0,0.0,0.0,0.0,0.0,0.0,0.0,0.0,-0.6107,-0.5399,-0.5432,-0.5428,-0.5428,-0.5428,-0.5428,-0.5669,-0.628,-0.6338,-0.6338,-0.6338,-0.6338,-0.5553,-0.3752,-0.1332,0.0,0.0,-0.1448,-0.2813,-0.4047,-0.1358,0.0,0.0,0.0,-0.1025,-0.2872,-0.0887,0.0,0.0,0.0,0.0,0.0,0.0,0.0,-0.0236,0.0,0.0,0.0,0.0,-0.2494,-0.2761,-0.0722,0.0,0.0079,0.0393,0.055,0.0471,0.0314,-0.188,-0.4219,-0.4307,-0.3338,-0.2392,-0.2963,-0.13,0.0067,-0.1505,-0.0708,0.0507,0.0635,-0.1736,-0.3754,-0.3335,0.021,0.0,0.5464,0.3971,0.3232,0.5254,0.5426,0.5403,0.546,0.541,0.5369,0.5428,0.542,0.5498,0.5662,0.5481,0.0,0.0,0.0,0.5416,0.4823,0.4437,0.0,0.0,0.0,0.4039,0.433,0.4879,0.0,0.0,0.4352,0.5006,0.0,0.0,0.0,0.0,0.0,0.0,0.0,0.0,0.0,0.0,0.0,0.0,0.0,0.0,0.0,0.0,-0.6015,-0.5428,-0.5428,-0.5428,-0.5428,-0.5428,-0.549,-0.5744,-0.621,-0.6338,-0.6338,-0.6338,-0.6338,-0.4691,-0.0941,-0.0235,0.0,0.0,0.0,-0.3585,-0.0,0.0,0.0,0.0,0.0,-0.2154,-0.607,-0.1924,0.0,0.0,0.0,0.0,0.0,0.0,0.0,0.0,0.0,0.0,0.0,0.0,0.0,0.0,0.0,0.0,0.0,0.1021,0.1335,0.1257,0.0786,0.0701,0.0231,-0.2079,-0.2367,-0.2041,-0.1889,-0.0675,0.0223,-0.0671,0.0074,0.0797,0.0137,0.0577,-0.0372,-0.5645,-0.1368,0.3755,0.5905,0.43,0.3403,0.5438,0.5576,0.546,0.5596,0.5494,0.5476,0.5476,0.5532,0.0,0.5637,0.4986,0.447,0.4301,0.4647,0.4861,0.4807,0.4706,0.431,0.3526,0.5376,0.5879,0.4941,0.5862,0.6338,0.6244,0.5369,0.6029,0.0,0.0,0.0,0.0,0.0,0.0,0.0,0.0,0.0,0.0,0.0,0.0,0.0,0.0,0.0,-0.5206,-0.5505,-0.5428,-0.5428,-0.5428,-0.5428,-0.5428,-0.5861,-0.6208,-0.6328,-0.6338,-0.6338,-0.6338,-0.6338,-0.5944,-0.516,-0.1879,0.0,0.0,-0.3438,-0.3585,-0.0,0.0,0.0,0.0,0.0,0.0,-0.1291,-0.0382,0.0,0.0,0.0,0.0,0.0,0.0,0.0,0.0,0.0,0.0,0.0,0.0,0.0,0.0,0.0,0.0,0.0157,0.1021,0.1335,0.1257,0.1178,0.1182,0.0,0.0536,-0.1175,-0.279,-0.2102,-0.2893,-0.4276,-0.583,-0.2924,0.0154,0.0,0.0154,0.0078,-0.0382,0.146,0.3776,0.5911,0.5755,0.5467,0.5752,0.5735,0.5728,0.5755,0.5735,0.5718,0.5718,0.5742,0.581,0.5935,0.5884,0.5961,0.6057,0.6343,0.636,0.6186,0.6364,0.6284,0.5964,0.6338,0.6346,0.6044,0.619,0.6338,0.6257,0.6112,0.627,0.0,0.0,0.0,0.0,0.0,0.0,0.0,0.0,0.0,0.0,0.0,0.0,0.0,0.0,-0.0606,-0.2415,-0.422,-0.5428,-0.5428,-0.5428,-0.5428,-0.5428,-0.5967,-0.6338,-0.6338,-0.6338,-0.6338,-0.6338,-0.6338,-0.6338,-0.6338,-0.227,0.0,0.0,-0.1711,-0.1819,-0.0,0.0,0.0,0.0,0.0,0.0,0.0,0.0,0.0,0.0,0.0,0.0,0.0,0.0,0.0,0.0,0.0,0.0,0.0,0.0,0.0,0.0079,0.0471,0.0629,0.0629,0.0629,0.0628,0.0707,0.0864,0.0984,0.0938,0.0928,-0.0136,-0.1172,-0.0781,-0.1294,-0.2143,-0.2969,-0.1588,0.0,0.0,0.0,0.0157,0.055,0.1957,0.3816,0.5963,0.6256,0.6155,0.5928,0.585,0.583,0.5905,0.5847,0.58,0.58,0.5871,0.5945,0.6023,0.6173,0.6329,0.6405,0.6563,0.6563,0.649,0.6563,0.6563,0.649,0.6412,0.6412,0.6338,0.6338,0.6338,0.6338,0.6338,0.6338,0.0,0.0,0.0,0.0,0.0,0.0,0.0,-0.3895,-0.347,-0.0571,0.0,0.0,0.0,0.0,-0.0201,-0.0784,-0.3434,-0.5428,-0.5428,-0.5428,-0.5428,-0.5428,-0.5967,-0.6338,-0.6338,-0.6338,-0.6338,-0.6338,-0.6634,-0.6296,-0.5151,-0.1879,0.0,0.0,0.0,0.0,0.0,0.0,0.0,0.0,0.0,0.0,0.0,0.0,0.0,0.0,0.0,0.0,0.0,0.0,0.0,0.0,0.0,0.0,0.0,0.0,0.0079,0.0314,0.0864,0.1021,0.0943,0.0236,0.0,0.0079,0.0393,0.0471,0.0471,0.0471,0.0471,0.0471,0.0471,0.0786,0.1021,0.1021,0.055,0.0,0.0,0.0,0.0236,0.1099,0.227,0.3752,0.5892,0.6274,0.6217,0.6095,0.5969,0.5935,0.6057,0.5966,0.5891,0.5891,0.6,0.6074,0.6074,0.619,0.6338,0.6338,0.6338,0.6338,0.6338,0.6338,0.6338,0.6338,0.6338,0.6338,0.6338,0.6338,0.6338,0.6338,0.6338,0.6338,0.9658,0.3653,-0.2066,-0.3383,-0.1777,-0.0,0.0,-0.0533,-0.0449,-0.0067,0.0,0.0,0.0,0.0,-0.0846,-0.3543,-0.4761,-0.5428,-0.5428,-0.5428,-0.5428,-0.5428,-0.5967,-0.6338,-0.6338,-0.6338,-0.6338,-0.6338,-0.7703,-0.6258,-0.1009,-0.0235,0.0,0.0,0.0,0.0,0.0,0.0,0.0,0.0,0.0,0.0,0.0,0.0,0.0,0.0,0.0,0.0,0.0,0.0,0.0,0.0,0.0,0.0,0.0,0.0,0.0471,0.1021,0.0393,0.0157,0.0157,0.0,0.0,0.0,0.0079,0.0079,0.0079,0.0079,0.0079,0.0079,0.0079,0.0079,0.0157,0.0157,0.0079,0.0,0.0,0.0,0.1099,0.4888,0.4238,0.375,0.596,0.6271,0.6254,0.6237,0.622,0.6213,0.6234,0.622,0.621,0.621,0.6227,0.6234,0.6234,0.6251,0.6338,0.6338,0.6338,0.6338,0.6338,0.6338,0.6338,0.6338,0.6338,0.6338,0.6338,0.6338,0.6338,0.6338,0.6338,0.6338,0.2455,-0.1253,-0.3986,-0.2255,-0.1179,-0.0449,-0.0056,0.0,0.0,0.0,0.0,0.0,0.0,0.0,-0.0398,-0.1699,-0.3831,-0.5428,-0.5428,-0.5428,-0.5428,-0.5428,-0.5652,-0.5947,-0.6304,-0.6338,-0.6338,-0.6338,-0.4676,-0.263,-0.0156,0.0,0.0,0.0,0.0,0.0,0.0,0.0,0.0,0.0,0.0,0.0,0.0,0.0,0.0,0.0,0.0,0.0,0.0,0.0,0.0,0.0,0.0,0.0314,0.0786,0.0786,0.0629,0.0471,0.0157,0.0,0.0,0.0,0.0,0.0,0.0,0.0,0.0,0.0,0.0,0.0,0.0,0.0,0.0,0.0,0.0,0.0,0.0,0.1963,0.4173,0.593,0.5584,0.5246,0.6119,0.6268,0.6338,0.6338,0.6338,0.6338,0.6338,0.6338,0.6338,0.6338,0.6338,0.6338,0.6338,0.6338,0.6338,0.6338,0.6338,0.6338,0.6338,0.6338,0.6338,0.6338,0.6338,0.6338,0.6338,0.6338,0.6338,0.6338,0.6338,0.6338,-0.3334,-0.4739,-0.479,-0.0735,-0.0224,-0.0561,-0.0112,0.0,0.0,0.0,0.0,0.0,0.0,-0.1305,-0.1866,-0.0268,-0.3015,-0.5428,-0.5428,-0.5428,-0.5428,-0.5428,-0.5428,-0.5801,-0.6855,-0.6585,-0.5789,-0.4613,-0.1722,0.0,0.0,0.0,0.0,0.0,0.0,0.0,0.0,0.0,0.0,0.0,0.0,0.0,0.0,0.0,0.0,0.0,0.0,0.0,0.0,0.0,0.0157,0.0314,0.0079,0.055,0.1257,0.1021,0.055,0.0,0.0,0.0,0.0,0.0,0.0,0.0,0.0,0.0,0.0,0.0,0.0,0.0,0.0,0.0,0.0,0.0,0.0,0.0314,0.1492,0.4173,0.6325,0.6318,0.6295,0.6278,0.6274,0.6268,0.6338,0.6338,0.6338,0.6338,0.6338,0.6338,0.6338,0.6338,0.6338,0.6338,0.6338,0.6338,0.6338,0.6338,0.6338,0.6338,0.6338,0.6338,0.6338,0.6338,0.6338,0.6338,0.6338,0.6338,0.6338,0.6338,0.6338,0.6338,-0.4864,-0.6069,-0.5699,-0.0429,0.0393,-0.0,-0.0,0.0,0.0,0.0,0.0,0.0,0.0,-0.4697,-0.668,-0.0922,-0.3015,-0.5428,-0.5428,-0.5428,-0.5428,-0.5428,-0.5428,-0.6266,-0.8517,-0.7274,-0.4611,-0.0471,-0.0079,0.0,0.0,0.0,0.0,0.0,0.0,0.0,0.0,0.0,0.0,0.0,0.0,0.0,0.0,0.0,0.0,0.0,0.0,0.0,0.0,0.0,0.0471,0.1178,0.0314,0.055,0.1178,0.0314,0.0,0.0,0.0,0.0,0.0,0.0,0.0,0.0,0.0,0.0,0.0,0.0,0.0,0.0,0.0,0.0,0.0,0.0,0.0,0.1099,0.5207,0.6247,0.6318,0.6288,0.6278,0.6274,0.6264,0.6338,0.6338,0.6338,0.6338,0.6338,0.6338,0.6338,0.6338,0.6338,0.6338,0.6338,0.6338,0.6338,0.6338,0.6338,0.6338,0.6338,0.6338,0.6338,0.6338,0.6338,0.6338,0.6338,0.6338,0.6338,0.6338,0.6338,0.6338,0.6338,-0.4466,-0.2981,-0.1409,-0.0055,0.0449,0.0505,0.0112,0.0,0.0,0.0,0.0,0.0,0.0,-0.4802,-0.8141,-0.6173,-0.5575,-0.5428,-0.5428,-0.5428,-0.5977,-0.7502,-0.7662,-0.7931,-0.8738,-0.4739,-0.1567,-0.0079,0.0,0.0,0.0,0.0,0.0,0.0,0.0,0.0,0.0,0.0,0.0,0.0,0.0,0.0,0.0,0.0,0.0,0.0,0.0,0.0,0.0,0.0,0.0157,0.0471,0.0786,0.0707,0.0393,0.0079,0.0,0.0,0.0,0.0,0.0,0.0,0.0,0.0,0.0,0.0,0.0,0.0,0.0,0.0,0.0,0.0,0.0,0.0,0.2121,0.457,0.6009,0.6312,0.6291,0.6281,0.6271,0.6268,0.6338,0.6338,0.6338,0.6338,0.6338,0.6338,0.6338,0.6338,0.6338,0.6338,0.6338,0.6338,0.6338,0.6338,0.6338,0.6338,0.6338,0.6338,0.6338,0.6338,0.6338,0.6338,0.6338,0.6338,0.6338,0.6338,0.6338,0.6338,0.6338,0.6338,-0.2905,-0.0731,0.0505,0.0112,0.028,0.0561,0.0336,0.0336,0.028,0.0056,0.0,0.0,0.0,-0.3095,-0.6322,-0.8479,-0.6903,-0.5428,-0.5428,-0.5428,-0.546,-0.5655,-0.7502,-0.8771,-0.8771,-0.3485,-0.0721,-0.238,-0.2927,-0.2236,-0.0078,0.0,0.0,0.0,0.0,0.0,0.0,0.0,0.0,0.0,0.0,0.0,0.0,0.0,0.0,0.0,0.0,0.0,0.0,0.0314,0.0314,0.0079,0.0628,0.0707,0.0393,0.0079,0.0,0.0,0.0,0.0,0.0,0.0,0.0,0.0,0.0,0.0,0.0,0.0,0.0,0.0,0.0,0.0,0.0,0.0,0.3224,0.6329,0.6318,0.6298,0.6278,0.6274,0.6268,0.6338,0.6338,0.6338,0.6338,0.6338,0.6338,0.6338,0.6338,0.6338,0.6338,0.6338,0.6338,0.6338,0.6338,0.6338,0.6338,0.6338,0.6338,0.6338,0.6338,0.6338,0.6338,0.6338,0.6338,0.6338,0.6338,0.6338,0.6338,0.6338,0.6338,0.6338,-0.0536,0.0449,0.0,0.0,0.0,0.0168,0.0729,0.0842,0.0673,0.0112,0.0,-0.0112,-0.0391,-0.0433,-0.2236,-0.7758,-0.681,-0.5428,-0.5428,-0.5428,-0.4084,-0.0404,-0.4962,-0.8353,-0.8353,-0.3316,-0.1947,-0.674,-0.7898,-0.5904,-0.0311,0.0,0.0,0.0,0.0,0.0,0.0,0.0,0.0,0.0,0.0,0.0,0.0,0.0,0.0,0.0,0.0,0.0,0.0079,0.0864,0.0786,0.0079,0.0,0.0471,0.11,0.0314,0.0,0.0,0.0,0.0,0.0,0.0,0.0,0.0,0.0,0.0,0.0,0.0,0.0,0.0079,0.0236,0.0314,0.0314,0.0157,0.3301,0.6322,0.6298,0.6285,0.6274,0.6264,0.6338,0.6338,0.6338,0.6338,0.6338,0.6338,0.6338,0.6338,0.6338,0.6338,0.6338,0.6338,0.6338,0.6338,0.6338,0.6338,0.6338,0.6338,0.6338,0.6338,0.6338,0.6338,0.6338,0.6338,0.6338,0.6338,0.6338,0.6338,0.6338,0.6338,0.6338,0.6338,-0.0774,0.0112,0.0,0.0,0.0,0.0056,0.0168,0.0224,0.0168,0.0056,0.0,-0.1335,-0.5761,-0.6548,-0.6495,-0.6316,-0.5776,-0.5428,-0.5428,-0.5428,-0.4084,-0.0404,-0.1349,-0.2228,-0.2228,-0.0877,-0.2302,-0.7921,-0.4574,-0.1553,-0.0078,0.0,0.0,0.0,0.0,0.0,0.0,0.0,0.0,0.0,0.0,0.0,0.0,0.0,0.0,0.0,0.0,0.0,0.0,0.0236,0.055,0.0943,0.0236,0.0157,0.0314,0.0079,0.0,0.0,0.0,0.0,0.0,0.0,0.0,0.0,0.0,0.0,0.0,0.0,0.0,0.0707,0.3857,0.4729,0.4328,0.266,0.4387,0.6291,0.6285,0.6274,0.6264,0.6338,0.6338,0.6338,0.6338,0.6338,0.6338,0.6338,0.6338,0.6338,0.6338,0.6338,0.6338,0.6338,0.6338,0.6338,0.6338,0.6338,0.6338,0.6338,0.6338,0.6338,0.6338,0.6338,0.6338,0.6338,0.6338,0.6338,0.6338,0.6338,0.6338,0.6338,0.6338,0.6338,-0.0392,0.0,0.0,0.0,0.0,0.0,0.0,-0.2653,-0.5004,-0.472,-0.4664,-0.5846,-0.9866,-1.0592,-0.9766,-0.7289,-0.6073,-0.5428,-0.5428,-0.5428,-0.4622,-0.2614,-0.0941,0.0,0.0,0.0,-0.1349,-0.4686,-0.4268,-0.2759,-0.0156,0.0,0.0,0.0,0.0,0.0,0.0,0.0,0.0,0.0,0.0,0.0,0.0,0.0,0.0,0.0,0.0,0.0,0.0,0.0,0.0314,0.0707,0.0628,0.0314,0.0,0.0,0.0,0.0,0.0,0.0,0.0,0.0,0.0,0.0,0.0,0.0,0.0,0.0,0.1335,0.3303,0.5686,0.6322,0.5989,0.4781,0.5407,0.6278,0.6278,0.6271,0.6338,0.6338,0.6338,0.6338,0.6338,0.6338,0.6338,0.6338,0.6338,0.6338,0.6338,0.6338,0.6338,0.6338,0.6338,0.6338,0.6338,0.6338,0.6338,0.6338,0.6338,0.6338,0.6338,0.6338,0.6338,0.6338,0.6338,0.6338,0.6338,0.6338,0.6338,0.6338,0.6338,0.6567,0.0168,0.0,0.0,0.0,0.0,0.0,0.0,-0.5126,-1.017,-1.1058,-1.1233,-1.1668,-1.3006,-1.3213,-1.2157,-0.8897,-0.6669,-0.5428,-0.5428,-0.5428,-0.5428,-0.5428,-0.2214,0.0,0.0,0.0,-0.0334,-0.1115,-0.5195,-0.5395,-0.0311,0.0,0.0,0.0,0.0,0.0,0.0,0.0,0.0,0.0,0.0,0.0,0.0,0.0,0.0,0.0,0.0,-0.039,-0.0847,-0.0234,0.0,0.0077,0.086,0.0629,0.0,0.0,0.0,0.0,0.0,0.0,0.0,0.0,0.0,0.0,0.0,0.0,0.0079,0.0707,0.3461,0.6329,0.6325,0.6308,0.6291,0.6291,0.6285,0.6278,0.6278,0.6268,0.6338,0.6338,0.6338,0.6338,0.6338,0.6338,0.6338,0.6338,0.6338,0.6338,0.6338,0.6338,0.6338,0.6338,0.6338,0.6338,0.6338,0.6338,0.6338,0.6338,0.6338,0.6338,0.6338,0.6338,0.6338,0.6338,0.6338,0.6338,0.6338,0.6338,0.6338,0.6338,0.6412,0.6945,0.0056,0.0,0.0,0.0,0.0,0.0,0.0,-0.068,-0.3823,-1.2722,-1.456,-1.4653,-1.4906,-1.4971,-1.3014,-0.6953,-0.5683,-0.5428,-0.5428,-0.5428,-0.5428,-0.5428,-0.2214,0.0,0.0,0.0,-0.2053,-0.6931,-0.3701,-0.1056,-0.0078,0.0,0.0,0.0,0.0,0.0,0.0,0.0,0.0,0.0,0.0,0.0,0.0,0.0,0.0,0.0,0.0,-0.2171,-0.5517,-0.1593,0.0,0.0,0.0153,0.0157,0.0,0.0,0.0,0.0,0.0,0.0,0.0,0.0,0.0,0.0,0.0,0.0,0.0707,0.4252,0.5767,0.6322,0.6295,0.6285,0.6278,0.6271,0.6268,0.6264,0.6264,0.6264,0.6338,0.6338,0.6338,0.6338,0.6338,0.6338,0.6338,0.6338,0.6338,0.6338,0.6338,0.6338,0.6338,0.6338,0.6338,0.6338,0.6338,0.6338,0.6338,0.6338,0.6338,0.6338,0.6338,0.6338,0.6338,0.6338,0.6338,0.6338,0.6338,0.6338,0.6338,0.6338,0.7176,0.7629,0.0,0.0,0.0,0.0,0.0,0.0,0.0,0.0224,-0.2606,-1.3238,-1.541,-1.541,-1.541,-1.541,-1.4337,-1.1138,-1.0574,-1.0039,-0.8339,-0.6535,-0.5428,-0.5428,-0.3885,-0.208,-0.0202,-0.2771,-0.5776,-0.8571,-0.3313,0.0,0.0,0.0,0.0,0.0,0.0,0.0,0.0,0.0,0.0,0.0,0.0,0.0,0.0,0.0,0.0,0.0,0.0,-0.0993,-0.271,-0.3396,-0.223,0.0,0.0,0.0,0.0,0.0,0.0,0.0,0.0,0.0,0.0,0.0,0.0,0.0393,0.2594,0.3303,0.3459,0.4399,0.5425,0.6298,0.6285,0.6274,0.6268,0.6264,0.6338,0.6338,0.6338,0.6338,0.6338,0.6338,0.6338,0.6338,0.6338,0.6338,0.6338,0.6338,0.6338,0.6338,0.6338,0.6338,0.6338,0.6338,0.6338,0.6338,0.6338,0.6338,0.6338,0.6338,0.6338,0.6338,0.6338,0.6338,0.6338,0.6338,0.6338,0.6338,0.6338,0.6338,0.6567,0.7099,0.7553,0.8385,-0.0391,0.0,0.0,0.0,0.0,0.0,0.0,-0.1307,-0.5046,-1.4079,-1.5674,-1.541,-1.541,-1.541,-1.541,-1.541,-1.541,-1.4501,-1.1958,-0.8001,-0.5428,-0.5428,-0.5822,-0.5014,-0.2187,-0.6102,-0.8302,-0.7002,-0.2594,0.0,0.0,0.0,0.0,0.0,0.0,0.0,0.0,0.0,0.0,0.0,0.0,0.0,0.0,0.0,0.0,0.0,0.0,0.0389,0.069,-0.3521,-0.3746,-0.1382,-0.039,0.0,0.0,0.0,0.0,0.0,0.0,0.0628,0.1335,0.1335,0.1335,0.1963,0.5288,0.6325,0.5918,0.4226,0.501,0.6278,0.6274,0.6268,0.6338,0.6338,0.6338,0.6338,0.6338,0.6338,0.6338,0.6338,0.6338,0.6338,0.6338,0.6338,0.6338,0.6338,0.6338,0.6338,0.6338,0.6338,0.6338,0.6338,0.6338,0.6338,0.6338,0.6338,0.6338,0.6338,0.6338,0.6338,0.6338,0.6338,0.6338,0.6338,0.6338,0.6338,0.6338,0.649,0.7022,0.7783,0.8237,0.9286,-0.1609,0.0,0.0,0.0,0.0,0.0,0.0,-0.5447,-1.1929,-1.6788,-1.6514,-1.541,-1.541,-1.541,-1.541,-1.541,-1.541,-1.5294,-1.4982,-0.9466,-0.5428,-0.5428,-0.7254,-0.8352,-0.8003,-0.8511,-0.6601,-0.1192,-0.0295,0.0,0.0,0.0,0.0,0.0,0.0,0.0,0.0,0.0,0.0,0.0,0.0,0.0,0.0,0.0,0.0,0.0,0.0,0.0075,0.0141,0.0458,-0.2185,-0.5937,-0.1681,0.0,0.0,0.0,0.0,0.0,0.0,0.2515,0.5689,0.5689,0.5689,0.5767,0.6169,0.6315,0.6295,0.6041,0.6119,0.6278,0.6264,0.6338,0.6338,0.6338,0.6338,0.6338,0.6338,0.6338,0.6338,0.6338,0.6338,0.6338,0.6338,0.6338,0.6338,0.6338,0.6338,0.6338,0.6338,0.6338,0.6338,0.6338,0.6338,0.6338,0.6338,0.6338,0.6338,0.6338,0.6338,0.6338,0.6338,0.6338,0.6338,0.6338,0.6338,0.6338,0.6338,0.7253,0.7706,0.7859,0.9658,1.0634,-0.2093,0.0,0.0,0.0,0.0,0.0,0.0,-0.7191,-1.4664,-1.7446,-1.7461,-1.665,-1.5605,-1.541,-1.541,-1.541,-1.541,-1.4737,-1.281,-0.8436,-0.621,-0.8285,-0.8663,-0.8824,-0.8784,-0.5559,-0.3986,-0.5199,-0.5279,-0.3736,-0.0156,0.0,0.0,0.0,0.0,0.0,0.0,0.0,0.0,0.0,0.0,0.0,0.0,0.0,0.0,0.0,0.0,-0.067,-0.1642,-0.0076,-0.0223,-0.0956,0.2498,0.2982,0.1877,0.1877,0.1877,0.1877,0.1877,0.2974,0.4553,0.5908,0.6305,0.6298,0.6298,0.6291,0.6285,0.6271,0.6268,0.6268,0.6264,0.6338,0.6338,0.6338,0.6338,0.6338,0.6338,0.6338,0.6338,0.6338,0.6338,0.6338,0.6338,0.6338,0.6338,0.6338,0.6338,0.6338,0.6338,0.6338,0.6338,0.6338,0.6338,0.6338,0.6338,0.6338,0.6338,0.6338,0.6338,0.6338,0.6338,0.6338,0.6338,0.6338,0.6338,0.6567,0.7176,0.7629,0.8461,0.9658,1.0409,1.1087,-0.236,0.0,0.0,0.0,0.0,0.0,0.0,-0.8012,-1.5908,-1.7656,-1.8008,-1.748,-1.5732,-1.541,-1.541,-1.541,-1.3767,-1.1667,-0.9366,-0.7832,-0.7832,-1.0301,-0.8002,-0.61,-0.5872,-0.2093,-0.142,-0.555,-0.5857,-0.408,0.0075,0.0387,0.0236,0.0,0.0,0.0,0.0,0.0,0.0,0.0,0.0236,0.0393,0.0393,0.0236,-0.0156,-0.0615,-0.0078,-0.0955,-0.2638,-0.0748,0.1106,0.2898,0.5373,0.5349,0.4068,0.4068,0.4068,0.4068,0.4068,0.4066,0.43,0.5808,0.6285,0.6274,0.6274,0.6274,0.6271,0.6264,0.6338,0.6338,0.6338,0.6338,0.6338,0.6338,0.6338,0.6338,0.6338,0.6338,0.6338,0.6338,0.6338,0.6338,0.6338,0.6338,0.6338,0.6338,0.6338,0.6338,0.6338,0.6338,0.6338,0.6338,0.6338,0.6338,0.6338,0.6338,0.6338,0.6338,0.6338,0.6338,0.6338,0.6338,0.6338,0.6338,0.6567,0.7099,0.7783,0.8385,0.9437,1.0783,1.1087,1.162,-0.236,0.0,0.0,0.0,0.0,0.0,0.0,-0.8012,-1.5908,-1.7656,-1.8008,-1.748,-1.5732,-1.541,-1.541,-1.541,-0.9831,-0.5491,-0.5425,-0.8415,-1.0561,-1.0624,-0.4366,0.0202,0.0942,0.1076,0.1075,0.1006,0.1006,0.1007,0.1077,0.1192,0.0864,0.0,0.0,0.0,0.0,0.0,0.0,0.0,0.0864,0.1257,0.1257,0.0786,-0.0382,-0.2045,-0.023,-0.0647,-0.2489,-0.0589,0.1327,0.3311,0.5439,0.6295,0.6295,0.6295,0.6295,0.6295,0.6295,0.6288,0.6278,0.6278,0.6271,0.6338,0.6338,0.6338,0.6338,0.6338,0.6338,0.6338,0.6338,0.6338,0.6338,0.6338,0.6338,0.6338,0.6338,0.6338,0.6338,0.6338,0.6338,0.6338,0.6338,0.6338,0.6338,0.6338,0.6338,0.6338,0.6338,0.6338,0.6338,0.6338,0.6338,0.6338,0.6338,0.6338,0.6338,0.6338,0.6338,0.6338,0.6338,0.6338,0.6338,0.6338,0.7249,0.7783,0.7783,0.9809,1.0783,1.0783,1.1848,1.2298,-0.8808,-0.9519,-1.1195,-1.1195,-1.1195,-1.1195,-1.1195,-1.4328,-1.7344,-1.79,-1.8008,-1.7842,-1.7285,-1.6211,-1.541,-1.541,-0.9769,-0.5428,-0.5428,-0.8415,-1.0597,-1.062,-0.3894,-0.1462,-0.7063,-0.2781,0.0337,0.0337,0.0808,0.1078,0.1078,0.1254,0.1173,0.0862,0.0314,0.0,0.0,0.0,0.0314,0.0864,0.055,0.0707,0.1257,0.1178,0.0779,0.0077,-0.1952,-0.3134,-0.3058,0.2189,0.2993,0.1285,0.4857,0.6278,0.6271,0.6271,0.6271,0.6271,0.6271,0.6271,0.6268,0.6268,0.6264,0.6338,0.6338,0.6338,0.6338,0.6338,0.6338,0.6338,0.6338,0.6338,0.6338,0.6338,0.6338,0.6338,0.6338,0.6338,0.6338,0.6338,0.6338,0.6338,0.6338,0.6338,0.6338,0.6338,0.6338,0.6338,0.6338,0.6338,0.6338,0.6338,0.6338,0.6338,0.6338,0.6338,0.6338,0.6338,0.6338,0.6338,0.6338,0.6945,0.7326,0.7326,0.8313,0.914,0.9884,1.0484,1.1162,1.1842,1.215,1.2305,-1.3033,-1.451,-1.6019,-1.6019,-1.6019,-1.6019,-1.6019,-1.6566,-1.7217,-1.7871,-1.749,-1.7031,-1.7031,-1.6143,-1.541,-1.541,-1.189,-0.8723,-0.7562,-0.6941,-0.7577,-1.0305,-0.3889,-0.1263,-0.6342,-0.5322,-0.3181,-0.0202,0.0404,0.0674,0.0674,0.0742,0.0835,0.0816,0.0617,0.0471,0.0471,0.0157,0.0471,0.1257,0.0786,0.0628,0.0786,0.0943,0.1321,0.1604,-0.0701,-0.1846,0.0,0.3649,0.407,0.1661,0.5006,0.6268,0.6338,0.6338,0.6338,0.6338,0.6338,0.6338,0.6338,0.6338,0.6338,0.6338,0.6338,0.6338,0.6338,0.6338,0.6338,0.6338,0.6338,0.6338,0.6338,0.6338,0.6338,0.6338,0.6338,0.6338,0.6338,0.6338,0.6338,0.6338,0.6338,0.6338,0.6338,0.6338,0.6338,0.6338,0.6338,0.6338,0.6338,0.6338,0.6338,0.6338,0.6338,0.6338,0.6338,0.6338,0.6338,0.649,0.6872,0.748,0.8008,0.8389,0.9367,1.019,1.0783,1.1162,1.1694,1.2305,1.2305,1.2305,0.0,-1.5322,-1.541,-1.541,-1.541,-1.541,-1.541,-1.541,0.0,-1.749,-1.6128,-1.4709,-1.4709,-1.4914,-1.4904,-1.4341,-1.4876,-1.4382,-1.1351,-0.4623,-0.2465,-0.9087,-0.404,0.0067,0.0201,-0.6407,-0.7728,-0.0538,0.0,0.0,0.0,0.0,0.0,0.0,0.0815,0.117,0.1178,0.0471,0.0391,0.101,0.1175,0.0862,0.0234,0.0784,0.1607,0.2634,0.2674,0.2068,0.1234,0.3717,0.4312,0.3828,0.5635,0.6338,0.6338,0.6338,0.6338,0.6338,0.6338,0.6338,0.6338,0.6338,0.6338,0.6338,0.6338,0.6338,0.6338,0.6338,0.6338,0.6338,0.6338,0.6338,0.6338,0.6338,0.6338,0.6338,0.6338,0.6338,0.6338,0.6338,0.6338,0.6338,0.6338,0.6338,0.6338,0.6338,0.6338,0.6338,0.6338,0.6338,0.6338,0.6338,0.6338,0.6338,0.6338,0.6338,0.6338,0.6338,0.6338,0.6795,0.7783,0.7931,0.8466,0.9372,1.0415,1.0938,1.0938,1.1842,1.2305,1.2305,1.2305,1.2305,-1.3369,0.0,-1.541,-1.541,-1.541,-1.541,0.0,-1.541,-1.5527,-1.5937,-1.1597,-0.7772,-0.7772,-0.9964,-0.9762,-0.3776,-0.9875,-1.5108,-1.4382,-0.6037,-0.0605,-0.2265,-0.1006,-0.2261,-0.8037,-0.4522,-0.133,-0.0067,0.0,0.0,0.0,0.0,0.0,0.0,0.0207,0.0291,0.0314,0.0786,0.0076,-0.1742,-0.0378,0.0846,0.2,0.4022,0.4613,0.3989,0.131,0.0695,0.1611,0.2165,0.2654,0.3301,0.5442,0.6338,0.6338,0.6338,0.6338,0.6338,0.6338,0.6338,0.6338,0.6338,0.6338,0.6338,0.6338,0.6338,0.6338,0.6338,0.6338,0.6338,0.6338,0.6338,0.6338,0.6338,0.6338,0.6338,0.6338,0.6338,0.6338,0.6338,0.6338,0.6338,0.6338,0.6338,0.6338,0.6338,0.6338,0.6338,0.6338,0.6338,0.6338,0.6338,0.6338,0.6338,0.6338,0.6338,0.6338,0.6338,0.7022,0.7557,0.7783,0.9286,1.0185,1.0415,1.1471,1.1922,1.1922,1.215,1.2305,1.2305,1.2305,1.2305,-1.2881,-1.4121,-1.541,-1.541,-1.541,-1.541,-1.541,-1.541,-1.541,-1.541,-1.2506,-1.0019,-1.0019,-1.1505,-0.9339,0.1324,-0.6101,-1.1936,-0.8307,-0.6121,-0.4891,-0.4891,-0.514,-0.5452,-0.5758,-0.1924,0.0404,0.0,0.0,0.0,0.0,0.0,0.0,0.0,0.0,0.0,0.0,0.0471,0.1144,0.2013,0.2616,0.2876,0.2856,0.5206,0.5944,0.5064,0.1851,0.1749,0.3723,0.2643,0.3166,0.4692,0.5841,0.6338,0.6338,0.6338,0.6338,0.6338,0.6338,0.6338,0.6338,0.6338,0.6338,0.6338,0.6338,0.6338,0.6338,0.6338,0.6338,0.6338,0.6338,0.6338,0.6338,0.6338,0.6338,0.6338,0.6338,0.6338,0.6338,0.6338,0.6338,0.6338,0.6338,0.6338,0.6338,0.6338,0.6338,0.6338,0.6338,0.6338,0.6338,0.6338,0.6338,0.649,0.6949,0.7022,0.7022,0.7022,0.7931,0.8689,0.9135,1.0185,1.1013,1.1465,1.1996,1.2305,1.2305,1.2305,1.2305,1.2305,1.2305,1.2305,-1.2881,-1.3926,-1.5088,-1.5352,-1.541,-1.541,-1.541,0.0,0.0,0.0,0.0,0.0,-1.541,-1.541,-1.1376,0.0844,-0.3307,-0.5743,0.0868,-0.3863,-0.8021,-0.8021,-1.0014,-0.8175,0.0134,0.0337,0.0,0.0,0.0,0.0,0.0,0.0,0.0,0.0,0.0,0.0,0.0,0.0623,0.2898,0.6835,0.6549,0.5232,0.3242,0.5315,0.62,0.5871,0.3102,0.3622,0.6064,0.379,0.4329,0.6563,0.6338,0.6338,0.6338,0.6338,0.6338,0.6338,0.6338,0.6338,0.6338,0.6338,0.6338,0.6338,0.6338,0.6338,0.6338,0.6338,0.6338,0.6338,0.6338,0.6338,0.6338,0.6338,0.6338,0.6338,0.6338,0.6338,0.6338,0.6338,0.6338,0.6338,0.6338,0.6338,0.6338,0.6338,0.6338,0.6338,0.6338,0.6338,0.6338,0.6338,0.6338,0.6718,0.7706,0.7936,0.8084,0.8237,0.9069,0.997,1.1013,1.1013,1.1465,1.2298,1.2305,1.2305,1.2305,1.2305,1.2305,1.2305,1.2305,1.2305,-1.2881,-1.3076,-1.3613,-1.5059,-1.541,-1.541,-1.541,-1.541,0.0,0.0,0.0,0.0,-1.541,-1.541,-1.3996,-0.9718,-0.1805,0.4032,0.4683,0.4177,0.3818,0.3818,-0.4785,-0.7891,-0.0537,0.0067,0.0,0.0,0.0,0.0,0.0,0.0,0.0,0.0,0.0,0.0,0.0,0.3527,0.4846,0.3828,0.5867,0.5582,0.3435,0.5375,0.619,0.5854,0.3646,0.3968,0.5915,0.3712,0.4187,0.6338,0.6338,0.6338,0.6338,0.6338,0.6338,0.6338,0.6338,0.6338,0.6338,0.6338,0.6338,0.6338,0.6338,0.6338,0.6338,0.6338,0.6338,0.6338,0.6338,0.6338,0.6338,0.6338,0.6338,0.6338,0.6338,0.6338,0.6338,0.6338,0.6338,0.6338,0.6338,0.6338,0.6338,0.6338,0.6338,0.6338,0.6338,0.6338,0.6338,0.6338,0.6338,0.6718,0.7706,0.8618,0.9442,1.026,1.0484,1.1013,1.1996,1.207,1.215,1.2305,1.2305,1.2305,1.2305,1.2305,1.2305,1.2305,1.2305,1.2305,-1.2881,-1.2881,-1.3291,-1.499,-1.1185,-0.7089,-0.7089,-1.0066,-1.3295,0.0,0.0,-1.541,-1.541,-1.3957,-1.2512,-1.174,-0.1808,0.576,0.5428,0.039,-0.1033,0.5127,-0.0131,-0.3177,-0.0269,0.0,0.0,0.0,0.0,0.0,0.0,0.0,0.0,0.0,0.0,0.0941,0.2882,0.4994,0.5635,0.4844,0.6032,0.603,0.5124,0.596,0.6135,0.5808,0.368,0.3893,0.562,0.359,0.4069,0.6142,0.623,0.6338,0.6338,0.6338,0.6338,0.6338,0.6338,0.6338,0.6338,0.6338,0.6338,0.6338,0.6338,0.6338,0.6338,0.6338,0.6338,0.6338,0.6338,0.6338,0.6338,0.6338,0.6338,0.6338,0.6338,0.6338,0.6338,0.6338,0.6338,0.6338,0.6338,0.6338,0.6338,0.6338,0.6338,0.6338,0.6338,0.6338,0.6338,0.6338,0.6795,0.7557,0.8542,0.9518,1.0565,1.1545,1.162,1.1848,1.2305,1.2305,1.2305,1.2305,1.2305,1.2305,1.2305,1.2305,1.2305,1.2305,1.2305,1.2305,-1.2881,-1.2881,-1.3193,-1.4492,-0.7321,0.0,0.0,-0.4103,-0.8557,-1.1063,-1.1533,-1.1533,-1.1533,-1.116,-1.0097,-0.7765,-0.0195,0.5428,0.5428,-0.2004,-0.4519,0.3195,0.2214,0.0605,0.0067,0.0,0.0,0.0,0.0,0.0,0.0,0.0,0.0,0.0,0.0807,0.2614,0.5362,0.5586,0.5864,0.6193,0.6314,0.6412,0.649,0.6338,0.6091,0.5714,0.4138,0.4308,0.551,0.4089,0.452,0.6044,0.62,0.6338,0.6338,0.6338,0.6338,0.6338,0.6338,0.6338,0.6338,0.6338,0.6338,0.6338,0.6338,0.6338,0.6338,0.6338,0.6338,0.6338,0.6338,0.6338,0.6338,0.6338,0.6338,0.6338,0.6338,0.6338,0.6338,0.6338,0.6338,0.6338,0.6338,0.6338,0.6338,0.6338,0.6338,0.6338,0.6338,0.6338,0.6416,0.6641,0.7326,0.8313,0.9518,1.0565,1.1465,1.2224,1.2305,1.2305,1.2305,1.2305,1.2305,1.2305,1.2305,1.2305,1.2305,1.2305,1.2305,1.2305,1.2305,1.2305,-1.2881,-1.2881,-1.291,-1.3027,-0.6492,0.0,0.0,0.0135,0.0201,-0.0067,-0.0067,-0.0067,-0.0067,-0.6334,-0.7891,0.3279,0.5269,0.5428,0.5428,0.5259,0.3919,0.0739,0.0202,0.0067,0.0,0.0,0.0,0.0,0.0,0.0,0.0,0.0,0.0,0.0,0.3284,0.516,0.5428,0.5449,0.5658,0.606,0.6246,0.6338,0.6338,0.6338,0.6091,0.58,0.5851,0.5772,0.5599,0.5792,0.5947,0.6044,0.62,0.6338,0.6338,0.6338,0.6338,0.6338,0.6338,0.6338,0.6338,0.6338,0.6338,0.6338,0.6338,0.6338,0.6338,0.6338,0.6338,0.6338,0.6338,0.6338,0.6338,0.6338,0.6338,0.6338,0.6338,0.6338,0.6338,0.6338,0.6338,0.6338,0.6338,0.6338,0.6338,0.6338,0.6338,0.6338,0.6338,0.6338,0.6641,0.7557,0.7783,0.8613,1.0565,1.162,1.2224,1.2305,1.2305,1.2305,1.2305,1.2305,1.2305,1.2305,1.2305,1.2305,1.2305,1.2305,1.2305,1.2305,1.2305,1.2305,-1.2881,-1.2881,-1.29,-1.2906,-1.0414,0.0,0.0,-0.7843,-0.4944,-0.0469,-0.3448,-0.4605,0.2474,0.1508,-0.1353,-0.4307,0.0913,0.5428,0.5428,0.5627,0.435,0.0471,0.0,0.0,0.0,0.0,0.0,0.0,0.0,0.0,0.0,0.0,0.1008,0.3284,0.4688,0.5428,0.5428,0.5552,0.561,0.5732,0.5993,0.6115,0.6122,0.6217,0.6091,0.58,0.5875,0.5741,0.5467,0.5775,0.5909,0.5911,0.6162,0.6338,0.6338,0.6338,0.6338,0.6338,0.6338,0.6338,0.6338,0.6338,0.6338,0.6338,0.6338,0.6338,0.6338,0.6338,0.6338,0.6338,0.6338,0.6338,0.6338,0.6338,0.6338,0.6338,0.6338,0.6338,0.6338,0.6338,0.6338,0.6338,0.6338,0.6338,0.6338,0.6338,0.6795,0.7249,0.7249,0.7783,0.8313,0.8689,0.9286,1.0265,1.162,1.2077,1.2305,1.2305,1.2305,1.2305,1.2305,1.2305,1.2305,1.2305,1.2305,1.2305,1.2305,1.2305,1.2305,1.2305,1.2305,1.2305,-1.3113,-1.2881,-1.2887,-1.2898,0.0,0.0,-1.4799,-1.2921,-0.8559,-0.1472,-0.6015,-0.7844,0.3328,0.576,0.342,-0.4629,0.0455,0.5428,0.5428,0.442,0.2748,0.0269,0.0,0.0,0.0,0.0,0.0471,0.1612,0.1678,0.1678,0.1678,0.1678,0.2815,0.5296,0.5428,0.5428,0.5428,0.5566,0.5549,0.5518,0.5213,0.5346,0.5962,0.6067,0.5976,0.5735,0.5735,0.5593,0.5449,0.563,0.5789,0.5901,0.6159,0.6338,0.6338,0.6338,0.6338,0.6338,0.6338,0.6338,0.6338,0.6338,0.6338,0.6338,0.6338,0.6338,0.6338,0.6338,0.6338,0.6338,0.6338,0.6338,0.6338,0.6338,0.6338,0.6338,0.6338,0.6338,0.6338,0.6338,0.6338,0.6338,0.6338,0.6567,0.6795,0.6795,0.7633,0.8237,0.8237,0.8841,0.9448,0.9744,1.064,1.1545,1.2224,1.2305,1.2305,1.2305,1.2305,1.2305,1.2305,1.2305,1.2305,1.2305,1.2305,1.2305,1.2305,1.2305,1.2305,1.2305,1.2305,1.2305,-1.343,-1.2832,-1.2881,-1.2881,-1.0744,-0.9889,-1.4334,-1.2852,-0.8495,-0.1538,-0.5672,-0.7236,0.3445,0.5428,0.5627,0.6284,0.5822,0.5362,0.5359,0.2281,0.0,0.0,0.0,0.0,0.0,0.0,0.1545,0.5156,0.5428,0.5428,0.5428,0.5428,0.5428,0.5428,0.5428,0.5428,0.5428,0.5428,0.5428,0.5362,0.3732,0.391,0.58,0.58,0.5722,0.5589,0.5589,0.5504,0.5439,0.5528,0.5766,0.6044,0.62,0.6338,0.6338,0.6338,0.6338,0.6338,0.6338,0.6338,0.6338,0.6338,0.6338,0.6338,0.6338,0.6338,0.6338,0.6338,0.6338,0.6338,0.6338,0.6338,0.6338,0.6338,0.6338,0.6338,0.6338,0.6338,0.6338,0.6338,0.6338,0.6338,0.6338,0.7176,0.7783,0.7783,0.8694,0.9296,0.9296,0.9296,0.9744,1.0708,1.1694,1.2305,1.2305,1.2305,1.2305,1.2305,1.2305,1.2305,1.2305,1.2305,1.2305,1.2305,1.2305,1.2305,1.2305,1.2305,1.2305,1.2305,1.2305,1.2305,-0.5699,-0.825,-1.2421,-1.049,-0.6253,-0.4113,-1.0013,-0.6706,-0.3493,-0.7338,-0.5055,-0.0793,0.4472,0.5428,0.5495,0.5693,0.5561,0.4489,0.1946,0.0673,0.0,0.0,0.0,0.0,0.0,0.2281,0.422,0.5296,0.5428,0.5428,0.5428,0.5428,0.5428,0.5428,0.5428,0.5428,0.5428,0.5428,0.5428,0.5428,0.5011,0.511,0.565,0.4429,0.4552,0.5589,0.5589,0.5504,0.5449,0.5633,0.5854,0.6044,0.62,0.6338,0.6338,0.6338,0.6338,0.6338,0.6338,0.6338,0.6338,0.6338,0.6338,0.6338,0.6338,0.6338,0.6338,0.6338,0.6338,0.6338,0.6338,0.6338,0.6338,0.6338,0.6338,0.6338,0.6338,0.6338,0.6338,0.6338,0.6872,0.7326,0.7326,0.8161,0.8846,0.8846,0.9744,1.064,1.1323,1.1403,1.1545,1.1848,1.215,1.2305,1.2305,1.2305,1.2305,1.2305,1.2305,1.2305,1.2305,1.2305,1.2305,1.2305,1.2305,1.2305,1.2305,1.2305,1.2305,1.2305,1.2305,1.2305,-0.5218,-0.5616,-0.7306,-0.5366,-0.221,-0.1586,-0.9169,-0.489,-0.0734,-0.5564,-0.2708,0.0794,0.1062,0.3487,0.5428,0.5428,0.5428,0.4154,0.0539,0.0,0.0,0.0,0.0,0.0539,0.2013,0.4087,0.5428,0.5428,0.5428,0.5428,0.5428,0.5428,0.5428,0.5428,0.5428,0.5428,0.5428,0.5428,0.5428,0.5362,0.4754,0.48,0.5498,0.4512,0.4583,0.5498,0.5498,0.5447,0.5452,0.5681,0.5857,0.5959,0.6176,0.6338,0.6338,0.6338,0.6338,0.6338,0.6338,0.6338,0.6338,0.6338,0.6338,0.6338,0.6338,0.6338,0.6338,0.6338,0.6567,0.6795,0.6412,0.6872,0.7326,0.649,0.6644,0.6872,0.6872,0.7176,0.7403,0.7173,0.7548,0.808,0.8313,0.8922,0.9372,0.9674,1.0645,1.162,1.2224,1.2305,1.2305,1.2305,1.2305,1.2305,1.2305,1.2305,1.2305,1.2305,1.2305,1.2305,1.2305,1.2305,1.2305,1.2305,1.2305,1.2305,1.2305,1.2305,1.2305,1.2305,1.2305,1.2305,-0.8838,-0.4463,-0.0672,0.0,0.0667,-0.1028,-0.9288,-0.5078,0.0673,0.0941,0.0471,-0.0977,-0.4116,0.0556,0.4891,0.4891,0.4891,0.3751,0.0471,0.0,0.0,0.0,0.0,0.1411,0.5024,0.5428,0.5428,0.5428,0.5428,0.5428,0.5428,0.5428,0.5428,0.5428,0.5428,0.5352,0.5137,0.5286,0.5286,0.5134,0.3694,0.3836,0.5428,0.5335,0.5338,0.5428,0.5428,0.5428,0.5449,0.5667,0.5789,0.583,0.6125,0.6247,0.6338,0.6338,0.6338,0.6338,0.6338,0.6338,0.6338,0.6338,0.6338,0.6338,0.6412,0.6412,0.649,0.6567,0.7249,0.7706,0.6795,0.7936,0.8841,0.7022,0.7249,0.7931,0.7931,0.8613,0.9064,0.8452,0.8376,0.8604,0.9221,0.9448,0.975,1.0421,1.1545,1.2305,1.2305,1.2305,1.2305,1.2305,1.2305,1.2305,1.2305,1.2305,1.2305,1.2305,1.2305,1.2305,1.2305,1.2305,1.2305,1.2305,1.2305,1.2305,1.2305,1.2305,1.2305,1.2305,1.2305,1.2305,-0.35,-0.4372,-0.6868,-0.6736,-0.2782,0.1327,0.2081,0.3682,0.4143,0.0874,0.0135,-0.0067,-0.026,0.0528,0.1143,0.1143,0.1143,0.0875,0.0135,0.0,0.0,0.0,0.0,0.1411,0.5024,0.5428,0.5428,0.5428,0.5428,0.5428,0.5428,0.5428,0.5428,0.5428,0.5428,0.4695,0.3283,0.4695,0.4695,0.3283,0.4457,0.5117,0.5355,0.3973,0.4113,0.5428,0.5428,0.5428,0.5442,0.5559,0.5701,0.582,0.6006,0.6156,0.6338,0.6338,0.6338,0.6338,0.6338,0.6338,0.6338,0.6338,0.6338,0.6412,0.7249,0.748,0.7629,0.8466,0.8841,0.8917,0.8694,0.8998,0.9221,0.8765,0.8846,0.8998,0.8998,0.8761,0.8452,0.83,0.8761,0.9145,0.9296,1.0576,1.17,1.1855,1.215,1.2305,1.2305,1.2305,1.2305,1.2305,1.2305,1.2305,1.2305,1.2305,1.2305,1.2305,1.2305,1.2305,1.2305,1.2305,1.2305,1.2305,1.2305,1.2305,1.2305,1.2305,1.2305,1.2305,1.2305,1.2305,-0.716,-0.844,-0.9656,-0.5177,-0.2978,-0.0498,0.5117,0.6121,0.5286,0.3015,0.121,0.0135,0.0471,0.0269,0.0,0.0,0.0,0.0,0.0,0.0,0.0,0.0,0.1545,0.3349,0.5226,0.5428,0.5428,0.5428,0.5428,0.5428,0.5428,0.5428,0.5428,0.5428,0.5428,0.4982,0.4105,0.4979,0.4979,0.4105,0.5042,0.5491,0.5359,0.4407,0.448,0.5428,0.5428,0.5428,0.5439,0.5528,0.5674,0.5817,0.5969,0.6125,0.6338,0.6338,0.6338,0.6338,0.6338,0.6338,0.6416,0.6872,0.7022,0.7176,0.8237,0.8542,0.8618,0.9145,0.9669,0.9895,0.9448,0.9976,1.0645,1.0121,1.004,1.004,1.004,1.011,1.0185,1.0185,1.0496,1.0726,1.0726,1.1626,1.2305,1.2305,1.2305,1.2305,1.2305,1.2305,1.2305,1.2305,1.2305,1.2305,1.2305,1.2305,1.2305,1.2305,1.2305,1.2305,1.2305,1.2305,1.2305,1.2305,1.2305,1.2305,1.2305,1.2305,1.2305,1.2305,1.2305,1.2305,-1.2996,-1.1822,-0.8821,-0.1164,-0.1741,-0.2815,0.2421,0.3226,0.3294,0.5061,0.2549,0.0,0.0,0.0,0.0,0.0,0.0,0.0,0.0,0.0539,0.0941,0.0941,0.3551,0.5428,0.5428,0.5428,0.5428,0.5428,0.5428,0.5428,0.5428,0.5428,0.5428,0.5428,0.5428,0.5276,0.5104,0.5276,0.5276,0.5104,0.5276,0.5428,0.5428,0.5428,0.5428,0.5428,0.5428,0.5428,0.5439,0.5498,0.5637,0.5779,0.5932,0.6084,0.6224,0.6251,0.6338,0.6338,0.649,0.6567,0.6718,0.7706,0.8084,0.8237,0.9221,0.9593,0.9593,0.975,1.0415,1.0864,1.0045,1.1025,1.2077,1.1242,1.1087,1.1087,1.1087,1.1694,1.2305,1.2305,1.2305,1.2305,1.2305,1.2305,1.2305,1.2305,1.2305,1.2305,1.2305,1.2305,1.2305,1.2305,1.2305,1.2305,1.2305,1.2305,1.2305,1.2305,1.2305,1.2305,1.2305,1.2305,1.2305,1.2305,1.2305,1.2305,1.2305,1.2305,1.2305,1.2305,1.2305,1.2305,-1.3179,-0.7552,-0.1568,-0.0936,-0.0266,-0.1081,-0.6314,-0.7555,-0.5125,0.3635,0.2549,0.0,0.0,0.0,0.0,0.0,0.0,0.0,0.0,0.2681,0.4688,0.4688,0.5093,0.5428,0.5428,0.5428,0.5428,0.5428,0.5428,0.5428,0.5428,0.5428,0.5428,0.5428,0.5428,0.4623,0.3077,0.462,0.462,0.3077,0.4689,0.5428,0.5428,0.5428,0.5428,0.5428,0.5428,0.5428,0.5428,0.5452,0.5481,0.5633,0.5776,0.5925,0.6078,0.621,0.6338,0.6416,0.7326,0.7629,0.7783,0.8765,0.9069,0.9296,1.0265,1.0565,1.0789,1.1626,1.2003,1.207,1.1929,1.2077,1.2305,1.215,1.2077,1.2077,1.2077,1.2224,1.2305,1.2305,1.2305,1.2305,1.2305,1.2305,1.2305,1.2305,1.2305,1.2305,1.2305,1.2305,1.2305,1.2305,1.2305,1.2305,1.2305,1.2305,1.2305,1.2305,1.2305,1.2305,1.2305,1.2305,1.2305,1.2305,1.2305,1.2305,1.2305,1.2305,1.2305,1.2305,1.2305,1.2305,-1.3077,-0.6653,-0.0067,-0.0404,0.0,-0.0265,-0.2964,-0.6492,-0.6363,0.3392,0.2491,0.0,0.0,0.0,0.0,0.0,0.0,0.074,0.275,0.442,0.5428,0.5428,0.5428,0.5428,0.5428,0.5428,0.5428,0.5428,0.5428,0.5428,0.5428,0.5428,0.5428,0.5428,0.5428,0.5055,0.4319,0.5051,0.4989,0.4194,0.4989,0.5428,0.5428,0.5428,0.5428,0.5428,0.5428,0.5428,0.5428,0.5428,0.545,0.5603,0.5745,0.6255,0.6857,0.7034,0.748,0.8008,0.8466,0.8618,0.8841,0.9814,1.0115,1.034,1.1316,1.162,1.1694,1.215,1.2305,1.2305,1.2305,1.2305,1.2305,1.2305,1.2305,1.2305,1.2305,1.2305,1.2305,1.2305,1.2305,1.2305,1.2305,1.2305,1.2305,1.2305,1.2305,1.2305,1.2305,1.2305,1.2305,1.2305,1.2305,1.2305,1.2305,1.2305,1.2305,1.2305,1.2305,1.2305,1.2305,1.2305,1.2305,1.2305,1.2305,1.2305,1.2305,1.2305,1.2305,1.2305,1.2305,1.2305,-1.3022,-0.823,-0.3272,-0.3272,-0.2847,-0.1862,0.0333,-0.2845,-0.4309,0.2576,0.189,0.0,0.0,0.0,0.0,0.0,0.0,0.1276,0.4891,0.5428,0.5428,0.5428,0.5428,0.5428,0.5428,0.5428,0.5428,0.5428,0.5428,0.5428,0.5428,0.5428,0.5428,0.5428,0.5428,0.5425,0.5554,0.5425,0.5428,0.5428,0.5428,0.5428,0.5428,0.5428,0.5491,0.5686,0.5491,0.5428,0.5428,0.5428,0.5561,0.5884,0.6079,0.6869,0.7815,0.8067,0.8694,0.9372,0.9593,0.9669,0.982,1.0864,1.1162,1.1316,1.207,1.2305,1.2305,1.2305,1.2305,1.2305,1.2305,1.2305,1.2305,1.2305,1.2305,1.2305,1.2305,1.2305,1.2305,1.2305,1.2305,1.2305,1.2305,1.2305,1.2305,1.2305,1.2305,1.2305,1.2305,1.2305,1.2305,1.2305,1.2305,1.2305,1.2305,1.2305,1.2305,1.2305,1.2305,1.2305,1.2305,1.2305,1.2305,1.2305,1.2305,1.2305,1.2305,1.2305,1.2305,1.2305,1.2305,1.2305,-1.3196,-1.2701,-1.2221,-1.2221,-1.0632,-0.7505,-0.1369,0.0334,0.0533,0.0336,0.0135,0.0,0.0,0.0,0.0,0.0,0.0,0.1276,0.4891,0.5428,0.5428,0.5428,0.5428,0.5428,0.5428,0.5428,0.5428,0.5428,0.5428,0.5428,0.5428,0.5428,0.5428,0.5428,0.5428,0.5428,0.5425,0.5428,0.5428,0.5428,0.5428,0.5428,0.5428,0.5428,0.5881,0.6588,0.5752,0.5428,0.5428,0.5428,0.5885,0.6705,0.7068,0.7783,0.8624,0.906,0.9221,0.9448,1.0415,1.0714,1.0864,1.1922,1.2224,1.2224,1.2298,1.2305,1.2305,1.2305,1.2305,1.2305,1.2305,1.2305,1.2305,1.2305,1.2305,1.2305,1.2305,1.2305,1.2305,1.2305,1.2305,1.2305,1.2305,1.2305,1.2305,1.2305,1.2305,1.2305,1.2305,1.2305,1.2305,1.2305,1.2305,1.2305,1.2305,1.2305,1.2305,1.2305,1.2305,1.2305,1.2305,1.2305,1.2305,1.2305,1.2305,1.2305,1.2305,1.2305,1.2305,1.2305,1.2305,1.2305,-1.3198,-1.3043,-1.2881,-1.2881,-1.2314,-1.0751,-0.7033,-0.2763,0.0337,0.0067,0.0,0.0,0.0,0.0,0.0,0.0,0.0,0.1276,0.4891,0.5428,0.5428,0.5428,0.5428,0.5428,0.5428,0.5428,0.5428,0.5428,0.5428,0.5428,0.5428,0.5428,0.5428,0.5428,0.5428,0.5428,0.5428,0.5428,0.5428,0.5428,0.5428,0.5428,0.5428,0.6009,0.6396,0.6719,0.6985,0.7055,0.7055,0.7055,0.7246,0.7545,0.7965,0.8694,0.96,1.0086,1.0645,1.1248,1.162,1.1768,1.1848,1.215,1.2305,1.2305,1.2305,1.2305,1.2305,1.2305,1.2305,1.2305,1.2305,1.2305,1.2305,1.2305,1.2305,1.2305,1.2305,1.2305,1.2305,1.2305,1.2305,1.2305,1.2305,1.2305,1.2305,1.2305,1.2305,1.2305,1.2305,1.2305,1.2305,1.2305,1.2305,1.2305,1.2305,1.2305,1.2305,1.2305,1.2305,1.2305,1.2305,1.2305,1.2305,1.2305,1.2305,1.2305,1.2305,1.2305,1.2305,1.2305,1.2305,1.2305,-1.2389,-1.2552,-1.2881,-1.2881,-1.2881,-1.252,-1.104,-0.6842,-0.2598,-0.0467,0.0,0.0,0.0,0.0,0.0,0.0,0.0,0.1276,0.4891,0.5428,0.5428,0.5428,0.5428,0.5428,0.5428,0.5428,0.5428,0.5428,0.5428,0.5428,0.5428,0.5428,0.5428,0.5428,0.5428,0.5428,0.5428,0.5428,0.5428,0.5428,0.5686,0.5815,0.5881,0.6724,0.7307,0.7632,0.8156,0.8291,0.8027,0.8027,0.8203,0.8575,0.8965,0.9729,1.0783,1.115,1.1694,1.2305,1.2305,1.2305,1.2305,1.2305,1.2305,1.2305,1.2305,1.2305,1.2305,1.2305,1.2305,1.2305,1.2305,1.2305,1.2305,1.2305,1.2305,1.2305,1.2305,1.2305,1.2305,1.2305,1.2305,1.2305,1.2305,1.2305,1.2305,1.2305,1.2305,1.2305,1.2305,1.2305,1.2305,1.2305,1.2305,1.2305,1.2305,1.2305,1.2305,1.2305,1.2305,1.2305,1.2305,1.2305,1.2305,1.2305,1.2305,1.2305,1.2305,1.2305,1.2305,1.2305,1.2305,1.2305,0.0,0.0,0.0,-1.2881,-1.2881,-1.2881,-1.2881,-1.1242,-0.7905,-0.1685,-0.0334,-0.0201,-0.0067,0.0,0.0067,0.0135,0.0135,0.1411,0.4891,0.5428,0.5428,0.5428,0.5428,0.5428,0.5428,0.5428,0.5428,0.5428,0.5428,0.5428,0.5428,0.5428,0.5428,0.5428,0.5428,0.5428,0.5428,0.5428,0.5428,0.5428,0.6264,0.6719,0.6785,0.7632,0.8484,0.9274,0.9338,0.8877,0.8091,0.8091,0.8756,0.9746,1.0,1.0829,1.1904,1.2191,1.2305,1.2305,1.2305,1.2305,1.2305,1.2305,1.2305,1.2305,1.2305,1.2305,1.2305,1.2305,1.2305,1.2305,1.2305,1.2305,1.2305,1.2305,1.2305,1.2305,1.2305,1.2305,1.2305,1.2305,1.2305,1.2305,1.2305,1.2305,1.2305,1.2305,1.2305,1.2305,1.2305,1.2305,1.2305,1.2305,1.2305,1.2305,1.2305,1.2305,1.2305,1.2305,1.2305,1.2305,1.2305,1.2305,1.2305,1.2305,1.2305,1.2305,1.2305,1.2305,1.2305,1.2305,1.2305,1.2305,-1.084,0.0,0.0,0.0,0.0,0.0,-1.2881,-1.2421,-1.1595,-1.0106,-0.8276,-0.5518,-0.0858,0.0,0.0875,0.3485,0.3885,0.4287,0.5226,0.5428,0.5428,0.5428,0.5428,0.5428,0.5428,0.5428,0.5428,0.5428,0.5428,0.5428,0.5428,0.5428,0.5428,0.5428,0.5428,0.5428,0.5428,0.5428,0.5686,0.633,0.6593,0.7046,0.7697,0.8549,0.9075,0.9338,0.9977,1.0104,0.9907,0.9907,1.0199,1.0685,1.097,1.1394,1.1904,1.2191,1.2305,1.2305,1.2305,1.2305,1.2305,1.2305,1.2305,1.2305,1.2305,1.2305,1.2305,1.2305,1.2305,1.2305,1.2305,1.2305,1.2305,1.2305,1.2305,1.2305,1.2305,1.2305,1.2305,1.2305,1.2305,1.2305,1.2305,1.2305,1.2305,1.2305,1.2305,1.2305,1.2305,1.2305,1.2305,1.2305,1.2305,1.2305,1.2305,1.2305,1.2305,1.2305,1.2305,1.2305,1.2305,1.2305,1.2305,1.2305,1.2305,1.2305,1.2305,1.2305,1.2305,1.2305,1.2305,1.2305,0.0,0.0,0.0,-1.2881,0.0,0.0,-1.2881,-1.2881,-1.2968,-1.3248,-0.8925,-0.4059,-0.0663,-0.2175,-0.193,0.4369,0.5428,0.5428,0.5428,0.5428,0.5428,0.5428,0.5428,0.5428,0.5428,0.5428,0.5428,0.5428,0.5428,0.5428,0.5428,0.5428,0.5428,0.5428,0.5428,0.5428,0.5428,0.5752,0.6203,0.6719,0.7437,0.8027,0.8549,0.946,0.9849,0.9849,1.0364,1.0624,1.0624,1.0624,1.0802,1.1189,1.1363,1.1683,1.2071,1.2238,1.2305,1.2305,1.2305,1.2305,1.2305,1.2305,1.2305,1.2305,1.2305,1.2305,1.2305,1.2305,1.2305,1.2305,1.2305,1.2305,1.2305,1.2305,1.2305,1.2305,1.2305,1.2305,1.2305,1.2305,1.2305,1.2305,1.2305,1.2305,1.2305,1.2305,1.2305,1.2305,1.2305,1.2305,1.2305,1.2305,1.2305,1.2305,1.2305,1.2305,1.2305,1.2305,1.2305,1.2305,1.2305,1.2305,1.2305,1.2305,1.2305,1.2305,1.2305,1.2305,1.2305,1.2305,1.2305,1.2305,0.0,0.0,0.0,-1.2881,-1.2881,0.0,-1.2881,-1.2881,-1.2881,-1.2881,-0.6315,-0.0716,-0.137,-0.6372,-0.7371,0.1823,0.329,0.3774,0.5209,0.5428,0.5428,0.5428,0.5428,0.5428,0.5428,0.5428,0.5428,0.5428,0.5428,0.5428,0.5428,0.5428,0.5428,0.5428,0.5428,0.5428,0.5557,0.6334,0.6785,0.6981,0.8549,0.9338,0.9466,1.0238,1.0624,1.0624,1.0624,1.0624,1.0624,1.0624,1.0902,1.1423,1.1423,1.1784,1.2305,1.2305,1.2305,1.2305,1.2305,1.2305,1.2305,1.2305,1.2305,1.2305,1.2305,1.2305,1.2305,1.2305,1.2305,1.2305,1.2305,1.2305,1.2305,1.2305,1.2305,1.2305,1.2305,1.2305,1.2305,1.2305,1.2305,1.2305,1.2305,1.2305,1.2305,1.2305,1.2305,1.2305,1.2305,1.2305,1.2305,1.2305,1.2305,1.2305,1.2305,1.2305,1.2305,1.2305,1.2305,1.2305,1.2305,1.2305,1.2305,1.2305,1.2305,1.2305,1.2305,1.2305,1.2305,1.2305,1.2305,1.2305,-1.2793,-1.2881,-1.2881,-1.2881,-1.2881,0.0,-1.2881,-1.2881,-1.2881,-1.2881,-1.1763,-1.0799,-1.0927,-1.3226,-1.4003,-1.0487,-0.9908,-0.6315,0.3983,0.5428,0.5428,0.5428,0.5428,0.5428,0.5428,0.5428,0.5428,0.5428,0.5428,0.5428,0.5428,0.5428,0.5428,0.5428,0.5428,0.5752,0.6461,0.6588,0.7372,0.8812,0.9139,0.9658,1.0364,1.0491,1.0624,1.0624,1.0624,1.0624,1.0624,1.0624,1.0902,1.1423,1.1423,1.1784,1.2305,1.2305,1.2305,1.2305,1.2305,1.2305,1.2305,1.2305,1.2305,1.2305,1.2305,1.2305,1.2305,1.2305,1.2305,1.2305,1.2305,1.2305,1.2305,1.2305,1.2305,1.2305,1.2305,1.2305,1.2305,1.2305,1.2305,1.2305,1.2305,1.2305,1.2305,1.2305,1.2305,1.2305,1.2305,1.2305,1.2305,1.2305,1.2305,1.2305,1.2305,1.2305,1.2305,1.2305,1.2305,1.2305,1.2305,1.2305,1.2305,1.2305,1.2305,1.2305,1.2305,1.2305,1.2305,1.2305,1.2305,1.2305,-1.2881,-1.2881,-1.2881,-1.2881,-1.2881,0.0,0.0,-1.2881,-1.2881,-1.2881,-1.3065,-1.3248,-1.3248,-1.5017,-1.6194,-1.5197,-1.5062,-1.2416,-0.4787,-0.0,0.2029,0.0245,0.3213,0.5428,0.5428,0.5428,0.5428,0.5428,0.5428,0.5428,0.5428,0.5428,0.5428,0.5428,0.5815,0.6268,0.6719,0.7567,0.842,0.9274,0.9722,1.0174,1.0624,1.0624,1.0624,1.0624,1.0624,1.0624,1.0631,1.0715,1.1035,1.1423,1.1423,1.1784,1.2305,1.2305,1.2305,1.2305,1.2305,1.2305,1.2305,1.2305,1.2305,1.2305,1.2305,1.2305,1.2305,1.2305,1.2305,1.2305,1.2305,1.2305,1.2305,1.2305,1.2305,1.2305,1.2305,1.2305,1.2305,1.2305,1.2305,1.2305,1.2305,1.2305,1.2305,1.2305,1.2305,1.2305,1.2305,1.2305,1.2305,1.2305,1.2305,1.2305,1.2305,1.2305,1.2305,1.2305,1.2305,1.2305,1.2305,1.2305,1.2305,1.2305,1.2305,1.2305,1.2305,1.2305,1.2305,1.2305,1.2305,1.2305,-1.2881,-1.2881,-1.2881,-1.2881,-1.2881,-1.2881,0.0,0.0,0.0,-1.2881,-1.2881,-1.2881,-1.2881,-1.453,-1.584,-1.584,-1.584,-1.5187,-1.3219,-0.6704,-0.2616,-0.3892,0.1506,0.4629,0.2684,0.2752,0.3317,0.4388,0.4487,0.4643,0.4935,0.5259,0.5428,0.5428,0.6268,0.6785,0.6981,0.8484,0.9402,0.953,1.0238,1.0624,1.0624,1.0624,1.0624,1.0624,1.0624,1.0624,1.0645,1.0875,1.1162,1.143,1.149,1.1837,1.2305,1.2305,1.2305,1.2305,1.2305,1.2305,1.2305,1.2305,1.2305,1.2305,1.2305,1.2305,1.2305,1.2305,1.2305,1.2305,1.2305,1.2305,1.2305,1.2305,1.2305,1.2305,1.2305,1.2305,1.2305,1.2305,1.2305,1.2305,1.2305,1.2305,1.2305,1.2305,1.2305,1.2305,1.2305,1.2305,1.2305,1.2305,1.2305,1.2305,1.2305,1.2305,1.2305,1.2305,1.2305,1.2305,1.2305,1.2305,1.2305,1.2305,1.2305,1.2372,1.2592,1.2592,1.2445,1.2305,1.2519,1.2592,-1.2881,-1.2881,-1.2881,-1.2881,-1.2881,-1.2881,-1.2881,0.0,-1.2881,-1.2881,0.0,-1.2881,-1.2881,0.0,0.0,-1.3574,-1.3574,-1.349,-1.3192,-1.1131,-0.7181,-0.0447,0.3319,0.1892,-0.703,-0.6888,-0.4208,0.067,0.1336,0.2032,0.3197,0.4616,0.5428,0.5428,0.6268,0.7046,0.7832,0.8812,0.9658,1.0434,1.0555,1.0624,1.0624,1.0624,1.0624,1.0624,1.0624,1.0624,1.0645,1.0875,1.1162,1.145,1.1717,1.2017,1.2305,1.2305,1.2305,1.2305,1.2305,1.2305,1.2305,1.2305,1.2305,1.2305,1.2305,1.2305,1.2305,1.2305,1.2305,1.2305,1.2305,1.2305,1.2305,1.2305,1.2305,1.2305,1.2305,1.2305,1.2305,1.2305,1.2305,1.2305,1.2305,1.2305,1.2305,1.2305,1.2305,1.2305,1.2305,1.2305,1.2305,1.2305,1.2305,1.2305,1.2305,1.2305,1.2305,1.2305,1.2305,1.2305,1.2305,1.2305,1.2305,1.2305,1.2305,1.2732,1.3528,1.3528,1.3091,1.2298,1.3164,1.3528,-1.2881,-1.2881,-1.252,-1.0897,-0.4014,-0.0301,-1.0551,-1.2881,-1.2881,-1.2881,0.0,0.0,0.0,0.0,0.0,0.0,-1.0664,-1.0365,-1.1377,-1.0964,-0.9381,-0.623,-0.4781,-0.5229,-0.8186,-0.7087,-0.5435,-0.3629,-0.1437,0.0703,0.2734,0.3675,0.4508,0.5352,0.6728,0.7632,0.8027,0.939,1.0238,1.0624,1.0624,1.0624,1.0624,1.0624,1.0624,1.0624,1.0624,1.0719,1.0835,1.1122,1.1416,1.171,1.2004,1.2191,1.2305,1.2305,1.2305,1.2305,1.2305,1.2305,1.2305,1.2305,1.2305,1.2305,1.2305,1.2305,1.2305,1.2305,1.2305,1.2305,1.2305,1.2305,1.2305,1.2305,1.2305,1.2305,1.2305,1.2305,1.2305,1.2305,1.2305,1.2305,1.2305,1.2305,1.2305,1.2305,1.2305,1.2305,1.2305,1.2305,1.2305,1.2305,1.2305,1.2305,1.2305,1.2305,1.2305,1.2305,1.2305,1.2519,1.3098,1.3091,1.3382,1.3947,1.3947,1.4163,1.4593,1.4593,1.4378,1.4019,1.4378,1.4593,-0.5673,-0.5673,-0.5198,-0.3194,0.2263,0.366,-0.9835,-1.2881,-1.2744,-1.2266,-1.1162,0.0,0.0,0.0,-1.0283,0.0,0.0,-0.8857,-1.0107,-1.0283,-1.0409,-1.069,-1.0291,-0.9398,-0.7861,-0.604,-0.5218,-0.5789,-0.3055,-0.0509,0.1465,0.2587,0.3698,0.4769,0.6897,0.8027,0.8027,0.9709,1.0624,1.0624,1.0624,1.0624,1.0624,1.0624,1.0624,1.0624,1.0624,1.0728,1.1015,1.1309,1.1597,1.1897,1.2191,1.2305,1.2305,1.2305,1.2305,1.2305,1.2305,1.2305,1.2305,1.2305,1.2305,1.2305,1.2305,1.2305,1.2305,1.2305,1.2305,1.2305,1.2305,1.2305,1.2305,1.2305,1.2305,1.2305,1.2305,1.2305,1.2305,1.2305,1.2305,1.2305,1.2305,1.2305,1.2305,1.2305,1.2305,1.2305,1.2305,1.2305,1.2305,1.2305,1.2305,1.2305,1.2305,1.2305,1.2445,1.2659,1.2666,1.3091,1.4099,1.4099,1.445,1.5163,1.5234,1.5305,1.5587,1.5587,1.5728,1.5948,1.5728,1.5587,1.2676,1.2676,1.2683,1.2783,0.1873,-0.9555,-1.2264,-1.2881,-1.2402,-1.0713,-1.0322,-1.0283,-1.0283,-1.0283,0.0,0.0,0.0,0.0,0.0,-1.0283,-1.0283,-1.0322,-0.8818,-0.7773,-0.7714,-0.5888,-0.4617,-0.4386,-0.3069,-0.1982,-0.1324,0.1506,0.3156,0.3278,0.6354,0.8027,0.8027,0.9709,1.0624,1.0624,1.0624,1.0624,1.0624,1.0624,1.0624,1.0624,1.0624,1.0728,1.1015,1.1309,1.1597,1.1897,1.2191,1.2305,1.2305,1.2305,1.2305,1.2305,1.2305,1.2305,1.2305,1.2305,1.2305,1.2305,1.2305,1.2305,1.2305,1.2305,1.2305,1.2305,1.2305,1.2305,1.2305,1.2305,1.2305,1.2305,1.2305,1.2305,1.2305,1.2305,1.2305,1.2305,1.2305,1.2305,1.2305,1.2305,1.2305,1.2305,1.2305,1.2305,1.2305,1.2305,1.2305,1.2305,1.2305,1.2305,1.2659,1.36,1.3673,1.4099,1.5092,1.5163,1.5163,1.5234,1.5234,1.5658,1.6567,1.6567,1.7001,1.7872,1.7001,1.6567,1.2673,1.2673,1.2673,1.2673,0.1701,-0.9718,-1.2314,-1.2881,-1.2715,-1.2119,-1.1084,-1.0635,-1.1787,-1.1064,0.0,0.0,0.0,0.0,0.0,-0.8594,-0.8594,-0.8594,-0.8055,-0.7248,-0.61,-0.5048,-0.4454,-0.45,-0.3754,-0.2793,-0.1643,-0.0126,0.1472,0.3084,0.5909,0.7591,0.8021,0.9709,1.0624,1.0624,1.0624,1.0624,1.0624,1.0624,1.0732,1.0842,1.0842,1.1122,1.1583,1.1677,1.1891,1.2164,1.2265,1.2305,1.2305,1.2305,1.2305,1.2305,1.2305,1.2305,1.2305,1.2305,1.2305,1.2305,1.2305,1.2305,1.2305,1.2305,1.2305,1.2305,1.2305,1.2305,1.2305,1.2305,1.2305,1.2305,1.2305,1.2305,1.2305,1.2305,1.2305,1.2305,1.2305,1.2305,1.2305,1.2305,1.2305,1.2305,1.2305,1.2305,1.2305,1.2305,1.2305,1.2305,1.2305,1.3098,1.389,1.4665,1.4665,1.5092,1.6079,1.6149,1.6428,1.701,1.7079,1.7226,1.7501,1.7501,1.7716,1.8008,1.7647,1.7501,1.2305,1.2305,1.2305,1.2305,0.5673,-0.1309,-0.3129,-0.3514,-0.3514,-0.3514,-0.6856,-0.8465,-0.4265,-0.694,0.0,0.0,0.0,0.0,0.0,-0.7695,-0.7472,-0.6849,-0.7326,-0.6854,-0.4744,-0.4386,-0.4273,-0.4219,-0.3893,-0.3236,-0.2227,-0.0786,0.0768,0.2447,0.5719,0.7601,0.8021,0.9709,1.0624,1.0624,1.0732,1.0715,1.0722,1.0822,1.0969,1.1149,1.1149,1.1423,1.187,1.187,1.2037,1.2305,1.2305,1.2305,1.2305,1.2305,1.2305,1.2305,1.2305,1.2305,1.2305,1.2305,1.2305,1.2305,1.2305,1.2305,1.2305,1.2305,1.2305,1.2305,1.2305,1.2305,1.2305,1.2305,1.2305,1.2305,1.2305,1.2305,1.2305,1.2305,1.2305,1.2305,1.2305,1.2305,1.2305,1.2305,1.2305,1.2305,1.2305,1.2305,1.2305,1.2305,1.2305,1.2872,1.4227,1.4673,1.51,1.5649,1.572,1.6149,1.707,1.707,1.7354,1.8008,1.8008,1.8008,1.8008,1.8008,1.8008,1.8008,1.8008,1.8008]}]]